<?xml version='1.0' encoding='UTF-8'?>
<gpx version="1.1" creator="https://www.komoot.de" xmlns="http://www.topografix.com/GPX/1/1" xmlns:xsi="http://www.w3.org/2001/XMLSchema-instance" xsi:schemaLocation="http://www.topografix.com/GPX/1/1 http://www.topografix.com/GPX/1/1/gpx.xsd">
  <metadata>
    <name>54_690Arlesheim-Schauenburg</name>
    <author>
      <link href="https://www.komoot.de">
        <text>komoot</text>
        <type>text/html</type>
      </link>
    </author>
  </metadata>
  <trk>
    <name>54_690Arlesheim-Schauenburg</name>
    <trkseg>
      <trkpt lat="47.541197" lon="7.870968">
        <ele>339.227820</ele>
        <time>2021-11-13T15:44:20.662Z</time>
      </trkpt>
      <trkpt lat="47.541410" lon="7.870791">
        <ele>339.227820</ele>
        <time>2021-11-13T15:44:24.236Z</time>
      </trkpt>
      <trkpt lat="47.541509" lon="7.870715">
        <ele>339.227820</ele>
        <time>2021-11-13T15:44:25.744Z</time>
      </trkpt>
      <trkpt lat="47.541576" lon="7.870664">
        <ele>339.227820</ele>
        <time>2021-11-13T15:44:26.677Z</time>
      </trkpt>
      <trkpt lat="47.541550" lon="7.870601">
        <ele>339.227820</ele>
        <time>2021-11-13T15:44:27.477Z</time>
      </trkpt>
      <trkpt lat="47.541521" lon="7.870517">
        <ele>339.227820</ele>
        <time>2021-11-13T15:44:28.520Z</time>
      </trkpt>
      <trkpt lat="47.541606" lon="7.870424">
        <ele>339.227820</ele>
        <time>2021-11-13T15:44:30.196Z</time>
      </trkpt>
      <trkpt lat="47.541910" lon="7.870106">
        <ele>339.124423</ele>
        <time>2021-11-13T15:44:35.861Z</time>
      </trkpt>
      <trkpt lat="47.542014" lon="7.870126">
        <ele>339.036334</ele>
        <time>2021-11-13T15:44:37.321Z</time>
      </trkpt>
      <trkpt lat="47.542118" lon="7.870135">
        <ele>338.948828</ele>
        <time>2021-11-13T15:44:39.034Z</time>
      </trkpt>
      <trkpt lat="47.542181" lon="7.870131">
        <ele>338.895861</ele>
        <time>2021-11-13T15:44:39.912Z</time>
      </trkpt>
      <trkpt lat="47.542317" lon="7.870012">
        <ele>338.763186</ele>
        <time>2021-11-13T15:44:42.044Z</time>
      </trkpt>
      <trkpt lat="47.542348" lon="7.869983">
        <ele>338.732390</ele>
        <time>2021-11-13T15:44:42.476Z</time>
      </trkpt>
      <trkpt lat="47.542329" lon="7.869820">
        <ele>338.638598</ele>
        <time>2021-11-13T15:44:44.230Z</time>
      </trkpt>
      <trkpt lat="47.542372" lon="7.869746">
        <ele>338.583235</ele>
        <time>2021-11-13T15:44:45.049Z</time>
      </trkpt>
      <trkpt lat="47.542657" lon="7.869354">
        <ele>338.256567</ele>
        <time>2021-11-13T15:44:49.850Z</time>
      </trkpt>
      <trkpt lat="47.542696" lon="7.869257">
        <ele>338.192550</ele>
        <time>2021-11-13T15:44:50.786Z</time>
      </trkpt>
      <trkpt lat="47.542722" lon="7.869201">
        <ele>338.154012</ele>
        <time>2021-11-13T15:44:51.377Z</time>
      </trkpt>
      <trkpt lat="47.543049" lon="7.868759">
        <ele>337.782188</ele>
        <time>2021-11-13T15:44:56.290Z</time>
      </trkpt>
      <trkpt lat="47.543105" lon="7.868711">
        <ele>337.727843</ele>
        <time>2021-11-13T15:44:57.028Z</time>
      </trkpt>
      <trkpt lat="47.543201" lon="7.868657">
        <ele>337.591759</ele>
        <time>2021-11-13T15:44:58.107Z</time>
      </trkpt>
      <trkpt lat="47.543657" lon="7.868359">
        <ele>336.896553</ele>
        <time>2021-11-13T15:45:03.902Z</time>
      </trkpt>
      <trkpt lat="47.543801" lon="7.868269">
        <ele>336.678546</ele>
        <time>2021-11-13T15:45:06.381Z</time>
      </trkpt>
      <trkpt lat="47.544214" lon="7.867988">
        <ele>336.044606</ele>
        <time>2021-11-13T15:45:13.997Z</time>
      </trkpt>
      <trkpt lat="47.544246" lon="7.867967">
        <ele>335.995787</ele>
        <time>2021-11-13T15:45:14.593Z</time>
      </trkpt>
      <trkpt lat="47.544410" lon="7.867825">
        <ele>335.730819</ele>
        <time>2021-11-13T15:45:17.845Z</time>
      </trkpt>
      <trkpt lat="47.544469" lon="7.867776">
        <ele>335.636471</ele>
        <time>2021-11-13T15:45:18.866Z</time>
      </trkpt>
      <trkpt lat="47.544568" lon="7.867693">
        <ele>335.477798</ele>
        <time>2021-11-13T15:45:20.792Z</time>
      </trkpt>
      <trkpt lat="47.545003" lon="7.867278">
        <ele>335.346902</ele>
        <time>2021-11-13T15:45:29.638Z</time>
      </trkpt>
      <trkpt lat="47.545160" lon="7.866985">
        <ele>335.455041</ele>
        <time>2021-11-13T15:45:34.290Z</time>
      </trkpt>
      <trkpt lat="47.545240" lon="7.866887">
        <ele>335.499495</ele>
        <time>2021-11-13T15:45:36.561Z</time>
      </trkpt>
      <trkpt lat="47.545864" lon="7.866348">
        <ele>335.808823</ele>
        <time>2021-11-13T15:45:54.161Z</time>
      </trkpt>
      <trkpt lat="47.546096" lon="7.866147">
        <ele>335.923917</ele>
        <time>2021-11-13T15:46:01.634Z</time>
      </trkpt>
      <trkpt lat="47.546327" lon="7.865959">
        <ele>336.023556</ele>
        <time>2021-11-13T15:46:08.053Z</time>
      </trkpt>
      <trkpt lat="47.546510" lon="7.865766">
        <ele>336.097964</ele>
        <time>2021-11-13T15:46:14.438Z</time>
      </trkpt>
      <trkpt lat="47.546819" lon="7.865489">
        <ele>336.217597</ele>
        <time>2021-11-13T15:46:22.592Z</time>
      </trkpt>
      <trkpt lat="47.546889" lon="7.865225">
        <ele>336.281014</ele>
        <time>2021-11-13T15:46:26.383Z</time>
      </trkpt>
      <trkpt lat="47.546894" lon="7.864837">
        <ele>336.367780</ele>
        <time>2021-11-13T15:46:31.564Z</time>
      </trkpt>
      <trkpt lat="47.546885" lon="7.864500">
        <ele>336.443187</ele>
        <time>2021-11-13T15:46:37.210Z</time>
      </trkpt>
      <trkpt lat="47.546974" lon="7.864423">
        <ele>336.477326</ele>
        <time>2021-11-13T15:46:38.798Z</time>
      </trkpt>
      <trkpt lat="47.547320" lon="7.863864">
        <ele>336.251940</ele>
        <time>2021-11-13T15:46:48.722Z</time>
      </trkpt>
      <trkpt lat="47.547568" lon="7.863151">
        <ele>335.457487</ele>
        <time>2021-11-13T15:46:57.735Z</time>
      </trkpt>
      <trkpt lat="47.547930" lon="7.861711">
        <ele>333.935515</ele>
        <time>2021-11-13T15:47:14.109Z</time>
      </trkpt>
      <trkpt lat="47.548049" lon="7.860929">
        <ele>333.214179</ele>
        <time>2021-11-13T15:47:22.809Z</time>
      </trkpt>
      <trkpt lat="47.548334" lon="7.859801">
        <ele>332.130475</ele>
        <time>2021-11-13T15:47:36.291Z</time>
      </trkpt>
      <trkpt lat="47.548611" lon="7.858381">
        <ele>331.384351</ele>
        <time>2021-11-13T15:47:54.247Z</time>
      </trkpt>
      <trkpt lat="47.548686" lon="7.857973">
        <ele>331.305416</ele>
        <time>2021-11-13T15:47:59.636Z</time>
      </trkpt>
      <trkpt lat="47.548701" lon="7.857893">
        <ele>331.289918</ele>
        <time>2021-11-13T15:48:00.756Z</time>
      </trkpt>
      <trkpt lat="47.548743" lon="7.857692">
        <ele>331.250641</ele>
        <time>2021-11-13T15:48:03.530Z</time>
      </trkpt>
      <trkpt lat="47.548887" lon="7.857308">
        <ele>331.168640</ele>
        <time>2021-11-13T15:48:09.564Z</time>
      </trkpt>
      <trkpt lat="47.549362" lon="7.855774">
        <ele>331.338167</ele>
        <time>2021-11-13T15:48:33.609Z</time>
      </trkpt>
      <trkpt lat="47.549566" lon="7.855225">
        <ele>331.525705</ele>
        <time>2021-11-13T15:48:42.782Z</time>
      </trkpt>
      <trkpt lat="47.549883" lon="7.854434">
        <ele>331.800990</ele>
        <time>2021-11-13T15:48:56.976Z</time>
      </trkpt>
      <trkpt lat="47.550221" lon="7.853833">
        <ele>332.033483</ele>
        <time>2021-11-13T15:49:06.575Z</time>
      </trkpt>
      <trkpt lat="47.549788" lon="7.853366">
        <ele>332.269012</ele>
        <time>2021-11-13T15:49:18.260Z</time>
      </trkpt>
      <trkpt lat="47.549708" lon="7.853279">
        <ele>332.312653</ele>
        <time>2021-11-13T15:49:20.516Z</time>
      </trkpt>
      <trkpt lat="47.549285" lon="7.852784">
        <ele>332.549701</ele>
        <time>2021-11-13T15:49:31.828Z</time>
      </trkpt>
      <trkpt lat="47.549535" lon="7.852225">
        <ele>332.500960</ele>
        <time>2021-11-13T15:49:41.484Z</time>
      </trkpt>
      <trkpt lat="47.549652" lon="7.851969">
        <ele>332.404124</ele>
        <time>2021-11-13T15:49:45.996Z</time>
      </trkpt>
      <trkpt lat="47.550009" lon="7.851173">
        <ele>332.104785</ele>
        <time>2021-11-13T15:49:58.420Z</time>
      </trkpt>
      <trkpt lat="47.550333" lon="7.850434">
        <ele>331.828777</ele>
        <time>2021-11-13T15:50:08.651Z</time>
      </trkpt>
      <trkpt lat="47.550488" lon="7.850081">
        <ele>331.486166</ele>
        <time>2021-11-13T15:50:13.367Z</time>
      </trkpt>
      <trkpt lat="47.550810" lon="7.849346">
        <ele>330.613310</ele>
        <time>2021-11-13T15:50:23.113Z</time>
      </trkpt>
      <trkpt lat="47.550975" lon="7.849066">
        <ele>330.243050</ele>
        <time>2021-11-13T15:50:27.341Z</time>
      </trkpt>
      <trkpt lat="47.551242" lon="7.848702">
        <ele>329.707564</ele>
        <time>2021-11-13T15:50:31.585Z</time>
      </trkpt>
      <trkpt lat="47.551669" lon="7.848083">
        <ele>328.787159</ele>
        <time>2021-11-13T15:50:38.268Z</time>
      </trkpt>
      <trkpt lat="47.551196" lon="7.847517">
        <ele>327.778783</ele>
        <time>2021-11-13T15:50:44.971Z</time>
      </trkpt>
      <trkpt lat="47.551184" lon="7.847206">
        <ele>327.430085</ele>
        <time>2021-11-13T15:50:47.411Z</time>
      </trkpt>
      <trkpt lat="47.551195" lon="7.846939">
        <ele>327.130652</ele>
        <time>2021-11-13T15:50:49.370Z</time>
      </trkpt>
      <trkpt lat="47.551205" lon="7.846694">
        <ele>326.855901</ele>
        <time>2021-11-13T15:50:51.378Z</time>
      </trkpt>
      <trkpt lat="47.551222" lon="7.846443">
        <ele>326.573523</ele>
        <time>2021-11-13T15:50:53.249Z</time>
      </trkpt>
      <trkpt lat="47.551344" lon="7.844621">
        <ele>325.160958</ele>
        <time>2021-11-13T15:51:07.992Z</time>
      </trkpt>
      <trkpt lat="47.551367" lon="7.844247">
        <ele>324.904661</ele>
        <time>2021-11-13T15:51:10.931Z</time>
      </trkpt>
      <trkpt lat="47.551454" lon="7.842815">
        <ele>324.049601</ele>
        <time>2021-11-13T15:51:23.777Z</time>
      </trkpt>
      <trkpt lat="47.551668" lon="7.842770">
        <ele>323.897695</ele>
        <time>2021-11-13T15:51:27.944Z</time>
      </trkpt>
      <trkpt lat="47.551922" lon="7.842704">
        <ele>323.716460</ele>
        <time>2021-11-13T15:51:32.579Z</time>
      </trkpt>
      <trkpt lat="47.552380" lon="7.842592">
        <ele>323.390224</ele>
        <time>2021-11-13T15:51:41.044Z</time>
      </trkpt>
      <trkpt lat="47.552556" lon="7.842555">
        <ele>323.265293</ele>
        <time>2021-11-13T15:51:44.057Z</time>
      </trkpt>
      <trkpt lat="47.552833" lon="7.842495">
        <ele>323.063561</ele>
        <time>2021-11-13T15:51:49.044Z</time>
      </trkpt>
      <trkpt lat="47.553133" lon="7.842431">
        <ele>322.616276</ele>
        <time>2021-11-13T15:51:54.295Z</time>
      </trkpt>
      <trkpt lat="47.553123" lon="7.842222">
        <ele>322.407594</ele>
        <time>2021-11-13T15:51:55.876Z</time>
      </trkpt>
      <trkpt lat="47.553216" lon="7.841849">
        <ele>322.011554</ele>
        <time>2021-11-13T15:51:59.087Z</time>
      </trkpt>
      <trkpt lat="47.553231" lon="7.841529">
        <ele>321.692074</ele>
        <time>2021-11-13T15:52:01.579Z</time>
      </trkpt>
      <trkpt lat="47.552939" lon="7.839526">
        <ele>319.617106</ele>
        <time>2021-11-13T15:52:17.114Z</time>
      </trkpt>
      <trkpt lat="47.552802" lon="7.839009">
        <ele>319.039406</ele>
        <time>2021-11-13T15:52:21.436Z</time>
      </trkpt>
      <trkpt lat="47.552736" lon="7.838578">
        <ele>318.579723</ele>
        <time>2021-11-13T15:52:24.876Z</time>
      </trkpt>
      <trkpt lat="47.552697" lon="7.838068">
        <ele>318.045871</ele>
        <time>2021-11-13T15:52:28.891Z</time>
      </trkpt>
      <trkpt lat="47.552719" lon="7.836790">
        <ele>316.647321</ele>
        <time>2021-11-13T15:52:38.919Z</time>
      </trkpt>
      <trkpt lat="47.552714" lon="7.835010">
        <ele>314.651840</ele>
        <time>2021-11-13T15:52:52.668Z</time>
      </trkpt>
      <trkpt lat="47.552700" lon="7.833938">
        <ele>312.678386</ele>
        <time>2021-11-13T15:53:00.235Z</time>
      </trkpt>
      <trkpt lat="47.552696" lon="7.833789">
        <ele>312.403925</ele>
        <time>2021-11-13T15:53:01.233Z</time>
      </trkpt>
      <trkpt lat="47.552452" lon="7.833284">
        <ele>311.260804</ele>
        <time>2021-11-13T15:53:05.558Z</time>
      </trkpt>
      <trkpt lat="47.552467" lon="7.833198">
        <ele>311.097314</ele>
        <time>2021-11-13T15:53:06.170Z</time>
      </trkpt>
      <trkpt lat="47.552511" lon="7.833072">
        <ele>310.836198</ele>
        <time>2021-11-13T15:53:07.176Z</time>
      </trkpt>
      <trkpt lat="47.552556" lon="7.832977">
        <ele>310.622577</ele>
        <time>2021-11-13T15:53:07.992Z</time>
      </trkpt>
      <trkpt lat="47.552616" lon="7.832891">
        <ele>310.394916</ele>
        <time>2021-11-13T15:53:08.798Z</time>
      </trkpt>
      <trkpt lat="47.552690" lon="7.832598">
        <ele>309.819108</ele>
        <time>2021-11-13T15:53:10.999Z</time>
      </trkpt>
      <trkpt lat="47.552645" lon="7.830686">
        <ele>306.119496</ele>
        <time>2021-11-13T15:53:24.122Z</time>
      </trkpt>
      <trkpt lat="47.552554" lon="7.829266">
        <ele>303.887984</ele>
        <time>2021-11-13T15:53:34.408Z</time>
      </trkpt>
      <trkpt lat="47.552416" lon="7.828822">
        <ele>303.342800</ele>
        <time>2021-11-13T15:53:38.072Z</time>
      </trkpt>
      <trkpt lat="47.552404" lon="7.828582">
        <ele>303.074392</ele>
        <time>2021-11-13T15:53:39.987Z</time>
      </trkpt>
      <trkpt lat="47.552421" lon="7.828481">
        <ele>302.958296</ele>
        <time>2021-11-13T15:53:40.742Z</time>
      </trkpt>
      <trkpt lat="47.552477" lon="7.828294">
        <ele>302.730124</ele>
        <time>2021-11-13T15:53:42.318Z</time>
      </trkpt>
      <trkpt lat="47.552515" lon="7.828094">
        <ele>302.498392</ele>
        <time>2021-11-13T15:53:44.036Z</time>
      </trkpt>
      <trkpt lat="47.552491" lon="7.827227">
        <ele>301.592655</ele>
        <time>2021-11-13T15:53:50.944Z</time>
      </trkpt>
      <trkpt lat="47.552567" lon="7.824508">
        <ele>300.358775</ele>
        <time>2021-11-13T15:54:15.128Z</time>
      </trkpt>
      <trkpt lat="47.552839" lon="7.821354">
        <ele>298.833066</ele>
        <time>2021-11-13T15:54:42.586Z</time>
      </trkpt>
      <trkpt lat="47.552896" lon="7.820699">
        <ele>298.466152</ele>
        <time>2021-11-13T15:54:48.026Z</time>
      </trkpt>
      <trkpt lat="47.552948" lon="7.819358">
        <ele>297.721100</ele>
        <time>2021-11-13T15:54:59.259Z</time>
      </trkpt>
      <trkpt lat="47.552933" lon="7.818933">
        <ele>297.640199</ele>
        <time>2021-11-13T15:55:02.823Z</time>
      </trkpt>
      <trkpt lat="47.552916" lon="7.818465">
        <ele>297.551107</ele>
        <time>2021-11-13T15:55:06.871Z</time>
      </trkpt>
      <trkpt lat="47.552844" lon="7.816432">
        <ele>297.307458</ele>
        <time>2021-11-13T15:55:26.867Z</time>
      </trkpt>
      <trkpt lat="47.552711" lon="7.812955">
        <ele>298.598061</ele>
        <time>2021-11-13T15:56:07.718Z</time>
      </trkpt>
      <trkpt lat="47.552566" lon="7.810386">
        <ele>299.730175</ele>
        <time>2021-11-13T15:56:37.794Z</time>
      </trkpt>
      <trkpt lat="47.552501" lon="7.809803">
        <ele>299.999167</ele>
        <time>2021-11-13T15:56:44.828Z</time>
      </trkpt>
      <trkpt lat="47.552398" lon="7.808880">
        <ele>300.425042</ele>
        <time>2021-11-13T15:56:56.273Z</time>
      </trkpt>
      <trkpt lat="47.552068" lon="7.806445">
        <ele>300.933060</ele>
        <time>2021-11-13T15:57:24.571Z</time>
      </trkpt>
      <trkpt lat="47.552015" lon="7.806307">
        <ele>300.963166</ele>
        <time>2021-11-13T15:57:26.294Z</time>
      </trkpt>
      <trkpt lat="47.551895" lon="7.806278">
        <ele>300.984859</ele>
        <time>2021-11-13T15:57:27.603Z</time>
      </trkpt>
      <trkpt lat="47.551651" lon="7.806246">
        <ele>300.800191</ele>
        <time>2021-11-13T15:57:31.365Z</time>
      </trkpt>
      <trkpt lat="47.551671" lon="7.806117">
        <ele>300.732845</ele>
        <time>2021-11-13T15:57:32.679Z</time>
      </trkpt>
      <trkpt lat="47.551681" lon="7.805477">
        <ele>300.407115</ele>
        <time>2021-11-13T15:57:40.377Z</time>
      </trkpt>
      <trkpt lat="47.551709" lon="7.805000">
        <ele>300.163493</ele>
        <time>2021-11-13T15:57:46.016Z</time>
      </trkpt>
      <trkpt lat="47.551731" lon="7.804667">
        <ele>299.993247</ele>
        <time>2021-11-13T15:57:50.602Z</time>
      </trkpt>
      <trkpt lat="47.551744" lon="7.804473">
        <ele>299.894052</ele>
        <time>2021-11-13T15:57:52.597Z</time>
      </trkpt>
      <trkpt lat="47.551741" lon="7.804294">
        <ele>299.802945</ele>
        <time>2021-11-13T15:57:54.933Z</time>
      </trkpt>
      <trkpt lat="47.551692" lon="7.803510">
        <ele>299.399557</ele>
        <time>2021-11-13T15:58:04.062Z</time>
      </trkpt>
      <trkpt lat="47.551751" lon="7.803369">
        <ele>299.314153</ele>
        <time>2021-11-13T15:58:05.997Z</time>
      </trkpt>
      <trkpt lat="47.551744" lon="7.803277">
        <ele>299.266492</ele>
        <time>2021-11-13T15:58:06.793Z</time>
      </trkpt>
      <trkpt lat="47.551732" lon="7.803125">
        <ele>299.187709</ele>
        <time>2021-11-13T15:58:08.190Z</time>
      </trkpt>
      <trkpt lat="47.551700" lon="7.802648">
        <ele>298.940942</ele>
        <time>2021-11-13T15:58:12.536Z</time>
      </trkpt>
      <trkpt lat="47.551688" lon="7.802394">
        <ele>298.809863</ele>
        <time>2021-11-13T15:58:14.930Z</time>
      </trkpt>
      <trkpt lat="47.551679" lon="7.802228">
        <ele>298.724132</ele>
        <time>2021-11-13T15:58:16.424Z</time>
      </trkpt>
      <trkpt lat="47.551671" lon="7.802077">
        <ele>298.646159</ele>
        <time>2021-11-13T15:58:17.984Z</time>
      </trkpt>
      <trkpt lat="47.551669" lon="7.801853">
        <ele>298.530834</ele>
        <time>2021-11-13T15:58:19.966Z</time>
      </trkpt>
      <trkpt lat="47.551666" lon="7.801632">
        <ele>298.417041</ele>
        <time>2021-11-13T15:58:21.941Z</time>
      </trkpt>
      <trkpt lat="47.551669" lon="7.801438">
        <ele>298.317144</ele>
        <time>2021-11-13T15:58:23.443Z</time>
      </trkpt>
      <trkpt lat="47.551672" lon="7.801147">
        <ele>297.924446</ele>
        <time>2021-11-13T15:58:25.906Z</time>
      </trkpt>
      <trkpt lat="47.551704" lon="7.800451">
        <ele>296.681939</ele>
        <time>2021-11-13T15:58:31.331Z</time>
      </trkpt>
      <trkpt lat="47.551712" lon="7.800249">
        <ele>296.321541</ele>
        <time>2021-11-13T15:58:32.772Z</time>
      </trkpt>
      <trkpt lat="47.551754" lon="7.799766">
        <ele>295.454168</ele>
        <time>2021-11-13T15:58:36.114Z</time>
      </trkpt>
      <trkpt lat="47.551793" lon="7.799434">
        <ele>294.853960</ele>
        <time>2021-11-13T15:58:38.455Z</time>
      </trkpt>
      <trkpt lat="47.551805" lon="7.799326">
        <ele>294.659014</ele>
        <time>2021-11-13T15:58:39.156Z</time>
      </trkpt>
      <trkpt lat="47.551948" lon="7.798607">
        <ele>293.222889</ele>
        <time>2021-11-13T15:58:44.239Z</time>
      </trkpt>
      <trkpt lat="47.552084" lon="7.798083">
        <ele>291.706171</ele>
        <time>2021-11-13T15:58:47.858Z</time>
      </trkpt>
      <trkpt lat="47.552152" lon="7.797876">
        <ele>291.084211</ele>
        <time>2021-11-13T15:58:49.321Z</time>
      </trkpt>
      <trkpt lat="47.552493" lon="7.797048">
        <ele>288.463706</ele>
        <time>2021-11-13T15:58:55.548Z</time>
      </trkpt>
      <trkpt lat="47.552762" lon="7.796425">
        <ele>286.465645</ele>
        <time>2021-11-13T15:59:00.505Z</time>
      </trkpt>
      <trkpt lat="47.552817" lon="7.796239">
        <ele>286.135655</ele>
        <time>2021-11-13T15:59:01.908Z</time>
      </trkpt>
      <trkpt lat="47.552886" lon="7.795976">
        <ele>285.787121</ele>
        <time>2021-11-13T15:59:03.910Z</time>
      </trkpt>
      <trkpt lat="47.552906" lon="7.795800">
        <ele>285.566670</ele>
        <time>2021-11-13T15:59:05.242Z</time>
      </trkpt>
      <trkpt lat="47.552930" lon="7.795600">
        <ele>285.315759</ele>
        <time>2021-11-13T15:59:06.807Z</time>
      </trkpt>
      <trkpt lat="47.552917" lon="7.795354">
        <ele>285.010975</ele>
        <time>2021-11-13T15:59:08.704Z</time>
      </trkpt>
      <trkpt lat="47.552909" lon="7.795229">
        <ele>284.855885</ele>
        <time>2021-11-13T15:59:09.683Z</time>
      </trkpt>
      <trkpt lat="47.552892" lon="7.795106">
        <ele>284.700805</ele>
        <time>2021-11-13T15:59:10.629Z</time>
      </trkpt>
      <trkpt lat="47.552861" lon="7.794992">
        <ele>284.548994</ele>
        <time>2021-11-13T15:59:11.504Z</time>
      </trkpt>
      <trkpt lat="47.552837" lon="7.794925">
        <ele>284.455303</ele>
        <time>2021-11-13T15:59:12.081Z</time>
      </trkpt>
      <trkpt lat="47.552826" lon="7.794894">
        <ele>284.412043</ele>
        <time>2021-11-13T15:59:12.345Z</time>
      </trkpt>
      <trkpt lat="47.552786" lon="7.794796">
        <ele>284.270580</ele>
        <time>2021-11-13T15:59:13.182Z</time>
      </trkpt>
      <trkpt lat="47.552763" lon="7.794750">
        <ele>284.199868</ele>
        <time>2021-11-13T15:59:13.705Z</time>
      </trkpt>
      <trkpt lat="47.552644" lon="7.794507">
        <ele>283.829030</ele>
        <time>2021-11-13T15:59:15.980Z</time>
      </trkpt>
      <trkpt lat="47.552532" lon="7.794285">
        <ele>283.486674</ele>
        <time>2021-11-13T15:59:18.148Z</time>
      </trkpt>
      <trkpt lat="47.552494" lon="7.794200">
        <ele>283.360739</ele>
        <time>2021-11-13T15:59:19.004Z</time>
      </trkpt>
      <trkpt lat="47.552384" lon="7.793915">
        <ele>283.006468</ele>
        <time>2021-11-13T15:59:21.696Z</time>
      </trkpt>
      <trkpt lat="47.552369" lon="7.793872">
        <ele>282.988766</ele>
        <time>2021-11-13T15:59:22.335Z</time>
      </trkpt>
      <trkpt lat="47.552292" lon="7.793607">
        <ele>282.883249</ele>
        <time>2021-11-13T15:59:24.743Z</time>
      </trkpt>
      <trkpt lat="47.552233" lon="7.793294">
        <ele>282.764398</ele>
        <time>2021-11-13T15:59:28.158Z</time>
      </trkpt>
      <trkpt lat="47.552216" lon="7.793160">
        <ele>282.714533</ele>
        <time>2021-11-13T15:59:29.414Z</time>
      </trkpt>
      <trkpt lat="47.552216" lon="7.793160">
        <ele>282.714533</ele>
        <time>2021-11-13T15:59:29.418Z</time>
      </trkpt>
      <trkpt lat="47.552198" lon="7.792976">
        <ele>282.646537</ele>
        <time>2021-11-13T15:59:31.151Z</time>
      </trkpt>
      <trkpt lat="47.552184" lon="7.792540">
        <ele>282.486901</ele>
        <time>2021-11-13T15:59:35.559Z</time>
      </trkpt>
      <trkpt lat="47.552180" lon="7.792294">
        <ele>282.396908</ele>
        <time>2021-11-13T15:59:38.078Z</time>
      </trkpt>
      <trkpt lat="47.552182" lon="7.792040">
        <ele>282.304008</ele>
        <time>2021-11-13T15:59:40.244Z</time>
      </trkpt>
      <trkpt lat="47.552201" lon="7.791031">
        <ele>281.868962</ele>
        <time>2021-11-13T15:59:48.805Z</time>
      </trkpt>
      <trkpt lat="47.552135" lon="7.790302">
        <ele>281.450437</ele>
        <time>2021-11-13T15:59:55.161Z</time>
      </trkpt>
      <trkpt lat="47.552036" lon="7.789826">
        <ele>281.167018</ele>
        <time>2021-11-13T15:59:59.491Z</time>
      </trkpt>
      <trkpt lat="47.551858" lon="7.788906">
        <ele>280.622440</ele>
        <time>2021-11-13T16:00:07.423Z</time>
      </trkpt>
      <trkpt lat="47.551712" lon="7.788013">
        <ele>279.932888</ele>
        <time>2021-11-13T16:00:14.859Z</time>
      </trkpt>
      <trkpt lat="47.551694" lon="7.787879">
        <ele>279.825508</ele>
        <time>2021-11-13T16:00:15.973Z</time>
      </trkpt>
      <trkpt lat="47.551690" lon="7.787827">
        <ele>279.784375</ele>
        <time>2021-11-13T16:00:16.400Z</time>
      </trkpt>
      <trkpt lat="47.551672" lon="7.787603">
        <ele>279.607085</ele>
        <time>2021-11-13T16:00:18.154Z</time>
      </trkpt>
      <trkpt lat="47.551627" lon="7.786951">
        <ele>279.091988</ele>
        <time>2021-11-13T16:00:23.418Z</time>
      </trkpt>
      <trkpt lat="47.551498" lon="7.785081">
        <ele>277.890236</ele>
        <time>2021-11-13T16:00:38.589Z</time>
      </trkpt>
      <trkpt lat="47.551479" lon="7.784929">
        <ele>277.809187</ele>
        <time>2021-11-13T16:00:39.845Z</time>
      </trkpt>
      <trkpt lat="47.551510" lon="7.784910">
        <ele>277.783126</ele>
        <time>2021-11-13T16:00:40.317Z</time>
      </trkpt>
      <trkpt lat="47.551531" lon="7.784884">
        <ele>277.761867</ele>
        <time>2021-11-13T16:00:40.669Z</time>
      </trkpt>
      <trkpt lat="47.551548" lon="7.784841">
        <ele>277.735738</ele>
        <time>2021-11-13T16:00:41.145Z</time>
      </trkpt>
      <trkpt lat="47.551554" lon="7.784788">
        <ele>277.707562</ele>
        <time>2021-11-13T16:00:41.626Z</time>
      </trkpt>
      <trkpt lat="47.551547" lon="7.784737">
        <ele>277.680275</ele>
        <time>2021-11-13T16:00:42.085Z</time>
      </trkpt>
      <trkpt lat="47.551525" lon="7.784691">
        <ele>277.650716</ele>
        <time>2021-11-13T16:00:42.605Z</time>
      </trkpt>
      <trkpt lat="47.551500" lon="7.784666">
        <ele>277.627286</ele>
        <time>2021-11-13T16:00:42.992Z</time>
      </trkpt>
      <trkpt lat="47.551472" lon="7.784654">
        <ele>277.604643</ele>
        <time>2021-11-13T16:00:43.366Z</time>
      </trkpt>
      <trkpt lat="47.551437" lon="7.784657">
        <ele>277.577408</ele>
        <time>2021-11-13T16:00:43.799Z</time>
      </trkpt>
      <trkpt lat="47.551439" lon="7.784323">
        <ele>277.402284</ele>
        <time>2021-11-13T16:00:46.778Z</time>
      </trkpt>
      <trkpt lat="47.551372" lon="7.783522">
        <ele>277.029464</ele>
        <time>2021-11-13T16:00:53.987Z</time>
      </trkpt>
      <trkpt lat="47.551302" lon="7.782671">
        <ele>276.922010</ele>
        <time>2021-11-13T16:01:02.560Z</time>
      </trkpt>
      <trkpt lat="47.551230" lon="7.781831">
        <ele>276.815879</ele>
        <time>2021-11-13T16:01:10.742Z</time>
      </trkpt>
      <trkpt lat="47.551198" lon="7.781475">
        <ele>276.770864</ele>
        <time>2021-11-13T16:01:14.246Z</time>
      </trkpt>
      <trkpt lat="47.551270" lon="7.781390">
        <ele>276.753767</ele>
        <time>2021-11-13T16:01:16.019Z</time>
      </trkpt>
      <trkpt lat="47.551208" lon="7.780694">
        <ele>276.614491</ele>
        <time>2021-11-13T16:01:22.746Z</time>
      </trkpt>
      <trkpt lat="47.551085" lon="7.779125">
        <ele>276.193306</ele>
        <time>2021-11-13T16:01:37.225Z</time>
      </trkpt>
      <trkpt lat="47.550982" lon="7.777915">
        <ele>275.958443</ele>
        <time>2021-11-13T16:01:47.787Z</time>
      </trkpt>
      <trkpt lat="47.550963" lon="7.777797">
        <ele>275.948140</ele>
        <time>2021-11-13T16:01:48.800Z</time>
      </trkpt>
      <trkpt lat="47.550782" lon="7.776690">
        <ele>275.851404</ele>
        <time>2021-11-13T16:01:59.574Z</time>
      </trkpt>
      <trkpt lat="47.550607" lon="7.775871">
        <ele>275.778444</ele>
        <time>2021-11-13T16:02:08.907Z</time>
      </trkpt>
      <trkpt lat="47.550598" lon="7.775828">
        <ele>275.774620</ele>
        <time>2021-11-13T16:02:09.393Z</time>
      </trkpt>
      <trkpt lat="47.550505" lon="7.775364">
        <ele>275.939661</ele>
        <time>2021-11-13T16:02:14.907Z</time>
      </trkpt>
      <trkpt lat="47.550320" lon="7.774602">
        <ele>276.218197</ele>
        <time>2021-11-13T16:02:24.396Z</time>
      </trkpt>
      <trkpt lat="47.550090" lon="7.773646">
        <ele>276.567288</ele>
        <time>2021-11-13T16:02:36.270Z</time>
      </trkpt>
      <trkpt lat="47.550061" lon="7.773283">
        <ele>276.692494</ele>
        <time>2021-11-13T16:02:40.408Z</time>
      </trkpt>
      <trkpt lat="47.550203" lon="7.772543">
        <ele>276.890375</ele>
        <time>2021-11-13T16:02:48.617Z</time>
      </trkpt>
      <trkpt lat="47.550199" lon="7.772076">
        <ele>277.010503</ele>
        <time>2021-11-13T16:02:53.606Z</time>
      </trkpt>
      <trkpt lat="47.550069" lon="7.771373">
        <ele>277.197987</ele>
        <time>2021-11-13T16:03:01.420Z</time>
      </trkpt>
      <trkpt lat="47.549845" lon="7.770734">
        <ele>277.394308</ele>
        <time>2021-11-13T16:03:09.576Z</time>
      </trkpt>
      <trkpt lat="47.549714" lon="7.770276">
        <ele>277.731131</ele>
        <time>2021-11-13T16:03:15.348Z</time>
      </trkpt>
      <trkpt lat="47.549678" lon="7.770148">
        <ele>277.825027</ele>
        <time>2021-11-13T16:03:17.139Z</time>
      </trkpt>
      <trkpt lat="47.549363" lon="7.768846">
        <ele>278.761578</ele>
        <time>2021-11-13T16:03:34.321Z</time>
      </trkpt>
      <trkpt lat="47.549184" lon="7.768021">
        <ele>279.288430</ele>
        <time>2021-11-13T16:03:46.763Z</time>
      </trkpt>
      <trkpt lat="47.548990" lon="7.767248">
        <ele>279.647081</ele>
        <time>2021-11-13T16:03:58.437Z</time>
      </trkpt>
      <trkpt lat="47.548565" lon="7.765680">
        <ele>280.261314</ele>
        <time>2021-11-13T16:04:17.247Z</time>
      </trkpt>
      <trkpt lat="47.547909" lon="7.763208">
        <ele>278.096017</ele>
        <time>2021-11-13T16:04:38.120Z</time>
      </trkpt>
      <trkpt lat="47.547848" lon="7.762928">
        <ele>277.795865</ele>
        <time>2021-11-13T16:04:40.264Z</time>
      </trkpt>
      <trkpt lat="47.547778" lon="7.762713">
        <ele>277.552350</ele>
        <time>2021-11-13T16:04:42.079Z</time>
      </trkpt>
      <trkpt lat="47.547577" lon="7.762307">
        <ele>277.038702</ele>
        <time>2021-11-13T16:04:45.849Z</time>
      </trkpt>
      <trkpt lat="47.547194" lon="7.761352">
        <ele>275.905456</ele>
        <time>2021-11-13T16:04:54.357Z</time>
      </trkpt>
      <trkpt lat="47.546989" lon="7.760612">
        <ele>275.586984</ele>
        <time>2021-11-13T16:05:00.829Z</time>
      </trkpt>
      <trkpt lat="47.546948" lon="7.760482">
        <ele>275.633104</ele>
        <time>2021-11-13T16:05:02.077Z</time>
      </trkpt>
      <trkpt lat="47.546870" lon="7.760301">
        <ele>275.702125</ele>
        <time>2021-11-13T16:05:03.978Z</time>
      </trkpt>
      <trkpt lat="47.546804" lon="7.760164">
        <ele>275.756223</ele>
        <time>2021-11-13T16:05:05.430Z</time>
      </trkpt>
      <trkpt lat="47.546552" lon="7.759727">
        <ele>275.940960</ele>
        <time>2021-11-13T16:05:11.415Z</time>
      </trkpt>
      <trkpt lat="47.546312" lon="7.759326">
        <ele>276.113216</ele>
        <time>2021-11-13T16:05:17.778Z</time>
      </trkpt>
      <trkpt lat="47.546264" lon="7.759224">
        <ele>276.153182</ele>
        <time>2021-11-13T16:05:19.413Z</time>
      </trkpt>
      <trkpt lat="47.545911" lon="7.758393">
        <ele>277.346922</ele>
        <time>2021-11-13T16:05:35.813Z</time>
      </trkpt>
      <trkpt lat="47.545677" lon="7.757815">
        <ele>278.879908</ele>
        <time>2021-11-13T16:05:48.412Z</time>
      </trkpt>
      <trkpt lat="47.545429" lon="7.757231">
        <ele>280.449222</ele>
        <time>2021-11-13T16:06:02.154Z</time>
      </trkpt>
      <trkpt lat="47.545360" lon="7.757065">
        <ele>280.892637</ele>
        <time>2021-11-13T16:06:06.935Z</time>
      </trkpt>
      <trkpt lat="47.545326" lon="7.756949">
        <ele>281.180281</ele>
        <time>2021-11-13T16:06:09.773Z</time>
      </trkpt>
      <trkpt lat="47.545304" lon="7.756852">
        <ele>281.413030</ele>
        <time>2021-11-13T16:06:11.995Z</time>
      </trkpt>
      <trkpt lat="47.545260" lon="7.756637">
        <ele>281.924033</ele>
        <time>2021-11-13T16:06:17.102Z</time>
      </trkpt>
      <trkpt lat="47.545021" lon="7.756243">
        <ele>282.988304</ele>
        <time>2021-11-13T16:06:28.330Z</time>
      </trkpt>
      <trkpt lat="47.544784" lon="7.755641">
        <ele>284.273876</ele>
        <time>2021-11-13T16:06:42.066Z</time>
      </trkpt>
      <trkpt lat="47.544022" lon="7.753705">
        <ele>287.772650</ele>
        <time>2021-11-13T16:07:16.731Z</time>
      </trkpt>
      <trkpt lat="47.543798" lon="7.753068">
        <ele>288.337621</ele>
        <time>2021-11-13T16:07:26.002Z</time>
      </trkpt>
      <trkpt lat="47.543319" lon="7.751355">
        <ele>289.543417</ele>
        <time>2021-11-13T16:07:48.624Z</time>
      </trkpt>
      <trkpt lat="47.543222" lon="7.751091">
        <ele>289.630431</ele>
        <time>2021-11-13T16:07:51.908Z</time>
      </trkpt>
      <trkpt lat="47.543115" lon="7.750826">
        <ele>289.719823</ele>
        <time>2021-11-13T16:07:56.642Z</time>
      </trkpt>
      <trkpt lat="47.543033" lon="7.750614">
        <ele>289.790557</ele>
        <time>2021-11-13T16:07:59.244Z</time>
      </trkpt>
      <trkpt lat="47.542892" lon="7.750326">
        <ele>289.893551</ele>
        <time>2021-11-13T16:08:03.280Z</time>
      </trkpt>
      <trkpt lat="47.542614" lon="7.749755">
        <ele>290.097361</ele>
        <time>2021-11-13T16:08:10.784Z</time>
      </trkpt>
      <trkpt lat="47.542390" lon="7.749307">
        <ele>290.171082</ele>
        <time>2021-11-13T16:08:16.594Z</time>
      </trkpt>
      <trkpt lat="47.542347" lon="7.749227">
        <ele>290.172204</ele>
        <time>2021-11-13T16:08:18.129Z</time>
      </trkpt>
      <trkpt lat="47.542132" lon="7.748742">
        <ele>290.178569</ele>
        <time>2021-11-13T16:08:25.691Z</time>
      </trkpt>
      <trkpt lat="47.541758" lon="7.747784">
        <ele>290.190710</ele>
        <time>2021-11-13T16:08:40.467Z</time>
      </trkpt>
      <trkpt lat="47.541583" lon="7.747186">
        <ele>290.199752</ele>
        <time>2021-11-13T16:08:49.645Z</time>
      </trkpt>
      <trkpt lat="47.541511" lon="7.746885">
        <ele>290.209878</ele>
        <time>2021-11-13T16:08:54.116Z</time>
      </trkpt>
      <trkpt lat="47.541432" lon="7.746552">
        <ele>290.221071</ele>
        <time>2021-11-13T16:08:59.227Z</time>
      </trkpt>
      <trkpt lat="47.541167" lon="7.745463">
        <ele>290.257778</ele>
        <time>2021-11-13T16:09:15.065Z</time>
      </trkpt>
      <trkpt lat="47.541160" lon="7.745250">
        <ele>290.264541</ele>
        <time>2021-11-13T16:09:17.938Z</time>
      </trkpt>
      <trkpt lat="47.541148" lon="7.745144">
        <ele>290.267949</ele>
        <time>2021-11-13T16:09:19.479Z</time>
      </trkpt>
      <trkpt lat="47.541130" lon="7.745083">
        <ele>290.270060</ele>
        <time>2021-11-13T16:09:20.361Z</time>
      </trkpt>
      <trkpt lat="47.541038" lon="7.744940">
        <ele>290.276324</ele>
        <time>2021-11-13T16:09:22.751Z</time>
      </trkpt>
      <trkpt lat="47.541019" lon="7.744859">
        <ele>290.279043</ele>
        <time>2021-11-13T16:09:23.997Z</time>
      </trkpt>
      <trkpt lat="47.540913" lon="7.744421">
        <ele>290.270631</ele>
        <time>2021-11-13T16:09:30.540Z</time>
      </trkpt>
      <trkpt lat="47.540745" lon="7.743675">
        <ele>290.249165</ele>
        <time>2021-11-13T16:09:41.838Z</time>
      </trkpt>
      <trkpt lat="47.540738" lon="7.743641">
        <ele>290.248195</ele>
        <time>2021-11-13T16:09:42.325Z</time>
      </trkpt>
      <trkpt lat="47.540617" lon="7.742875">
        <ele>290.226721</ele>
        <time>2021-11-13T16:09:53.293Z</time>
      </trkpt>
      <trkpt lat="47.540589" lon="7.742558">
        <ele>290.217995</ele>
        <time>2021-11-13T16:09:57.648Z</time>
      </trkpt>
      <trkpt lat="47.540552" lon="7.742240">
        <ele>290.209186</ele>
        <time>2021-11-13T16:10:01.938Z</time>
      </trkpt>
      <trkpt lat="47.540438" lon="7.740453">
        <ele>289.152513</ele>
        <time>2021-11-13T16:10:23.512Z</time>
      </trkpt>
      <trkpt lat="47.540374" lon="7.739620">
        <ele>288.653467</ele>
        <time>2021-11-13T16:10:32.928Z</time>
      </trkpt>
      <trkpt lat="47.540372" lon="7.739490">
        <ele>288.570499</ele>
        <time>2021-11-13T16:10:34.443Z</time>
      </trkpt>
      <trkpt lat="47.540387" lon="7.739372">
        <ele>288.490485</ele>
        <time>2021-11-13T16:10:35.974Z</time>
      </trkpt>
      <trkpt lat="47.540394" lon="7.739259">
        <ele>288.414869</ele>
        <time>2021-11-13T16:10:37.336Z</time>
      </trkpt>
      <trkpt lat="47.540388" lon="7.739213">
        <ele>288.383649</ele>
        <time>2021-11-13T16:10:37.730Z</time>
      </trkpt>
      <trkpt lat="47.540348" lon="7.738982">
        <ele>288.224733</ele>
        <time>2021-11-13T16:10:40.561Z</time>
      </trkpt>
      <trkpt lat="47.540032" lon="7.737141">
        <ele>286.958902</ele>
        <time>2021-11-13T16:11:02.264Z</time>
      </trkpt>
      <trkpt lat="47.539305" lon="7.734151">
        <ele>287.620530</ele>
        <time>2021-11-13T16:11:49.475Z</time>
      </trkpt>
      <trkpt lat="47.539263" lon="7.733885">
        <ele>287.768378</ele>
        <time>2021-11-13T16:11:53.876Z</time>
      </trkpt>
      <trkpt lat="47.539178" lon="7.733656">
        <ele>287.909814</ele>
        <time>2021-11-13T16:11:58.026Z</time>
      </trkpt>
      <trkpt lat="47.538887" lon="7.732454">
        <ele>288.600922</ele>
        <time>2021-11-13T16:12:18.714Z</time>
      </trkpt>
      <trkpt lat="47.538512" lon="7.730958">
        <ele>289.170577</ele>
        <time>2021-11-13T16:12:44.217Z</time>
      </trkpt>
      <trkpt lat="47.538339" lon="7.730082">
        <ele>289.418123</ele>
        <time>2021-11-13T16:12:57.593Z</time>
      </trkpt>
      <trkpt lat="47.538275" lon="7.729744">
        <ele>289.513334</ele>
        <time>2021-11-13T16:13:02.458Z</time>
      </trkpt>
      <trkpt lat="47.538248" lon="7.729713">
        <ele>289.527058</ele>
        <time>2021-11-13T16:13:03.073Z</time>
      </trkpt>
      <trkpt lat="47.538168" lon="7.729263">
        <ele>289.406146</ele>
        <time>2021-11-13T16:13:09.156Z</time>
      </trkpt>
      <trkpt lat="47.538148" lon="7.729131">
        <ele>289.279268</ele>
        <time>2021-11-13T16:13:10.825Z</time>
      </trkpt>
      <trkpt lat="47.538123" lon="7.729100">
        <ele>289.233974</ele>
        <time>2021-11-13T16:13:11.419Z</time>
      </trkpt>
      <trkpt lat="47.538083" lon="7.728919">
        <ele>289.055356</ele>
        <time>2021-11-13T16:13:13.750Z</time>
      </trkpt>
      <trkpt lat="47.538034" lon="7.728596">
        <ele>288.744870</ele>
        <time>2021-11-13T16:13:17.775Z</time>
      </trkpt>
      <trkpt lat="47.537932" lon="7.727936">
        <ele>288.109863</ele>
        <time>2021-11-13T16:13:25.564Z</time>
      </trkpt>
      <trkpt lat="47.537861" lon="7.727909">
        <ele>288.008029</ele>
        <time>2021-11-13T16:13:26.751Z</time>
      </trkpt>
      <trkpt lat="47.537824" lon="7.727674">
        <ele>287.781714</ele>
        <time>2021-11-13T16:13:28.604Z</time>
      </trkpt>
      <trkpt lat="47.537675" lon="7.726458">
        <ele>285.866099</ele>
        <time>2021-11-13T16:13:37.546Z</time>
      </trkpt>
      <trkpt lat="47.537323" lon="7.724748">
        <ele>281.527316</ele>
        <time>2021-11-13T16:13:49.288Z</time>
      </trkpt>
      <trkpt lat="47.537127" lon="7.723974">
        <ele>279.738403</ele>
        <time>2021-11-13T16:13:54.725Z</time>
      </trkpt>
      <trkpt lat="47.537106" lon="7.723875">
        <ele>279.535782</ele>
        <time>2021-11-13T16:13:55.408Z</time>
      </trkpt>
      <trkpt lat="47.537075" lon="7.723694">
        <ele>279.171173</ele>
        <time>2021-11-13T16:13:56.637Z</time>
      </trkpt>
      <trkpt lat="47.536854" lon="7.722329">
        <ele>276.430349</ele>
        <time>2021-11-13T16:14:06.551Z</time>
      </trkpt>
      <trkpt lat="47.536667" lon="7.721718">
        <ele>275.151772</ele>
        <time>2021-11-13T16:14:11.674Z</time>
      </trkpt>
      <trkpt lat="47.536590" lon="7.721558">
        <ele>274.806795</ele>
        <time>2021-11-13T16:14:13.190Z</time>
      </trkpt>
      <trkpt lat="47.536471" lon="7.721389">
        <ele>274.378064</ele>
        <time>2021-11-13T16:14:15.119Z</time>
      </trkpt>
      <trkpt lat="47.536092" lon="7.720862">
        <ele>273.026195</ele>
        <time>2021-11-13T16:14:20.506Z</time>
      </trkpt>
      <trkpt lat="47.535988" lon="7.720671">
        <ele>272.595379</ele>
        <time>2021-11-13T16:14:22.128Z</time>
      </trkpt>
      <trkpt lat="47.535897" lon="7.720461">
        <ele>272.157263</ele>
        <time>2021-11-13T16:14:23.881Z</time>
      </trkpt>
      <trkpt lat="47.535876" lon="7.720409">
        <ele>272.050878</ele>
        <time>2021-11-13T16:14:24.298Z</time>
      </trkpt>
      <trkpt lat="47.535806" lon="7.720212">
        <ele>271.660020</ele>
        <time>2021-11-13T16:14:25.785Z</time>
      </trkpt>
      <trkpt lat="47.535746" lon="7.719899">
        <ele>271.088755</ele>
        <time>2021-11-13T16:14:28.150Z</time>
      </trkpt>
      <trkpt lat="47.535713" lon="7.719682">
        <ele>270.717383</ele>
        <time>2021-11-13T16:14:29.651Z</time>
      </trkpt>
      <trkpt lat="47.535661" lon="7.719317">
        <ele>270.289503</ele>
        <time>2021-11-13T16:14:32.441Z</time>
      </trkpt>
      <trkpt lat="47.535650" lon="7.719240">
        <ele>270.199227</ele>
        <time>2021-11-13T16:14:32.937Z</time>
      </trkpt>
      <trkpt lat="47.535608" lon="7.718948">
        <ele>269.856781</ele>
        <time>2021-11-13T16:14:35.313Z</time>
      </trkpt>
      <trkpt lat="47.535572" lon="7.718705">
        <ele>269.571424</ele>
        <time>2021-11-13T16:14:36.968Z</time>
      </trkpt>
      <trkpt lat="47.535558" lon="7.718578">
        <ele>269.423824</ele>
        <time>2021-11-13T16:14:38.165Z</time>
      </trkpt>
      <trkpt lat="47.535516" lon="7.718273">
        <ele>269.066780</ele>
        <time>2021-11-13T16:14:40.443Z</time>
      </trkpt>
      <trkpt lat="47.535494" lon="7.718111">
        <ele>268.877241</ele>
        <time>2021-11-13T16:14:41.558Z</time>
      </trkpt>
      <trkpt lat="47.535490" lon="7.718086">
        <ele>268.847771</ele>
        <time>2021-11-13T16:14:42.122Z</time>
      </trkpt>
      <trkpt lat="47.535419" lon="7.717562">
        <ele>268.234747</ele>
        <time>2021-11-13T16:14:46.143Z</time>
      </trkpt>
      <trkpt lat="47.535384" lon="7.717243">
        <ele>267.864046</ele>
        <time>2021-11-13T16:14:48.884Z</time>
      </trkpt>
      <trkpt lat="47.535370" lon="7.716931">
        <ele>267.843258</ele>
        <time>2021-11-13T16:14:52.042Z</time>
      </trkpt>
      <trkpt lat="47.535347" lon="7.716584">
        <ele>268.145995</ele>
        <time>2021-11-13T16:14:55.780Z</time>
      </trkpt>
      <trkpt lat="47.535313" lon="7.716133">
        <ele>268.540018</ele>
        <time>2021-11-13T16:15:02.930Z</time>
      </trkpt>
      <trkpt lat="47.535254" lon="7.715336">
        <ele>269.236176</ele>
        <time>2021-11-13T16:15:15.479Z</time>
      </trkpt>
      <trkpt lat="47.535269" lon="7.714924">
        <ele>269.594423</ele>
        <time>2021-11-13T16:15:21.611Z</time>
      </trkpt>
      <trkpt lat="47.535269" lon="7.714705">
        <ele>269.784574</ele>
        <time>2021-11-13T16:15:24.871Z</time>
      </trkpt>
      <trkpt lat="47.535269" lon="7.714432">
        <ele>270.019369</ele>
        <time>2021-11-13T16:15:28.521Z</time>
      </trkpt>
      <trkpt lat="47.535222" lon="7.713738">
        <ele>270.498587</ele>
        <time>2021-11-13T16:15:38.029Z</time>
      </trkpt>
      <trkpt lat="47.535202" lon="7.713540">
        <ele>270.636140</ele>
        <time>2021-11-13T16:15:40.719Z</time>
      </trkpt>
      <trkpt lat="47.535174" lon="7.713262">
        <ele>270.829259</ele>
        <time>2021-11-13T16:15:44.177Z</time>
      </trkpt>
      <trkpt lat="47.535128" lon="7.712889">
        <ele>271.089777</ele>
        <time>2021-11-13T16:15:48.971Z</time>
      </trkpt>
      <trkpt lat="47.535110" lon="7.712748">
        <ele>271.188370</ele>
        <time>2021-11-13T16:15:50.713Z</time>
      </trkpt>
      <trkpt lat="47.535067" lon="7.712436">
        <ele>271.407157</ele>
        <time>2021-11-13T16:15:54.747Z</time>
      </trkpt>
      <trkpt lat="47.535045" lon="7.712277">
        <ele>271.518672</ele>
        <time>2021-11-13T16:15:56.614Z</time>
      </trkpt>
      <trkpt lat="47.534965" lon="7.711682">
        <ele>271.872814</ele>
        <time>2021-11-13T16:16:03.816Z</time>
      </trkpt>
      <trkpt lat="47.534909" lon="7.711265">
        <ele>271.970548</ele>
        <time>2021-11-13T16:16:08.844Z</time>
      </trkpt>
      <trkpt lat="47.534768" lon="7.710504">
        <ele>272.151949</ele>
        <time>2021-11-13T16:16:17.943Z</time>
      </trkpt>
      <trkpt lat="47.534734" lon="7.710344">
        <ele>272.190508</ele>
        <time>2021-11-13T16:16:19.822Z</time>
      </trkpt>
      <trkpt lat="47.534641" lon="7.709912">
        <ele>272.294739</ele>
        <time>2021-11-13T16:16:24.661Z</time>
      </trkpt>
      <trkpt lat="47.534615" lon="7.709805">
        <ele>272.320880</ele>
        <time>2021-11-13T16:16:25.853Z</time>
      </trkpt>
      <trkpt lat="47.534577" lon="7.709613">
        <ele>272.366873</ele>
        <time>2021-11-13T16:16:27.931Z</time>
      </trkpt>
      <trkpt lat="47.534509" lon="7.709297">
        <ele>272.443114</ele>
        <time>2021-11-13T16:16:31.094Z</time>
      </trkpt>
      <trkpt lat="47.534390" lon="7.708741">
        <ele>272.317166</ele>
        <time>2021-11-13T16:16:36.491Z</time>
      </trkpt>
      <trkpt lat="47.534357" lon="7.708594">
        <ele>272.277797</ele>
        <time>2021-11-13T16:16:37.882Z</time>
      </trkpt>
      <trkpt lat="47.534132" lon="7.707553">
        <ele>272.000017</ele>
        <time>2021-11-13T16:16:47.719Z</time>
      </trkpt>
      <trkpt lat="47.534017" lon="7.707047">
        <ele>271.864334</ele>
        <time>2021-11-13T16:16:52.768Z</time>
      </trkpt>
      <trkpt lat="47.533747" lon="7.705801">
        <ele>271.474358</ele>
        <time>2021-11-13T16:17:04.486Z</time>
      </trkpt>
      <trkpt lat="47.533715" lon="7.705652">
        <ele>271.425306</ele>
        <time>2021-11-13T16:17:05.867Z</time>
      </trkpt>
      <trkpt lat="47.533704" lon="7.705593">
        <ele>271.406104</ele>
        <time>2021-11-13T16:17:06.411Z</time>
      </trkpt>
      <trkpt lat="47.533675" lon="7.705460">
        <ele>271.362258</ele>
        <time>2021-11-13T16:17:07.686Z</time>
      </trkpt>
      <trkpt lat="47.533527" lon="7.704796">
        <ele>271.142891</ele>
        <time>2021-11-13T16:17:13.843Z</time>
      </trkpt>
      <trkpt lat="47.533498" lon="7.704666">
        <ele>271.099939</ele>
        <time>2021-11-13T16:17:15.065Z</time>
      </trkpt>
      <trkpt lat="47.533301" lon="7.703780">
        <ele>270.822754</ele>
        <time>2021-11-13T16:17:23.631Z</time>
      </trkpt>
      <trkpt lat="47.532835" lon="7.701725">
        <ele>270.221328</ele>
        <time>2021-11-13T16:17:43.387Z</time>
      </trkpt>
      <trkpt lat="47.532793" lon="7.701522">
        <ele>270.150552</ele>
        <time>2021-11-13T16:17:45.265Z</time>
      </trkpt>
      <trkpt lat="47.532428" lon="7.699970">
        <ele>269.557209</ele>
        <time>2021-11-13T16:18:00.234Z</time>
      </trkpt>
      <trkpt lat="47.532407" lon="7.699875">
        <ele>269.521119</ele>
        <time>2021-11-13T16:18:01.127Z</time>
      </trkpt>
      <trkpt lat="47.532378" lon="7.699751">
        <ele>269.473741</ele>
        <time>2021-11-13T16:18:02.287Z</time>
      </trkpt>
      <trkpt lat="47.532326" lon="7.699504">
        <ele>269.380331</ele>
        <time>2021-11-13T16:18:04.649Z</time>
      </trkpt>
      <trkpt lat="47.532317" lon="7.699464">
        <ele>269.365109</ele>
        <time>2021-11-13T16:18:05.002Z</time>
      </trkpt>
      <trkpt lat="47.532234" lon="7.699115">
        <ele>269.218511</ele>
        <time>2021-11-13T16:18:08.197Z</time>
      </trkpt>
      <trkpt lat="47.532082" lon="7.698472">
        <ele>268.596853</ele>
        <time>2021-11-13T16:18:13.821Z</time>
      </trkpt>
      <trkpt lat="47.531987" lon="7.698056">
        <ele>268.196128</ele>
        <time>2021-11-13T16:18:17.330Z</time>
      </trkpt>
      <trkpt lat="47.531820" lon="7.697324">
        <ele>267.491075</ele>
        <time>2021-11-13T16:18:23.304Z</time>
      </trkpt>
      <trkpt lat="47.531503" lon="7.695640">
        <ele>266.180467</ele>
        <time>2021-11-13T16:18:36.550Z</time>
      </trkpt>
      <trkpt lat="47.531279" lon="7.693388">
        <ele>265.428486</ele>
        <time>2021-11-13T16:18:56.783Z</time>
      </trkpt>
      <trkpt lat="47.531252" lon="7.693049">
        <ele>265.591320</ele>
        <time>2021-11-13T16:19:01.356Z</time>
      </trkpt>
      <trkpt lat="47.531247" lon="7.692506">
        <ele>265.850371</ele>
        <time>2021-11-13T16:19:08.876Z</time>
      </trkpt>
      <trkpt lat="47.531250" lon="7.692032">
        <ele>266.076492</ele>
        <time>2021-11-13T16:19:15.352Z</time>
      </trkpt>
      <trkpt lat="47.531253" lon="7.691880">
        <ele>266.149032</ele>
        <time>2021-11-13T16:19:17.388Z</time>
      </trkpt>
      <trkpt lat="47.531254" lon="7.691721">
        <ele>266.224883</ele>
        <time>2021-11-13T16:19:19.389Z</time>
      </trkpt>
      <trkpt lat="47.531257" lon="7.691497">
        <ele>266.331758</ele>
        <time>2021-11-13T16:19:22.198Z</time>
      </trkpt>
      <trkpt lat="47.531218" lon="7.691259">
        <ele>266.407404</ele>
        <time>2021-11-13T16:19:24.969Z</time>
      </trkpt>
      <trkpt lat="47.531228" lon="7.690572">
        <ele>266.413088</ele>
        <time>2021-11-13T16:19:33.430Z</time>
      </trkpt>
      <trkpt lat="47.531244" lon="7.689927">
        <ele>266.418427</ele>
        <time>2021-11-13T16:19:40.009Z</time>
      </trkpt>
      <trkpt lat="47.531254" lon="7.689619">
        <ele>266.420978</ele>
        <time>2021-11-13T16:19:43.022Z</time>
      </trkpt>
      <trkpt lat="47.531264" lon="7.689333">
        <ele>266.423346</ele>
        <time>2021-11-13T16:19:45.696Z</time>
      </trkpt>
      <trkpt lat="47.531265" lon="7.689138">
        <ele>266.424960</ele>
        <time>2021-11-13T16:19:47.348Z</time>
      </trkpt>
      <trkpt lat="47.531267" lon="7.688842">
        <ele>266.427408</ele>
        <time>2021-11-13T16:19:50.047Z</time>
      </trkpt>
      <trkpt lat="47.531309" lon="7.687734">
        <ele>266.127922</ele>
        <time>2021-11-13T16:19:59.055Z</time>
      </trkpt>
      <trkpt lat="47.531311" lon="7.686964">
        <ele>265.884643</ele>
        <time>2021-11-13T16:20:05.635Z</time>
      </trkpt>
      <trkpt lat="47.531302" lon="7.686543">
        <ele>265.751565</ele>
        <time>2021-11-13T16:20:09.888Z</time>
      </trkpt>
      <trkpt lat="47.531297" lon="7.685934">
        <ele>265.616968</ele>
        <time>2021-11-13T16:20:16.416Z</time>
      </trkpt>
      <trkpt lat="47.531296" lon="7.684922">
        <ele>265.959357</ele>
        <time>2021-11-13T16:20:27.858Z</time>
      </trkpt>
      <trkpt lat="47.531277" lon="7.683432">
        <ele>266.463556</ele>
        <time>2021-11-13T16:20:45.021Z</time>
      </trkpt>
      <trkpt lat="47.531276" lon="7.682944">
        <ele>266.732176</ele>
        <time>2021-11-13T16:20:50.772Z</time>
      </trkpt>
      <trkpt lat="47.531275" lon="7.682615">
        <ele>266.925603</ele>
        <time>2021-11-13T16:20:54.752Z</time>
      </trkpt>
      <trkpt lat="47.531257" lon="7.681446">
        <ele>267.613059</ele>
        <time>2021-11-13T16:21:09.545Z</time>
      </trkpt>
      <trkpt lat="47.531222" lon="7.679157">
        <ele>268.609118</ele>
        <time>2021-11-13T16:21:38.093Z</time>
      </trkpt>
      <trkpt lat="47.531218" lon="7.678940">
        <ele>268.687361</ele>
        <time>2021-11-13T16:21:40.403Z</time>
      </trkpt>
      <trkpt lat="47.531215" lon="7.678292">
        <ele>268.920929</ele>
        <time>2021-11-13T16:21:46.918Z</time>
      </trkpt>
      <trkpt lat="47.531238" lon="7.677761">
        <ele>268.993667</ele>
        <time>2021-11-13T16:21:52.075Z</time>
      </trkpt>
      <trkpt lat="47.531253" lon="7.677527">
        <ele>268.975508</ele>
        <time>2021-11-13T16:21:54.450Z</time>
      </trkpt>
      <trkpt lat="47.531275" lon="7.677355">
        <ele>268.961985</ele>
        <time>2021-11-13T16:21:56.130Z</time>
      </trkpt>
      <trkpt lat="47.531314" lon="7.677106">
        <ele>268.942238</ele>
        <time>2021-11-13T16:21:58.994Z</time>
      </trkpt>
      <trkpt lat="47.531325" lon="7.677036">
        <ele>268.936686</ele>
        <time>2021-11-13T16:21:59.705Z</time>
      </trkpt>
      <trkpt lat="47.531397" lon="7.676665">
        <ele>268.906864</ele>
        <time>2021-11-13T16:22:03.661Z</time>
      </trkpt>
      <trkpt lat="47.531455" lon="7.676389">
        <ele>268.884534</ele>
        <time>2021-11-13T16:22:06.559Z</time>
      </trkpt>
      <trkpt lat="47.531545" lon="7.675929">
        <ele>268.847536</ele>
        <time>2021-11-13T16:22:11.759Z</time>
      </trkpt>
      <trkpt lat="47.531606" lon="7.675606">
        <ele>268.821626</ele>
        <time>2021-11-13T16:22:15.010Z</time>
      </trkpt>
      <trkpt lat="47.531635" lon="7.675449">
        <ele>268.809051</ele>
        <time>2021-11-13T16:22:16.345Z</time>
      </trkpt>
      <trkpt lat="47.531719" lon="7.675071">
        <ele>268.650323</ele>
        <time>2021-11-13T16:22:19.552Z</time>
      </trkpt>
      <trkpt lat="47.531825" lon="7.674498">
        <ele>268.412302</ele>
        <time>2021-11-13T16:22:24.340Z</time>
      </trkpt>
      <trkpt lat="47.531884" lon="7.674105">
        <ele>268.251010</ele>
        <time>2021-11-13T16:22:27.978Z</time>
      </trkpt>
      <trkpt lat="47.531942" lon="7.673731">
        <ele>268.097274</ele>
        <time>2021-11-13T16:22:31.588Z</time>
      </trkpt>
      <trkpt lat="47.531990" lon="7.673394">
        <ele>267.959291</ele>
        <time>2021-11-13T16:22:34.555Z</time>
      </trkpt>
      <trkpt lat="47.532036" lon="7.673089">
        <ele>267.834088</ele>
        <time>2021-11-13T16:22:37.467Z</time>
      </trkpt>
      <trkpt lat="47.532065" lon="7.672871">
        <ele>267.745073</ele>
        <time>2021-11-13T16:22:39.343Z</time>
      </trkpt>
      <trkpt lat="47.532344" lon="7.670949">
        <ele>268.320535</ele>
        <time>2021-11-13T16:22:57.483Z</time>
      </trkpt>
      <trkpt lat="47.532378" lon="7.670762">
        <ele>268.377812</ele>
        <time>2021-11-13T16:23:00.449Z</time>
      </trkpt>
      <trkpt lat="47.532450" lon="7.670414">
        <ele>268.485461</ele>
        <time>2021-11-13T16:23:06.359Z</time>
      </trkpt>
      <trkpt lat="47.532528" lon="7.670085">
        <ele>268.739021</ele>
        <time>2021-11-13T16:23:12.456Z</time>
      </trkpt>
      <trkpt lat="47.532604" lon="7.669823">
        <ele>269.038169</ele>
        <time>2021-11-13T16:23:17.591Z</time>
      </trkpt>
      <trkpt lat="47.532727" lon="7.669421">
        <ele>269.501175</ele>
        <time>2021-11-13T16:23:24.745Z</time>
      </trkpt>
      <trkpt lat="47.532897" lon="7.668969">
        <ele>270.043957</ele>
        <time>2021-11-13T16:23:32.538Z</time>
      </trkpt>
      <trkpt lat="47.533053" lon="7.668607">
        <ele>270.494477</ele>
        <time>2021-11-13T16:23:37.834Z</time>
      </trkpt>
      <trkpt lat="47.533159" lon="7.668361">
        <ele>270.800622</ele>
        <time>2021-11-13T16:23:42.130Z</time>
      </trkpt>
      <trkpt lat="47.533253" lon="7.668149">
        <ele>271.066692</ele>
        <time>2021-11-13T16:23:44.816Z</time>
      </trkpt>
      <trkpt lat="47.533486" lon="7.667627">
        <ele>271.276283</ele>
        <time>2021-11-13T16:23:52.438Z</time>
      </trkpt>
      <trkpt lat="47.533740" lon="7.667075">
        <ele>271.192085</ele>
        <time>2021-11-13T16:23:59.962Z</time>
      </trkpt>
      <trkpt lat="47.533835" lon="7.666868">
        <ele>271.160537</ele>
        <time>2021-11-13T16:24:02.031Z</time>
      </trkpt>
      <trkpt lat="47.533775" lon="7.666807">
        <ele>271.146951</ele>
        <time>2021-11-13T16:24:03.352Z</time>
      </trkpt>
      <trkpt lat="47.533696" lon="7.666647">
        <ele>271.121967</ele>
        <time>2021-11-13T16:24:05.314Z</time>
      </trkpt>
      <trkpt lat="47.533398" lon="7.666305">
        <ele>271.051588</ele>
        <time>2021-11-13T16:24:09.820Z</time>
      </trkpt>
      <trkpt lat="47.533116" lon="7.665988">
        <ele>270.996700</ele>
        <time>2021-11-13T16:24:14.044Z</time>
      </trkpt>
      <trkpt lat="47.532925" lon="7.665760">
        <ele>271.125703</ele>
        <time>2021-11-13T16:24:17.134Z</time>
      </trkpt>
      <trkpt lat="47.532786" lon="7.665641">
        <ele>271.210131</ele>
        <time>2021-11-13T16:24:19.279Z</time>
      </trkpt>
      <trkpt lat="47.532672" lon="7.665583">
        <ele>271.273519</ele>
        <time>2021-11-13T16:24:20.912Z</time>
      </trkpt>
      <trkpt lat="47.532292" lon="7.665148">
        <ele>271.526080</ele>
        <time>2021-11-13T16:24:29.408Z</time>
      </trkpt>
      <trkpt lat="47.532218" lon="7.665062">
        <ele>271.575544</ele>
        <time>2021-11-13T16:24:31.059Z</time>
      </trkpt>
      <trkpt lat="47.532140" lon="7.664972">
        <ele>271.627540</ele>
        <time>2021-11-13T16:24:32.848Z</time>
      </trkpt>
      <trkpt lat="47.531991" lon="7.664806">
        <ele>271.725588</ele>
        <time>2021-11-13T16:24:36.730Z</time>
      </trkpt>
      <trkpt lat="47.531765" lon="7.664540">
        <ele>271.877392</ele>
        <time>2021-11-13T16:24:42.466Z</time>
      </trkpt>
      <trkpt lat="47.530899" lon="7.663616">
        <ele>273.981869</ele>
        <time>2021-11-13T16:25:05.941Z</time>
      </trkpt>
      <trkpt lat="47.530793" lon="7.663521">
        <ele>274.246368</ele>
        <time>2021-11-13T16:25:09.468Z</time>
      </trkpt>
      <trkpt lat="47.530719" lon="7.663465">
        <ele>274.423774</ele>
        <time>2021-11-13T16:25:11.843Z</time>
      </trkpt>
      <trkpt lat="47.529792" lon="7.663087">
        <ele>276.574023</ele>
        <time>2021-11-13T16:25:40.965Z</time>
      </trkpt>
      <trkpt lat="47.529676" lon="7.663021">
        <ele>276.876183</ele>
        <time>2021-11-13T16:25:44.686Z</time>
      </trkpt>
      <trkpt lat="47.529624" lon="7.662986">
        <ele>277.015070</ele>
        <time>2021-11-13T16:25:46.086Z</time>
      </trkpt>
      <trkpt lat="47.529576" lon="7.662954">
        <ele>277.143065</ele>
        <time>2021-11-13T16:25:47.458Z</time>
      </trkpt>
      <trkpt lat="47.529502" lon="7.662906">
        <ele>277.339503</ele>
        <time>2021-11-13T16:25:49.616Z</time>
      </trkpt>
      <trkpt lat="47.528985" lon="7.662541">
        <ele>278.732154</ele>
        <time>2021-11-13T16:26:06.895Z</time>
      </trkpt>
      <trkpt lat="47.528693" lon="7.662320">
        <ele>279.529515</ele>
        <time>2021-11-13T16:26:16.634Z</time>
      </trkpt>
      <trkpt lat="47.528592" lon="7.662229">
        <ele>279.816981</ele>
        <time>2021-11-13T16:26:19.748Z</time>
      </trkpt>
      <trkpt lat="47.528425" lon="7.662035">
        <ele>280.281389</ele>
        <time>2021-11-13T16:26:24.556Z</time>
      </trkpt>
      <trkpt lat="47.528226" lon="7.661637">
        <ele>280.867894</ele>
        <time>2021-11-13T16:26:32.331Z</time>
      </trkpt>
      <trkpt lat="47.527912" lon="7.660639">
        <ele>282.171827</ele>
        <time>2021-11-13T16:26:49.502Z</time>
      </trkpt>
      <trkpt lat="47.527673" lon="7.659801">
        <ele>283.249164</ele>
        <time>2021-11-13T16:27:02.787Z</time>
      </trkpt>
      <trkpt lat="47.527666" lon="7.659776">
        <ele>283.281217</ele>
        <time>2021-11-13T16:27:03.223Z</time>
      </trkpt>
      <trkpt lat="47.527370" lon="7.658528">
        <ele>283.163302</ele>
        <time>2021-11-13T16:27:16.742Z</time>
      </trkpt>
      <trkpt lat="47.527241" lon="7.658123">
        <ele>283.115609</ele>
        <time>2021-11-13T16:27:20.584Z</time>
      </trkpt>
      <trkpt lat="47.527139" lon="7.657807">
        <ele>283.078306</ele>
        <time>2021-11-13T16:27:23.581Z</time>
      </trkpt>
      <trkpt lat="47.527042" lon="7.657604">
        <ele>283.051820</ele>
        <time>2021-11-13T16:27:25.715Z</time>
      </trkpt>
      <trkpt lat="47.526917" lon="7.657402">
        <ele>283.022638</ele>
        <time>2021-11-13T16:27:28.063Z</time>
      </trkpt>
      <trkpt lat="47.526859" lon="7.657325">
        <ele>283.004414</ele>
        <time>2021-11-13T16:27:29.000Z</time>
      </trkpt>
      <trkpt lat="47.526880" lon="7.657295">
        <ele>282.996494</ele>
        <time>2021-11-13T16:27:29.353Z</time>
      </trkpt>
      <trkpt lat="47.526883" lon="7.657129">
        <ele>282.966057</ele>
        <time>2021-11-13T16:27:30.990Z</time>
      </trkpt>
      <trkpt lat="47.526863" lon="7.657097">
        <ele>282.958065</ele>
        <time>2021-11-13T16:27:31.326Z</time>
      </trkpt>
      <trkpt lat="47.526840" lon="7.657078">
        <ele>282.950916</ele>
        <time>2021-11-13T16:27:31.647Z</time>
      </trkpt>
      <trkpt lat="47.526789" lon="7.657068">
        <ele>282.936952</ele>
        <time>2021-11-13T16:27:32.269Z</time>
      </trkpt>
      <trkpt lat="47.526764" lon="7.657078">
        <ele>282.929923</ele>
        <time>2021-11-13T16:27:32.581Z</time>
      </trkpt>
      <trkpt lat="47.526741" lon="7.657100">
        <ele>282.922490</ele>
        <time>2021-11-13T16:27:32.925Z</time>
      </trkpt>
      <trkpt lat="47.526722" lon="7.657130">
        <ele>282.914951</ele>
        <time>2021-11-13T16:27:33.245Z</time>
      </trkpt>
      <trkpt lat="47.526710" lon="7.657166">
        <ele>282.907593</ele>
        <time>2021-11-13T16:27:33.571Z</time>
      </trkpt>
      <trkpt lat="47.526706" lon="7.657209">
        <ele>282.899637</ele>
        <time>2021-11-13T16:27:33.924Z</time>
      </trkpt>
      <trkpt lat="47.526723" lon="7.657291">
        <ele>282.883915</ele>
        <time>2021-11-13T16:27:34.693Z</time>
      </trkpt>
      <trkpt lat="47.526743" lon="7.657323">
        <ele>282.875922</ele>
        <time>2021-11-13T16:27:35.212Z</time>
      </trkpt>
      <trkpt lat="47.526694" lon="7.657412">
        <ele>282.854874</ele>
        <time>2021-11-13T16:27:36.601Z</time>
      </trkpt>
      <trkpt lat="47.526672" lon="7.657453">
        <ele>282.845276</ele>
        <time>2021-11-13T16:27:37.168Z</time>
      </trkpt>
      <trkpt lat="47.526339" lon="7.657736">
        <ele>282.741059</ele>
        <time>2021-11-13T16:27:43.965Z</time>
      </trkpt>
      <trkpt lat="47.526194" lon="7.657732">
        <ele>282.701693</ele>
        <time>2021-11-13T16:27:46.416Z</time>
      </trkpt>
      <trkpt lat="47.526129" lon="7.657714">
        <ele>282.683743</ele>
        <time>2021-11-13T16:27:47.719Z</time>
      </trkpt>
      <trkpt lat="47.526058" lon="7.657663">
        <ele>282.662323</ele>
        <time>2021-11-13T16:27:49.165Z</time>
      </trkpt>
      <trkpt lat="47.525992" lon="7.657583">
        <ele>282.639172</ele>
        <time>2021-11-13T16:27:50.736Z</time>
      </trkpt>
      <trkpt lat="47.525949" lon="7.657484">
        <ele>282.617596</ele>
        <time>2021-11-13T16:27:52.395Z</time>
      </trkpt>
      <trkpt lat="47.525879" lon="7.657237">
        <ele>282.568497</ele>
        <time>2021-11-13T16:27:56.401Z</time>
      </trkpt>
      <trkpt lat="47.525864" lon="7.656858">
        <ele>282.851341</ele>
        <time>2021-11-13T16:28:02.521Z</time>
      </trkpt>
      <trkpt lat="47.525910" lon="7.656589">
        <ele>283.370469</ele>
        <time>2021-11-13T16:28:07.267Z</time>
      </trkpt>
      <trkpt lat="47.525936" lon="7.656458">
        <ele>283.625909</ele>
        <time>2021-11-13T16:28:09.793Z</time>
      </trkpt>
      <trkpt lat="47.525829" lon="7.656401">
        <ele>283.940946</ele>
        <time>2021-11-13T16:28:13.664Z</time>
      </trkpt>
      <trkpt lat="47.525670" lon="7.656313">
        <ele>284.411211</ele>
        <time>2021-11-13T16:28:17.358Z</time>
      </trkpt>
      <trkpt lat="47.525472" lon="7.656212">
        <ele>284.991397</ele>
        <time>2021-11-13T16:28:24.542Z</time>
      </trkpt>
      <trkpt lat="47.525397" lon="7.656172">
        <ele>285.212247</ele>
        <time>2021-11-13T16:28:26.104Z</time>
      </trkpt>
      <trkpt lat="47.525220" lon="7.656078">
        <ele>285.733201</ele>
        <time>2021-11-13T16:28:32.757Z</time>
      </trkpt>
      <trkpt lat="47.524818" lon="7.655865">
        <ele>286.916076</ele>
        <time>2021-11-13T16:28:44.671Z</time>
      </trkpt>
      <trkpt lat="47.524761" lon="7.655834">
        <ele>287.084306</ele>
        <time>2021-11-13T16:28:45.667Z</time>
      </trkpt>
      <trkpt lat="47.524698" lon="7.655801">
        <ele>287.269444</ele>
        <time>2021-11-13T16:28:47.045Z</time>
      </trkpt>
      <trkpt lat="47.524663" lon="7.655783">
        <ele>287.372092</ele>
        <time>2021-11-13T16:28:47.829Z</time>
      </trkpt>
      <trkpt lat="47.524616" lon="7.655757">
        <ele>287.511093</ele>
        <time>2021-11-13T16:28:50.664Z</time>
      </trkpt>
      <trkpt lat="47.524572" lon="7.655735">
        <ele>287.626052</ele>
        <time>2021-11-13T16:28:51.641Z</time>
      </trkpt>
      <trkpt lat="47.524519" lon="7.655706">
        <ele>287.765605</ele>
        <time>2021-11-13T16:28:54.207Z</time>
      </trkpt>
      <trkpt lat="47.524305" lon="7.655610">
        <ele>288.317876</ele>
        <time>2021-11-13T16:28:57.984Z</time>
      </trkpt>
      <trkpt lat="47.524277" lon="7.655598">
        <ele>288.389870</ele>
        <time>2021-11-13T16:29:00.279Z</time>
      </trkpt>
      <trkpt lat="47.524304" lon="7.655410">
        <ele>288.710438</ele>
        <time>2021-11-13T16:29:04.115Z</time>
      </trkpt>
      <trkpt lat="47.524322" lon="7.655284">
        <ele>288.925238</ele>
        <time>2021-11-13T16:29:05.323Z</time>
      </trkpt>
      <trkpt lat="47.524475" lon="7.654210">
        <ele>290.755929</ele>
        <time>2021-11-13T16:29:23.941Z</time>
      </trkpt>
      <trkpt lat="47.524506" lon="7.653987">
        <ele>291.135657</ele>
        <time>2021-11-13T16:29:28.507Z</time>
      </trkpt>
      <trkpt lat="47.524516" lon="7.653915">
        <ele>291.258255</ele>
        <time>2021-11-13T16:29:30.130Z</time>
      </trkpt>
      <trkpt lat="47.524555" lon="7.653632">
        <ele>291.739982</ele>
        <time>2021-11-13T16:29:34.068Z</time>
      </trkpt>
      <trkpt lat="47.524557" lon="7.652450">
        <ele>292.526873</ele>
        <time>2021-11-13T16:29:48.641Z</time>
      </trkpt>
      <trkpt lat="47.524523" lon="7.652322">
        <ele>292.601489</ele>
        <time>2021-11-13T16:29:50.013Z</time>
      </trkpt>
      <trkpt lat="47.524484" lon="7.652177">
        <ele>292.686159</ele>
        <time>2021-11-13T16:29:51.467Z</time>
      </trkpt>
      <trkpt lat="47.524402" lon="7.651879">
        <ele>292.860725</ele>
        <time>2021-11-13T16:29:54.715Z</time>
      </trkpt>
      <trkpt lat="47.524245" lon="7.651314">
        <ele>293.192165</ele>
        <time>2021-11-13T16:30:01.288Z</time>
      </trkpt>
      <trkpt lat="47.524245" lon="7.651314">
        <ele>293.192165</ele>
        <time>2021-11-13T16:30:01.722Z</time>
      </trkpt>
      <trkpt lat="47.524245" lon="7.651314">
        <ele>293.192165</ele>
        <time>2021-11-13T16:30:01.889Z</time>
      </trkpt>
      <trkpt lat="47.524034" lon="7.650528">
        <ele>293.847565</ele>
        <time>2021-11-13T16:30:13.469Z</time>
      </trkpt>
      <trkpt lat="47.523968" lon="7.650324">
        <ele>294.066679</ele>
        <time>2021-11-13T16:30:16.164Z</time>
      </trkpt>
      <trkpt lat="47.523851" lon="7.649952">
        <ele>294.464187</ele>
        <time>2021-11-13T16:30:22.608Z</time>
      </trkpt>
      <trkpt lat="47.523799" lon="7.649826">
        <ele>294.607226</ele>
        <time>2021-11-13T16:30:24.396Z</time>
      </trkpt>
      <trkpt lat="47.523763" lon="7.649750">
        <ele>294.697150</ele>
        <time>2021-11-13T16:30:26.203Z</time>
      </trkpt>
      <trkpt lat="47.523318" lon="7.648996">
        <ele>295.667154</ele>
        <time>2021-11-13T16:30:39.296Z</time>
      </trkpt>
      <trkpt lat="47.523157" lon="7.648702">
        <ele>296.022087</ele>
        <time>2021-11-13T16:30:44.964Z</time>
      </trkpt>
      <trkpt lat="47.523005" lon="7.648426">
        <ele>296.290641</ele>
        <time>2021-11-13T16:30:50.567Z</time>
      </trkpt>
      <trkpt lat="47.522716" lon="7.647943">
        <ele>296.777249</ele>
        <time>2021-11-13T16:30:59.973Z</time>
      </trkpt>
      <trkpt lat="47.522552" lon="7.647695">
        <ele>297.038988</ele>
        <time>2021-11-13T16:31:04.186Z</time>
      </trkpt>
      <trkpt lat="47.522504" lon="7.647599">
        <ele>297.129060</ele>
        <time>2021-11-13T16:31:06.014Z</time>
      </trkpt>
      <trkpt lat="47.522477" lon="7.647501">
        <ele>297.208872</ele>
        <time>2021-11-13T16:31:07.238Z</time>
      </trkpt>
      <trkpt lat="47.522444" lon="7.647497">
        <ele>297.245844</ele>
        <time>2021-11-13T16:31:07.957Z</time>
      </trkpt>
      <trkpt lat="47.522408" lon="7.647467">
        <ele>297.291970</ele>
        <time>2021-11-13T16:31:08.573Z</time>
      </trkpt>
      <trkpt lat="47.521923" lon="7.646845">
        <ele>297.988288</ele>
        <time>2021-11-13T16:31:19.629Z</time>
      </trkpt>
      <trkpt lat="47.521902" lon="7.646594">
        <ele>297.978199</ele>
        <time>2021-11-13T16:31:21.975Z</time>
      </trkpt>
      <trkpt lat="47.521887" lon="7.646463">
        <ele>297.972899</ele>
        <time>2021-11-13T16:31:24.204Z</time>
      </trkpt>
      <trkpt lat="47.521879" lon="7.646397">
        <ele>297.970225</ele>
        <time>2021-11-13T16:31:25.638Z</time>
      </trkpt>
      <trkpt lat="47.521817" lon="7.645962">
        <ele>297.952491</ele>
        <time>2021-11-13T16:31:29.860Z</time>
      </trkpt>
      <trkpt lat="47.521825" lon="7.645908">
        <ele>297.950285</ele>
        <time>2021-11-13T16:31:30.996Z</time>
      </trkpt>
      <trkpt lat="47.521909" lon="7.645686">
        <ele>297.940135</ele>
        <time>2021-11-13T16:31:33.349Z</time>
      </trkpt>
      <trkpt lat="47.521991" lon="7.645472">
        <ele>297.930320</ele>
        <time>2021-11-13T16:31:35.535Z</time>
      </trkpt>
      <trkpt lat="47.521996" lon="7.645463">
        <ele>297.929855</ele>
        <time>2021-11-13T16:31:35.734Z</time>
      </trkpt>
      <trkpt lat="47.522133" lon="7.645245">
        <ele>297.917976</ele>
        <time>2021-11-13T16:31:38.263Z</time>
      </trkpt>
      <trkpt lat="47.522203" lon="7.645103">
        <ele>297.910964</ele>
        <time>2021-11-13T16:31:39.645Z</time>
      </trkpt>
      <trkpt lat="47.522112" lon="7.645020">
        <ele>297.904651</ele>
        <time>2021-11-13T16:31:41.715Z</time>
      </trkpt>
      <trkpt lat="47.521941" lon="7.644834">
        <ele>297.892118</ele>
        <time>2021-11-13T16:31:44.018Z</time>
      </trkpt>
      <trkpt lat="47.521870" lon="7.644697">
        <ele>297.885229</ele>
        <time>2021-11-13T16:31:46.339Z</time>
      </trkpt>
      <trkpt lat="47.521896" lon="7.644663">
        <ele>297.883180</ele>
        <time>2021-11-13T16:31:46.744Z</time>
      </trkpt>
      <trkpt lat="47.521979" lon="7.644414">
        <ele>297.890735</ele>
        <time>2021-11-13T16:31:48.982Z</time>
      </trkpt>
      <trkpt lat="47.522007" lon="7.644293">
        <ele>297.894313</ele>
        <time>2021-11-13T16:31:50.475Z</time>
      </trkpt>
      <trkpt lat="47.522032" lon="7.644163">
        <ele>297.898093</ele>
        <time>2021-11-13T16:31:52.323Z</time>
      </trkpt>
      <trkpt lat="47.522072" lon="7.643901">
        <ele>297.905605</ele>
        <time>2021-11-13T16:31:54.781Z</time>
      </trkpt>
      <trkpt lat="47.522081" lon="7.643783">
        <ele>297.908926</ele>
        <time>2021-11-13T16:31:56.334Z</time>
      </trkpt>
      <trkpt lat="47.522081" lon="7.643755">
        <ele>297.909709</ele>
        <time>2021-11-13T16:31:56.890Z</time>
      </trkpt>
      <trkpt lat="47.522082" lon="7.643656">
        <ele>297.912478</ele>
        <time>2021-11-13T16:31:58.352Z</time>
      </trkpt>
      <trkpt lat="47.522082" lon="7.643568">
        <ele>297.914939</ele>
        <time>2021-11-13T16:31:59.176Z</time>
      </trkpt>
      <trkpt lat="47.522055" lon="7.642957">
        <ele>297.932062</ele>
        <time>2021-11-13T16:32:06.593Z</time>
      </trkpt>
      <trkpt lat="47.522051" lon="7.642850">
        <ele>297.935059</ele>
        <time>2021-11-13T16:32:07.569Z</time>
      </trkpt>
      <trkpt lat="47.522009" lon="7.642032">
        <ele>297.947086</ele>
        <time>2021-11-13T16:32:15.226Z</time>
      </trkpt>
      <trkpt lat="47.522026" lon="7.641831">
        <ele>297.818025</ele>
        <time>2021-11-13T16:32:17.069Z</time>
      </trkpt>
      <trkpt lat="47.522038" lon="7.641697">
        <ele>297.731904</ele>
        <time>2021-11-13T16:32:18.340Z</time>
      </trkpt>
      <trkpt lat="47.522121" lon="7.641251">
        <ele>297.437158</ele>
        <time>2021-11-13T16:32:22.281Z</time>
      </trkpt>
      <trkpt lat="47.522213" lon="7.640855">
        <ele>297.170348</ele>
        <time>2021-11-13T16:32:26.031Z</time>
      </trkpt>
      <trkpt lat="47.522447" lon="7.639953">
        <ele>296.554726</ele>
        <time>2021-11-13T16:32:34.082Z</time>
      </trkpt>
      <trkpt lat="47.522550" lon="7.639700">
        <ele>296.366511</ele>
        <time>2021-11-13T16:32:36.581Z</time>
      </trkpt>
      <trkpt lat="47.522677" lon="7.639473">
        <ele>296.014360</ele>
        <time>2021-11-13T16:32:38.689Z</time>
      </trkpt>
      <trkpt lat="47.522788" lon="7.639280">
        <ele>295.528816</ele>
        <time>2021-11-13T16:32:40.596Z</time>
      </trkpt>
      <trkpt lat="47.522996" lon="7.638639">
        <ele>294.166735</ele>
        <time>2021-11-13T16:32:45.531Z</time>
      </trkpt>
      <trkpt lat="47.523089" lon="7.638357">
        <ele>293.565660</ele>
        <time>2021-11-13T16:32:47.778Z</time>
      </trkpt>
      <trkpt lat="47.523154" lon="7.638160">
        <ele>293.145720</ele>
        <time>2021-11-13T16:32:49.214Z</time>
      </trkpt>
      <trkpt lat="47.523801" lon="7.637031">
        <ele>290.525834</ele>
        <time>2021-11-13T16:32:59.314Z</time>
      </trkpt>
      <trkpt lat="47.524249" lon="7.636392">
        <ele>289.210484</ele>
        <time>2021-11-13T16:33:05.739Z</time>
      </trkpt>
      <trkpt lat="47.524249" lon="7.636392">
        <ele>289.210484</ele>
        <time>2021-11-13T16:33:05.747Z</time>
      </trkpt>
      <trkpt lat="47.524748" lon="7.635671">
        <ele>287.736201</ele>
        <time>2021-11-13T16:33:13.808Z</time>
      </trkpt>
      <trkpt lat="47.525218" lon="7.635093">
        <ele>287.772385</ele>
        <time>2021-11-13T16:33:21.727Z</time>
      </trkpt>
      <trkpt lat="47.525496" lon="7.634757">
        <ele>288.119252</ele>
        <time>2021-11-13T16:33:27.549Z</time>
      </trkpt>
      <trkpt lat="47.525562" lon="7.634678">
        <ele>288.201285</ele>
        <time>2021-11-13T16:33:29.150Z</time>
      </trkpt>
      <trkpt lat="47.525828" lon="7.634421">
        <ele>288.508297</ele>
        <time>2021-11-13T16:33:35.786Z</time>
      </trkpt>
      <trkpt lat="47.526076" lon="7.634113">
        <ele>288.821168</ele>
        <time>2021-11-13T16:33:42.975Z</time>
      </trkpt>
      <trkpt lat="47.526449" lon="7.633750">
        <ele>289.647786</ele>
        <time>2021-11-13T16:33:54.104Z</time>
      </trkpt>
      <trkpt lat="47.526697" lon="7.633482">
        <ele>290.685790</ele>
        <time>2021-11-13T16:34:02.765Z</time>
      </trkpt>
      <trkpt lat="47.526830" lon="7.633347">
        <ele>291.230955</ele>
        <time>2021-11-13T16:34:07.333Z</time>
      </trkpt>
      <trkpt lat="47.526975" lon="7.633190">
        <ele>291.838264</ele>
        <time>2021-11-13T16:34:12.283Z</time>
      </trkpt>
      <trkpt lat="47.527279" lon="7.632659">
        <ele>293.427631</ele>
        <time>2021-11-13T16:34:26.488Z</time>
      </trkpt>
      <trkpt lat="47.527458" lon="7.632289">
        <ele>294.466775</ele>
        <time>2021-11-13T16:34:35.944Z</time>
      </trkpt>
      <trkpt lat="47.527665" lon="7.631910">
        <ele>295.422942</ele>
        <time>2021-11-13T16:34:46.192Z</time>
      </trkpt>
      <trkpt lat="47.527861" lon="7.631503">
        <ele>296.121469</ele>
        <time>2021-11-13T16:34:55.883Z</time>
      </trkpt>
      <trkpt lat="47.528027" lon="7.631157">
        <ele>296.714553</ele>
        <time>2021-11-13T16:35:03.545Z</time>
      </trkpt>
      <trkpt lat="47.528056" lon="7.631064">
        <ele>296.857691</ele>
        <time>2021-11-13T16:35:04.327Z</time>
      </trkpt>
      <trkpt lat="47.528264" lon="7.630411">
        <ele>297.866562</ele>
        <time>2021-11-13T16:35:13.671Z</time>
      </trkpt>
      <trkpt lat="47.528284" lon="7.630360">
        <ele>297.948971</ele>
        <time>2021-11-13T16:35:15.033Z</time>
      </trkpt>
      <trkpt lat="47.528516" lon="7.629750">
        <ele>298.919210</ele>
        <time>2021-11-13T16:35:23.631Z</time>
      </trkpt>
      <trkpt lat="47.528686" lon="7.629298">
        <ele>299.445138</ele>
        <time>2021-11-13T16:35:30.998Z</time>
      </trkpt>
      <trkpt lat="47.528711" lon="7.629281">
        <ele>299.486552</ele>
        <time>2021-11-13T16:35:31.695Z</time>
      </trkpt>
      <trkpt lat="47.528732" lon="7.629282">
        <ele>299.518183</ele>
        <time>2021-11-13T16:35:32.194Z</time>
      </trkpt>
      <trkpt lat="47.528775" lon="7.629297">
        <ele>299.584688</ele>
        <time>2021-11-13T16:35:32.652Z</time>
      </trkpt>
      <trkpt lat="47.528956" lon="7.629459">
        <ele>299.903066</ele>
        <time>2021-11-13T16:35:37.399Z</time>
      </trkpt>
      <trkpt lat="47.529013" lon="7.629325">
        <ele>300.064053</ele>
        <time>2021-11-13T16:35:39.963Z</time>
      </trkpt>
      <trkpt lat="47.529126" lon="7.629058">
        <ele>300.384364</ele>
        <time>2021-11-13T16:35:44.351Z</time>
      </trkpt>
      <trkpt lat="47.529242" lon="7.628533">
        <ele>300.945868</ele>
        <time>2021-11-13T16:35:51.445Z</time>
      </trkpt>
      <trkpt lat="47.529256" lon="7.628309">
        <ele>301.174536</ele>
        <time>2021-11-13T16:35:54.814Z</time>
      </trkpt>
      <trkpt lat="47.529243" lon="7.628048">
        <ele>301.440561</ele>
        <time>2021-11-13T16:35:58.442Z</time>
      </trkpt>
      <trkpt lat="47.529188" lon="7.627028">
        <ele>301.735845</ele>
        <time>2021-11-13T16:36:14.827Z</time>
      </trkpt>
      <trkpt lat="47.529178" lon="7.626842">
        <ele>301.764087</ele>
        <time>2021-11-13T16:36:18.055Z</time>
      </trkpt>
      <trkpt lat="47.529108" lon="7.625842">
        <ele>301.916258</ele>
        <time>2021-11-13T16:36:29.321Z</time>
      </trkpt>
      <trkpt lat="47.528999" lon="7.625008">
        <ele>300.983464</ele>
        <time>2021-11-13T16:36:36.031Z</time>
      </trkpt>
      <trkpt lat="47.528967" lon="7.624774">
        <ele>299.957438</ele>
        <time>2021-11-13T16:36:37.562Z</time>
      </trkpt>
      <trkpt lat="47.528899" lon="7.624493">
        <ele>298.674634</ele>
        <time>2021-11-13T16:36:39.426Z</time>
      </trkpt>
      <trkpt lat="47.528856" lon="7.624416">
        <ele>298.245218</ele>
        <time>2021-11-13T16:36:40.030Z</time>
      </trkpt>
      <trkpt lat="47.528828" lon="7.624375">
        <ele>297.994611</ele>
        <time>2021-11-13T16:36:40.360Z</time>
      </trkpt>
      <trkpt lat="47.527839" lon="7.623515">
        <ele>290.695219</ele>
        <time>2021-11-13T16:36:50.513Z</time>
      </trkpt>
      <trkpt lat="47.527668" lon="7.623366">
        <ele>289.622718</ele>
        <time>2021-11-13T16:36:52.269Z</time>
      </trkpt>
      <trkpt lat="47.527585" lon="7.623336">
        <ele>289.170610</ele>
        <time>2021-11-13T16:36:53.002Z</time>
      </trkpt>
      <trkpt lat="47.527349" lon="7.623302">
        <ele>287.915858</ele>
        <time>2021-11-13T16:36:55.126Z</time>
      </trkpt>
      <trkpt lat="47.527294" lon="7.623295">
        <ele>287.623739</ele>
        <time>2021-11-13T16:36:55.623Z</time>
      </trkpt>
      <trkpt lat="47.526978" lon="7.623273">
        <ele>285.949695</ele>
        <time>2021-11-13T16:36:58.506Z</time>
      </trkpt>
      <trkpt lat="47.525187" lon="7.623251">
        <ele>279.762276</ele>
        <time>2021-11-13T16:37:16.503Z</time>
      </trkpt>
      <trkpt lat="47.524983" lon="7.623179">
        <ele>279.451331</ele>
        <time>2021-11-13T16:37:19.304Z</time>
      </trkpt>
      <trkpt lat="47.524857" lon="7.623123">
        <ele>279.256277</ele>
        <time>2021-11-13T16:37:20.949Z</time>
      </trkpt>
      <trkpt lat="47.524607" lon="7.623024">
        <ele>278.872575</ele>
        <time>2021-11-13T16:37:24.445Z</time>
      </trkpt>
      <trkpt lat="47.524384" lon="7.623050">
        <ele>278.540907</ele>
        <time>2021-11-13T16:37:27.436Z</time>
      </trkpt>
      <trkpt lat="47.524329" lon="7.623037">
        <ele>278.458326</ele>
        <time>2021-11-13T16:37:28.209Z</time>
      </trkpt>
      <trkpt lat="47.523991" lon="7.622959">
        <ele>279.507584</ele>
        <time>2021-11-13T16:37:34.679Z</time>
      </trkpt>
      <trkpt lat="47.523989" lon="7.622959">
        <ele>279.515475</ele>
        <time>2021-11-13T16:37:34.722Z</time>
      </trkpt>
      <trkpt lat="47.523145" lon="7.622731">
        <ele>282.900628</ele>
        <time>2021-11-13T16:38:01.661Z</time>
      </trkpt>
      <trkpt lat="47.522782" lon="7.622574">
        <ele>284.392768</ele>
        <time>2021-11-13T16:38:15.487Z</time>
      </trkpt>
      <trkpt lat="47.522665" lon="7.622571">
        <ele>284.854487</ele>
        <time>2021-11-13T16:38:18.117Z</time>
      </trkpt>
      <trkpt lat="47.522585" lon="7.622690">
        <ele>285.301903</ele>
        <time>2021-11-13T16:38:25.226Z</time>
      </trkpt>
      <trkpt lat="47.522503" lon="7.623110">
        <ele>287.187045</ele>
        <time>2021-11-13T16:38:34.210Z</time>
      </trkpt>
      <trkpt lat="47.522482" lon="7.623173">
        <ele>287.509935</ele>
        <time>2021-11-13T16:38:38.548Z</time>
      </trkpt>
      <trkpt lat="47.522347" lon="7.623294">
        <ele>288.583883</ele>
        <time>2021-11-13T16:38:44.097Z</time>
      </trkpt>
      <trkpt lat="47.521784" lon="7.623713">
        <ele>292.872137</ele>
        <time>2021-11-13T16:39:13.595Z</time>
      </trkpt>
      <trkpt lat="47.521370" lon="7.623827">
        <ele>295.737966</ele>
        <time>2021-11-13T16:39:33.265Z</time>
      </trkpt>
      <trkpt lat="47.520946" lon="7.624186">
        <ele>298.398271</ele>
        <time>2021-11-13T16:39:51.898Z</time>
      </trkpt>
      <trkpt lat="47.520872" lon="7.624220">
        <ele>298.665929</ele>
        <time>2021-11-13T16:39:54.645Z</time>
      </trkpt>
      <trkpt lat="47.520815" lon="7.624237">
        <ele>298.866792</ele>
        <time>2021-11-13T16:39:56.331Z</time>
      </trkpt>
      <trkpt lat="47.520733" lon="7.624234">
        <ele>299.150150</ele>
        <time>2021-11-13T16:39:59.107Z</time>
      </trkpt>
      <trkpt lat="47.520376" lon="7.624074">
        <ele>300.438668</ele>
        <time>2021-11-13T16:40:10.326Z</time>
      </trkpt>
      <trkpt lat="47.520189" lon="7.623874">
        <ele>301.235548</ele>
        <time>2021-11-13T16:40:16.891Z</time>
      </trkpt>
      <trkpt lat="47.519373" lon="7.622581">
        <ele>302.406414</ele>
        <time>2021-11-13T16:40:46.523Z</time>
      </trkpt>
      <trkpt lat="47.518610" lon="7.621067">
        <ele>297.739847</ele>
        <time>2021-11-13T16:40:58.369Z</time>
      </trkpt>
      <trkpt lat="47.518522" lon="7.620852">
        <ele>296.953366</ele>
        <time>2021-11-13T16:41:00.084Z</time>
      </trkpt>
      <trkpt lat="47.518498" lon="7.620755">
        <ele>296.514350</ele>
        <time>2021-11-13T16:41:00.663Z</time>
      </trkpt>
      <trkpt lat="47.518254" lon="7.619753">
        <ele>291.987769</ele>
        <time>2021-11-13T16:41:07.037Z</time>
      </trkpt>
      <trkpt lat="47.518224" lon="7.619647">
        <ele>291.499340</ele>
        <time>2021-11-13T16:41:07.685Z</time>
      </trkpt>
      <trkpt lat="47.518095" lon="7.619236">
        <ele>289.573282</ele>
        <time>2021-11-13T16:41:10.521Z</time>
      </trkpt>
      <trkpt lat="47.518048" lon="7.619062">
        <ele>288.776873</ele>
        <time>2021-11-13T16:41:11.642Z</time>
      </trkpt>
      <trkpt lat="47.517971" lon="7.619084">
        <ele>288.283406</ele>
        <time>2021-11-13T16:41:12.932Z</time>
      </trkpt>
      <trkpt lat="47.517896" lon="7.619090">
        <ele>287.810773</ele>
        <time>2021-11-13T16:41:13.678Z</time>
      </trkpt>
      <trkpt lat="47.517673" lon="7.619037">
        <ele>286.389562</ele>
        <time>2021-11-13T16:41:15.660Z</time>
      </trkpt>
      <trkpt lat="47.517607" lon="7.619013">
        <ele>286.032737</ele>
        <time>2021-11-13T16:41:17.045Z</time>
      </trkpt>
      <trkpt lat="47.517519" lon="7.618985">
        <ele>286.052584</ele>
        <time>2021-11-13T16:41:18.177Z</time>
      </trkpt>
      <trkpt lat="47.517425" lon="7.618967">
        <ele>286.073484</ele>
        <time>2021-11-13T16:41:19.014Z</time>
      </trkpt>
      <trkpt lat="47.517339" lon="7.618976">
        <ele>286.092494</ele>
        <time>2021-11-13T16:41:19.887Z</time>
      </trkpt>
      <trkpt lat="47.517243" lon="7.618988">
        <ele>286.113738</ele>
        <time>2021-11-13T16:41:22.030Z</time>
      </trkpt>
      <trkpt lat="47.517018" lon="7.619070">
        <ele>286.164832</ele>
        <time>2021-11-13T16:41:24.290Z</time>
      </trkpt>
      <trkpt lat="47.516562" lon="7.619236">
        <ele>286.268375</ele>
        <time>2021-11-13T16:41:33.422Z</time>
      </trkpt>
      <trkpt lat="47.516384" lon="7.619306">
        <ele>286.308985</ele>
        <time>2021-11-13T16:41:37.455Z</time>
      </trkpt>
      <trkpt lat="47.516297" lon="7.619344">
        <ele>286.328986</ele>
        <time>2021-11-13T16:41:40.079Z</time>
      </trkpt>
      <trkpt lat="47.516078" lon="7.619459">
        <ele>286.380223</ele>
        <time>2021-11-13T16:41:46.074Z</time>
      </trkpt>
      <trkpt lat="47.515378" lon="7.619769">
        <ele>288.629707</ele>
        <time>2021-11-13T16:42:08.673Z</time>
      </trkpt>
      <trkpt lat="47.515167" lon="7.619885">
        <ele>289.585429</ele>
        <time>2021-11-13T16:42:16.095Z</time>
      </trkpt>
      <trkpt lat="47.515045" lon="7.619952">
        <ele>290.137956</ele>
        <time>2021-11-13T16:42:19.458Z</time>
      </trkpt>
      <trkpt lat="47.514972" lon="7.619996">
        <ele>290.472631</ele>
        <time>2021-11-13T16:42:22.138Z</time>
      </trkpt>
      <trkpt lat="47.514746" lon="7.620115">
        <ele>291.491157</ele>
        <time>2021-11-13T16:42:29.290Z</time>
      </trkpt>
      <trkpt lat="47.514570" lon="7.620207">
        <ele>292.283702</ele>
        <time>2021-11-13T16:42:35.652Z</time>
      </trkpt>
      <trkpt lat="47.514417" lon="7.620289">
        <ele>292.974628</ele>
        <time>2021-11-13T16:42:40.965Z</time>
      </trkpt>
      <trkpt lat="47.513993" lon="7.620506">
        <ele>294.951213</ele>
        <time>2021-11-13T16:42:56.623Z</time>
      </trkpt>
      <trkpt lat="47.513927" lon="7.620535">
        <ele>295.269242</ele>
        <time>2021-11-13T16:42:59.168Z</time>
      </trkpt>
      <trkpt lat="47.513861" lon="7.620554">
        <ele>295.579838</ele>
        <time>2021-11-13T16:43:02.213Z</time>
      </trkpt>
      <trkpt lat="47.513848" lon="7.620558">
        <ele>295.641174</ele>
        <time>2021-11-13T16:43:02.696Z</time>
      </trkpt>
      <trkpt lat="47.513713" lon="7.620598">
        <ele>296.277171</ele>
        <time>2021-11-13T16:43:07.074Z</time>
      </trkpt>
      <trkpt lat="47.513499" lon="7.620661">
        <ele>297.285094</ele>
        <time>2021-11-13T16:43:16.078Z</time>
      </trkpt>
      <trkpt lat="47.513422" lon="7.620681">
        <ele>297.646227</ele>
        <time>2021-11-13T16:43:18.556Z</time>
      </trkpt>
      <trkpt lat="47.513328" lon="7.620704">
        <ele>298.086349</ele>
        <time>2021-11-13T16:43:21.959Z</time>
      </trkpt>
      <trkpt lat="47.513204" lon="7.620721">
        <ele>298.661617</ele>
        <time>2021-11-13T16:43:26.466Z</time>
      </trkpt>
      <trkpt lat="47.513126" lon="7.620738">
        <ele>299.025820</ele>
        <time>2021-11-13T16:43:29.714Z</time>
      </trkpt>
      <trkpt lat="47.512974" lon="7.620771">
        <ele>299.735491</ele>
        <time>2021-11-13T16:43:34.241Z</time>
      </trkpt>
      <trkpt lat="47.512586" lon="7.620836">
        <ele>301.539291</ele>
        <time>2021-11-13T16:43:45.976Z</time>
      </trkpt>
      <trkpt lat="47.512484" lon="7.620846">
        <ele>302.011511</ele>
        <time>2021-11-13T16:43:49.171Z</time>
      </trkpt>
      <trkpt lat="47.512183" lon="7.620945">
        <ele>302.879625</ele>
        <time>2021-11-13T16:43:57.658Z</time>
      </trkpt>
      <trkpt lat="47.512137" lon="7.620969">
        <ele>302.986995</ele>
        <time>2021-11-13T16:43:59.195Z</time>
      </trkpt>
      <trkpt lat="47.512084" lon="7.620988">
        <ele>303.107043</ele>
        <time>2021-11-13T16:44:00.822Z</time>
      </trkpt>
      <trkpt lat="47.511978" lon="7.621014">
        <ele>303.343576</ele>
        <time>2021-11-13T16:44:03.296Z</time>
      </trkpt>
      <trkpt lat="47.511960" lon="7.621016">
        <ele>303.383313</ele>
        <time>2021-11-13T16:44:03.843Z</time>
      </trkpt>
      <trkpt lat="47.511800" lon="7.621034">
        <ele>303.736559</ele>
        <time>2021-11-13T16:44:07.801Z</time>
      </trkpt>
      <trkpt lat="47.511656" lon="7.621046">
        <ele>304.054067</ele>
        <time>2021-11-13T16:44:11.416Z</time>
      </trkpt>
      <trkpt lat="47.511541" lon="7.621047">
        <ele>304.307237</ele>
        <time>2021-11-13T16:44:13.844Z</time>
      </trkpt>
      <trkpt lat="47.511365" lon="7.621043">
        <ele>304.694735</ele>
        <time>2021-11-13T16:44:17.939Z</time>
      </trkpt>
      <trkpt lat="47.511298" lon="7.621034">
        <ele>304.842837</ele>
        <time>2021-11-13T16:44:19.296Z</time>
      </trkpt>
      <trkpt lat="47.511233" lon="7.621026">
        <ele>304.986424</ele>
        <time>2021-11-13T16:44:20.767Z</time>
      </trkpt>
      <trkpt lat="47.510934" lon="7.620963">
        <ele>305.651286</ele>
        <time>2021-11-13T16:44:27.135Z</time>
      </trkpt>
      <trkpt lat="47.510811" lon="7.620935">
        <ele>305.925245</ele>
        <time>2021-11-13T16:44:29.595Z</time>
      </trkpt>
      <trkpt lat="47.510466" lon="7.620854">
        <ele>306.495497</ele>
        <time>2021-11-13T16:44:36.660Z</time>
      </trkpt>
      <trkpt lat="47.510340" lon="7.620825">
        <ele>306.621856</ele>
        <time>2021-11-13T16:44:39.039Z</time>
      </trkpt>
      <trkpt lat="47.510287" lon="7.620804">
        <ele>306.676225</ele>
        <time>2021-11-13T16:44:40.068Z</time>
      </trkpt>
      <trkpt lat="47.509508" lon="7.620519">
        <ele>307.471399</ele>
        <time>2021-11-13T16:44:55.383Z</time>
      </trkpt>
      <trkpt lat="47.509079" lon="7.620306">
        <ele>307.919788</ele>
        <time>2021-11-13T16:45:03.851Z</time>
      </trkpt>
      <trkpt lat="47.509013" lon="7.620273">
        <ele>307.988820</ele>
        <time>2021-11-13T16:45:05.092Z</time>
      </trkpt>
      <trkpt lat="47.508663" lon="7.620098">
        <ele>308.026499</ele>
        <time>2021-11-13T16:45:11.461Z</time>
      </trkpt>
      <trkpt lat="47.507966" lon="7.619751">
        <ele>307.756952</ele>
        <time>2021-11-13T16:45:22.368Z</time>
      </trkpt>
      <trkpt lat="47.507606" lon="7.619563">
        <ele>307.617024</ele>
        <time>2021-11-13T16:45:27.004Z</time>
      </trkpt>
      <trkpt lat="47.507380" lon="7.619501">
        <ele>307.532772</ele>
        <time>2021-11-13T16:45:29.849Z</time>
      </trkpt>
      <trkpt lat="47.506979" lon="7.619510">
        <ele>307.379093</ele>
        <time>2021-11-13T16:45:34.508Z</time>
      </trkpt>
      <trkpt lat="47.506634" lon="7.619453">
        <ele>307.239731</ele>
        <time>2021-11-13T16:45:38.690Z</time>
      </trkpt>
      <trkpt lat="47.506542" lon="7.619438">
        <ele>307.202574</ele>
        <time>2021-11-13T16:45:39.700Z</time>
      </trkpt>
      <trkpt lat="47.506328" lon="7.619429">
        <ele>307.116629</ele>
        <time>2021-11-13T16:45:42.472Z</time>
      </trkpt>
      <trkpt lat="47.506241" lon="7.619425">
        <ele>307.081685</ele>
        <time>2021-11-13T16:45:43.438Z</time>
      </trkpt>
      <trkpt lat="47.505968" lon="7.619447">
        <ele>306.971926</ele>
        <time>2021-11-13T16:45:47.522Z</time>
      </trkpt>
      <trkpt lat="47.505759" lon="7.619472">
        <ele>306.887749</ele>
        <time>2021-11-13T16:45:50.344Z</time>
      </trkpt>
      <trkpt lat="47.505257" lon="7.619587">
        <ele>306.990544</ele>
        <time>2021-11-13T16:45:59.684Z</time>
      </trkpt>
      <trkpt lat="47.504951" lon="7.619637">
        <ele>307.625353</ele>
        <time>2021-11-13T16:46:05.501Z</time>
      </trkpt>
      <trkpt lat="47.504399" lon="7.619611">
        <ele>308.764160</ele>
        <time>2021-11-13T16:46:18.009Z</time>
      </trkpt>
      <trkpt lat="47.504266" lon="7.619606">
        <ele>309.038497</ele>
        <time>2021-11-13T16:46:21.355Z</time>
      </trkpt>
      <trkpt lat="47.503777" lon="7.619587">
        <ele>310.047169</ele>
        <time>2021-11-13T16:46:34.879Z</time>
      </trkpt>
      <trkpt lat="47.503702" lon="7.619579">
        <ele>310.202221</ele>
        <time>2021-11-13T16:46:36.689Z</time>
      </trkpt>
      <trkpt lat="47.503407" lon="7.619587">
        <ele>310.875926</ele>
        <time>2021-11-13T16:46:44.250Z</time>
      </trkpt>
      <trkpt lat="47.503407" lon="7.619587">
        <ele>310.875926</ele>
        <time>2021-11-13T16:46:44.851Z</time>
      </trkpt>
      <trkpt lat="47.503407" lon="7.619587">
        <ele>310.875926</ele>
        <time>2021-11-13T16:46:44.912Z</time>
      </trkpt>
      <trkpt lat="47.503061" lon="7.619602">
        <ele>311.716364</ele>
        <time>2021-11-13T16:46:54.001Z</time>
      </trkpt>
      <trkpt lat="47.502869" lon="7.619611">
        <ele>312.182768</ele>
        <time>2021-11-13T16:46:58.352Z</time>
      </trkpt>
      <trkpt lat="47.502748" lon="7.619618">
        <ele>312.476776</ele>
        <time>2021-11-13T16:47:01.646Z</time>
      </trkpt>
      <trkpt lat="47.502423" lon="7.619573">
        <ele>313.269312</ele>
        <time>2021-11-13T16:47:09.198Z</time>
      </trkpt>
      <trkpt lat="47.501858" lon="7.619248">
        <ele>314.741052</ele>
        <time>2021-11-13T16:47:22.731Z</time>
      </trkpt>
      <trkpt lat="47.501815" lon="7.619219">
        <ele>314.871258</ele>
        <time>2021-11-13T16:47:24.274Z</time>
      </trkpt>
      <trkpt lat="47.501728" lon="7.619173">
        <ele>315.170882</ele>
        <time>2021-11-13T16:47:26.664Z</time>
      </trkpt>
      <trkpt lat="47.501642" lon="7.619135">
        <ele>315.461964</ele>
        <time>2021-11-13T16:47:28.835Z</time>
      </trkpt>
      <trkpt lat="47.501258" lon="7.619029">
        <ele>316.728847</ele>
        <time>2021-11-13T16:47:38.924Z</time>
      </trkpt>
      <trkpt lat="47.501024" lon="7.619039">
        <ele>317.488086</ele>
        <time>2021-11-13T16:47:44.873Z</time>
      </trkpt>
      <trkpt lat="47.500324" lon="7.619214">
        <ele>319.790522</ele>
        <time>2021-11-13T16:48:05.874Z</time>
      </trkpt>
      <trkpt lat="47.499712" lon="7.619298">
        <ele>322.060359</ele>
        <time>2021-11-13T16:48:25.139Z</time>
      </trkpt>
      <trkpt lat="47.499629" lon="7.619296">
        <ele>322.394829</ele>
        <time>2021-11-13T16:48:27.652Z</time>
      </trkpt>
      <trkpt lat="47.499588" lon="7.619273">
        <ele>322.571493</ele>
        <time>2021-11-13T16:48:28.986Z</time>
      </trkpt>
      <trkpt lat="47.499552" lon="7.619300">
        <ele>322.734103</ele>
        <time>2021-11-13T16:48:31.042Z</time>
      </trkpt>
      <trkpt lat="47.499482" lon="7.619313">
        <ele>323.018359</ele>
        <time>2021-11-13T16:48:33.437Z</time>
      </trkpt>
      <trkpt lat="47.499079" lon="7.619349">
        <ele>324.645089</ele>
        <time>2021-11-13T16:48:47.997Z</time>
      </trkpt>
      <trkpt lat="47.498887" lon="7.619379">
        <ele>325.422998</ele>
        <time>2021-11-13T16:48:54.788Z</time>
      </trkpt>
      <trkpt lat="47.498443" lon="7.619450">
        <ele>327.222382</ele>
        <time>2021-11-13T16:49:11.528Z</time>
      </trkpt>
      <trkpt lat="47.498018" lon="7.619431">
        <ele>328.716847</ele>
        <time>2021-11-13T16:49:26.681Z</time>
      </trkpt>
      <trkpt lat="47.497861" lon="7.619439">
        <ele>329.217358</ele>
        <time>2021-11-13T16:49:32.220Z</time>
      </trkpt>
      <trkpt lat="47.497749" lon="7.619469">
        <ele>329.579996</ele>
        <time>2021-11-13T16:49:36.087Z</time>
      </trkpt>
      <trkpt lat="47.497635" lon="7.619528">
        <ele>329.964773</ele>
        <time>2021-11-13T16:49:40.247Z</time>
      </trkpt>
      <trkpt lat="47.497529" lon="7.619591">
        <ele>330.328708</ele>
        <time>2021-11-13T16:49:44.440Z</time>
      </trkpt>
      <trkpt lat="47.497427" lon="7.619683">
        <ele>330.709275</ele>
        <time>2021-11-13T16:49:48.514Z</time>
      </trkpt>
      <trkpt lat="47.497282" lon="7.619853">
        <ele>331.298631</ele>
        <time>2021-11-13T16:49:54.820Z</time>
      </trkpt>
      <trkpt lat="47.496981" lon="7.620187">
        <ele>332.497222</ele>
        <time>2021-11-13T16:50:06.883Z</time>
      </trkpt>
      <trkpt lat="47.496874" lon="7.620315">
        <ele>332.935559</ele>
        <time>2021-11-13T16:50:10.888Z</time>
      </trkpt>
      <trkpt lat="47.496715" lon="7.620506">
        <ele>333.587996</ele>
        <time>2021-11-13T16:50:16.858Z</time>
      </trkpt>
      <trkpt lat="47.496519" lon="7.620793">
        <ele>333.944970</ele>
        <time>2021-11-13T16:50:24.336Z</time>
      </trkpt>
      <trkpt lat="47.496439" lon="7.620890">
        <ele>334.071255</ele>
        <time>2021-11-13T16:50:27.395Z</time>
      </trkpt>
      <trkpt lat="47.496331" lon="7.621021">
        <ele>334.241765</ele>
        <time>2021-11-13T16:50:30.970Z</time>
      </trkpt>
      <trkpt lat="47.496219" lon="7.621150">
        <ele>334.415063</ele>
        <time>2021-11-13T16:50:34.638Z</time>
      </trkpt>
      <trkpt lat="47.496143" lon="7.621224">
        <ele>334.526149</ele>
        <time>2021-11-13T16:50:37.006Z</time>
      </trkpt>
      <trkpt lat="47.496025" lon="7.621316">
        <ele>334.689011</ele>
        <time>2021-11-13T16:50:40.251Z</time>
      </trkpt>
      <trkpt lat="47.495914" lon="7.621389">
        <ele>334.837334</ele>
        <time>2021-11-13T16:50:43.149Z</time>
      </trkpt>
      <trkpt lat="47.495847" lon="7.621416">
        <ele>334.922127</ele>
        <time>2021-11-13T16:50:44.787Z</time>
      </trkpt>
      <trkpt lat="47.495742" lon="7.621459">
        <ele>335.055162</ele>
        <time>2021-11-13T16:50:47.358Z</time>
      </trkpt>
      <trkpt lat="47.495742" lon="7.621459">
        <ele>335.055162</ele>
        <time>2021-11-13T16:50:47.407Z</time>
      </trkpt>
      <trkpt lat="47.495742" lon="7.621459">
        <ele>335.055162</ele>
        <time>2021-11-13T16:50:47.412Z</time>
      </trkpt>
      <trkpt lat="47.495602" lon="7.621476">
        <ele>335.226694</ele>
        <time>2021-11-13T16:50:50.597Z</time>
      </trkpt>
      <trkpt lat="47.495126" lon="7.621574">
        <ele>335.813543</ele>
        <time>2021-11-13T16:51:01.660Z</time>
      </trkpt>
      <trkpt lat="47.495010" lon="7.621539">
        <ele>335.971100</ele>
        <time>2021-11-13T16:51:04.193Z</time>
      </trkpt>
      <trkpt lat="47.494852" lon="7.621478">
        <ele>336.188889</ele>
        <time>2021-11-13T16:51:08.287Z</time>
      </trkpt>
      <trkpt lat="47.494819" lon="7.621452">
        <ele>336.238751</ele>
        <time>2021-11-13T16:51:09.122Z</time>
      </trkpt>
      <trkpt lat="47.494692" lon="7.621355">
        <ele>336.429366</ele>
        <time>2021-11-13T16:51:12.142Z</time>
      </trkpt>
      <trkpt lat="47.494315" lon="7.620971">
        <ele>337.039772</ele>
        <time>2021-11-13T16:51:22.596Z</time>
      </trkpt>
      <trkpt lat="47.494244" lon="7.621060">
        <ele>337.163871</ele>
        <time>2021-11-13T16:51:25.300Z</time>
      </trkpt>
      <trkpt lat="47.494161" lon="7.621164">
        <ele>337.308920</ele>
        <time>2021-11-13T16:51:27.876Z</time>
      </trkpt>
      <trkpt lat="47.494011" lon="7.621266">
        <ele>337.529093</ele>
        <time>2021-11-13T16:51:32.290Z</time>
      </trkpt>
      <trkpt lat="47.493709" lon="7.621322">
        <ele>337.935043</ele>
        <time>2021-11-13T16:51:40.578Z</time>
      </trkpt>
      <trkpt lat="47.493640" lon="7.621349">
        <ele>338.030236</ele>
        <time>2021-11-13T16:51:42.906Z</time>
      </trkpt>
      <trkpt lat="47.493550" lon="7.621473">
        <ele>338.194240</ele>
        <time>2021-11-13T16:51:46.680Z</time>
      </trkpt>
      <trkpt lat="47.493250" lon="7.622027">
        <ele>339.948090</ele>
        <time>2021-11-13T16:52:00.785Z</time>
      </trkpt>
      <trkpt lat="47.493141" lon="7.622177">
        <ele>340.504579</ele>
        <time>2021-11-13T16:52:05.783Z</time>
      </trkpt>
      <trkpt lat="47.492932" lon="7.622359">
        <ele>341.411230</ele>
        <time>2021-11-13T16:52:13.908Z</time>
      </trkpt>
      <trkpt lat="47.492791" lon="7.622733">
        <ele>342.493181</ele>
        <time>2021-11-13T16:52:23.725Z</time>
      </trkpt>
      <trkpt lat="47.492595" lon="7.623200">
        <ele>343.882026</ele>
        <time>2021-11-13T16:52:36.637Z</time>
      </trkpt>
      <trkpt lat="47.492552" lon="7.623386">
        <ele>344.378658</ele>
        <time>2021-11-13T16:52:44.226Z</time>
      </trkpt>
      <trkpt lat="47.492583" lon="7.623626">
        <ele>345.067787</ele>
        <time>2021-11-13T16:52:49.429Z</time>
      </trkpt>
      <trkpt lat="47.492671" lon="7.623981">
        <ele>347.274901</ele>
        <time>2021-11-13T16:53:02.018Z</time>
      </trkpt>
      <trkpt lat="47.492832" lon="7.624248">
        <ele>349.363672</ele>
        <time>2021-11-13T16:53:13.682Z</time>
      </trkpt>
      <trkpt lat="47.493362" lon="7.624708">
        <ele>354.671211</ele>
        <time>2021-11-13T16:53:40.387Z</time>
      </trkpt>
      <trkpt lat="47.493429" lon="7.624794">
        <ele>355.437331</ele>
        <time>2021-11-13T16:53:47.011Z</time>
      </trkpt>
      <trkpt lat="47.493442" lon="7.624819">
        <ele>355.621459</ele>
        <time>2021-11-13T16:53:49.420Z</time>
      </trkpt>
      <trkpt lat="47.493385" lon="7.625203">
        <ele>357.916214</ele>
        <time>2021-11-13T16:54:03.744Z</time>
      </trkpt>
      <trkpt lat="47.493370" lon="7.625234">
        <ele>358.138764</ele>
        <time>2021-11-13T16:54:06.208Z</time>
      </trkpt>
      <trkpt lat="47.493025" lon="7.625930">
        <ele>364.448881</ele>
        <time>2021-11-13T16:54:50.946Z</time>
      </trkpt>
      <trkpt lat="47.492753" lon="7.626506">
        <ele>370.483578</ele>
        <time>2021-11-13T16:55:26.969Z</time>
      </trkpt>
      <trkpt lat="47.492598" lon="7.626897">
        <ele>374.376535</ele>
        <time>2021-11-13T16:55:52.451Z</time>
      </trkpt>
      <trkpt lat="47.492519" lon="7.627211">
        <ele>377.253896</ele>
        <time>2021-11-13T16:56:07.068Z</time>
      </trkpt>
      <trkpt lat="47.492509" lon="7.627643">
        <ele>380.965907</ele>
        <time>2021-11-13T16:56:24.951Z</time>
      </trkpt>
      <trkpt lat="47.492535" lon="7.627845">
        <ele>382.731792</ele>
        <time>2021-11-13T16:56:36.587Z</time>
      </trkpt>
      <trkpt lat="47.492558" lon="7.627982">
        <ele>383.674499</ele>
        <time>2021-11-13T16:56:42.118Z</time>
      </trkpt>
      <trkpt lat="47.492633" lon="7.628596">
        <ele>386.648768</ele>
        <time>2021-11-13T16:57:06.865Z</time>
      </trkpt>
      <trkpt lat="47.492729" lon="7.629308">
        <ele>390.109652</ele>
        <time>2021-11-13T16:57:30.228Z</time>
      </trkpt>
      <trkpt lat="47.492750" lon="7.629836">
        <ele>392.630882</ele>
        <time>2021-11-13T16:57:43.640Z</time>
      </trkpt>
      <trkpt lat="47.492728" lon="7.630150">
        <ele>394.135685</ele>
        <time>2021-11-13T16:57:54.101Z</time>
      </trkpt>
      <trkpt lat="47.492666" lon="7.630289">
        <ele>394.929622</ele>
        <time>2021-11-13T16:57:57.778Z</time>
      </trkpt>
      <trkpt lat="47.492637" lon="7.630364">
        <ele>395.341534</ele>
        <time>2021-11-13T16:58:00.189Z</time>
      </trkpt>
      <trkpt lat="47.492589" lon="7.630489">
        <ele>396.026888</ele>
        <time>2021-11-13T16:58:04.044Z</time>
      </trkpt>
      <trkpt lat="47.492504" lon="7.630642">
        <ele>396.998921</ele>
        <time>2021-11-13T16:58:08.516Z</time>
      </trkpt>
      <trkpt lat="47.492431" lon="7.630780">
        <ele>397.859000</ele>
        <time>2021-11-13T16:58:12.911Z</time>
      </trkpt>
      <trkpt lat="47.492317" lon="7.630995">
        <ele>399.200181</ele>
        <time>2021-11-13T16:58:19.673Z</time>
      </trkpt>
      <trkpt lat="47.492129" lon="7.631294">
        <ele>401.204533</ele>
        <time>2021-11-13T16:58:29.811Z</time>
      </trkpt>
      <trkpt lat="47.492095" lon="7.631365">
        <ele>401.631595</ele>
        <time>2021-11-13T16:58:32.209Z</time>
      </trkpt>
      <trkpt lat="47.492091" lon="7.631507">
        <ele>402.329061</ele>
        <time>2021-11-13T16:58:34.971Z</time>
      </trkpt>
      <trkpt lat="47.492138" lon="7.631901">
        <ele>404.292503</ele>
        <time>2021-11-13T16:58:47.621Z</time>
      </trkpt>
      <trkpt lat="47.492209" lon="7.632198">
        <ele>405.838550</ele>
        <time>2021-11-13T16:58:57.324Z</time>
      </trkpt>
      <trkpt lat="47.492522" lon="7.633524">
        <ele>415.252881</ele>
        <time>2021-11-13T16:59:50.747Z</time>
      </trkpt>
      <trkpt lat="47.493013" lon="7.634943">
        <ele>428.494507</ele>
        <time>2021-11-13T17:01:02.565Z</time>
      </trkpt>
      <trkpt lat="47.493208" lon="7.635355">
        <ele>432.939194</ele>
        <time>2021-11-13T17:01:25.747Z</time>
      </trkpt>
      <trkpt lat="47.494030" lon="7.636493">
        <ele>449.281796</ele>
        <time>2021-11-13T17:02:48.894Z</time>
      </trkpt>
      <trkpt lat="47.494616" lon="7.638027">
        <ele>466.388051</ele>
        <time>2021-11-13T17:04:17.613Z</time>
      </trkpt>
      <trkpt lat="47.495154" lon="7.639734">
        <ele>484.072967</ele>
        <time>2021-11-13T17:05:48.671Z</time>
      </trkpt>
      <trkpt lat="47.495235" lon="7.640048">
        <ele>486.426192</ele>
        <time>2021-11-13T17:06:04.295Z</time>
      </trkpt>
      <trkpt lat="47.495352" lon="7.640661">
        <ele>490.886006</ele>
        <time>2021-11-13T17:06:29.917Z</time>
      </trkpt>
      <trkpt lat="47.495377" lon="7.640809">
        <ele>491.954104</ele>
        <time>2021-11-13T17:06:36.123Z</time>
      </trkpt>
      <trkpt lat="47.495536" lon="7.641841">
        <ele>499.364995</ele>
        <time>2021-11-13T17:07:14.207Z</time>
      </trkpt>
      <trkpt lat="47.495687" lon="7.642298">
        <ele>502.090100</ele>
        <time>2021-11-13T17:07:29.710Z</time>
      </trkpt>
      <trkpt lat="47.496129" lon="7.642958">
        <ele>504.620803</ele>
        <time>2021-11-13T17:07:51.299Z</time>
      </trkpt>
      <trkpt lat="47.496525" lon="7.644145">
        <ele>508.225913</ele>
        <time>2021-11-13T17:08:12.578Z</time>
      </trkpt>
      <trkpt lat="47.496589" lon="7.644201">
        <ele>508.525581</ele>
        <time>2021-11-13T17:08:13.934Z</time>
      </trkpt>
      <trkpt lat="47.497368" lon="7.644893">
        <ele>513.932948</ele>
        <time>2021-11-13T17:08:38.123Z</time>
      </trkpt>
      <trkpt lat="47.497705" lon="7.645397">
        <ele>516.861011</ele>
        <time>2021-11-13T17:08:57.340Z</time>
      </trkpt>
      <trkpt lat="47.497758" lon="7.645554">
        <ele>517.585730</ele>
        <time>2021-11-13T17:09:02.918Z</time>
      </trkpt>
      <trkpt lat="47.497745" lon="7.645708">
        <ele>518.226582</ele>
        <time>2021-11-13T17:09:08.393Z</time>
      </trkpt>
      <trkpt lat="47.497703" lon="7.645817">
        <ele>518.744728</ele>
        <time>2021-11-13T17:09:13.322Z</time>
      </trkpt>
      <trkpt lat="47.497662" lon="7.645912">
        <ele>519.210215</ele>
        <time>2021-11-13T17:09:18.031Z</time>
      </trkpt>
      <trkpt lat="47.497552" lon="7.646070">
        <ele>520.558764</ele>
        <time>2021-11-13T17:09:27.908Z</time>
      </trkpt>
      <trkpt lat="47.497184" lon="7.646598">
        <ele>527.410151</ele>
        <time>2021-11-13T17:10:01.563Z</time>
      </trkpt>
      <trkpt lat="47.497039" lon="7.646831">
        <ele>530.271219</ele>
        <time>2021-11-13T17:10:17.121Z</time>
      </trkpt>
      <trkpt lat="47.497014" lon="7.647054">
        <ele>532.312843</ele>
        <time>2021-11-13T17:10:27.757Z</time>
      </trkpt>
      <trkpt lat="47.497068" lon="7.647656">
        <ele>537.797679</ele>
        <time>2021-11-13T17:10:59.191Z</time>
      </trkpt>
      <trkpt lat="47.497010" lon="7.647884">
        <ele>539.998051</ele>
        <time>2021-11-13T17:11:12.552Z</time>
      </trkpt>
      <trkpt lat="47.496884" lon="7.647996">
        <ele>541.962823</ele>
        <time>2021-11-13T17:11:22.982Z</time>
      </trkpt>
      <trkpt lat="47.495983" lon="7.648341">
        <ele>551.310242</ele>
        <time>2021-11-13T17:12:23.514Z</time>
      </trkpt>
      <trkpt lat="47.495767" lon="7.648381">
        <ele>553.367681</ele>
        <time>2021-11-13T17:12:34.086Z</time>
      </trkpt>
      <trkpt lat="47.495680" lon="7.648377">
        <ele>554.190358</ele>
        <time>2021-11-13T17:12:38.794Z</time>
      </trkpt>
      <trkpt lat="47.494991" lon="7.648468">
        <ele>560.728311</ele>
        <time>2021-11-13T17:13:04.363Z</time>
      </trkpt>
      <trkpt lat="47.494687" lon="7.648581">
        <ele>562.822334</ele>
        <time>2021-11-13T17:13:15.983Z</time>
      </trkpt>
      <trkpt lat="47.494623" lon="7.648735">
        <ele>563.624654</ele>
        <time>2021-11-13T17:13:20.938Z</time>
      </trkpt>
      <trkpt lat="47.494554" lon="7.648897">
        <ele>564.474470</ele>
        <time>2021-11-13T17:13:26.090Z</time>
      </trkpt>
      <trkpt lat="47.494557" lon="7.648971">
        <ele>564.803447</ele>
        <time>2021-11-13T17:13:28.338Z</time>
      </trkpt>
      <trkpt lat="47.494583" lon="7.649621">
        <ele>567.692963</ele>
        <time>2021-11-13T17:13:46.807Z</time>
      </trkpt>
      <trkpt lat="47.494584" lon="7.650102">
        <ele>569.827478</ele>
        <time>2021-11-13T17:14:00.430Z</time>
      </trkpt>
      <trkpt lat="47.494570" lon="7.650358">
        <ele>570.967229</ele>
        <time>2021-11-13T17:14:07.599Z</time>
      </trkpt>
      <trkpt lat="47.494545" lon="7.650544">
        <ele>571.808803</ele>
        <time>2021-11-13T17:14:14.036Z</time>
      </trkpt>
      <trkpt lat="47.494429" lon="7.651155">
        <ele>574.663827</ele>
        <time>2021-11-13T17:14:32.511Z</time>
      </trkpt>
      <trkpt lat="47.494432" lon="7.651550">
        <ele>576.451212</ele>
        <time>2021-11-13T17:14:44.333Z</time>
      </trkpt>
      <trkpt lat="47.494627" lon="7.652792">
        <ele>582.220659</ele>
        <time>2021-11-13T17:15:21.365Z</time>
      </trkpt>
      <trkpt lat="47.494612" lon="7.652906">
        <ele>582.746168</ele>
        <time>2021-11-13T17:15:25.385Z</time>
      </trkpt>
      <trkpt lat="47.494507" lon="7.652980">
        <ele>583.524977</ele>
        <time>2021-11-13T17:15:30.445Z</time>
      </trkpt>
      <trkpt lat="47.494102" lon="7.652865">
        <ele>585.999073</ele>
        <time>2021-11-13T17:15:44.820Z</time>
      </trkpt>
      <trkpt lat="47.493903" lon="7.652871">
        <ele>587.090031</ele>
        <time>2021-11-13T17:15:50.821Z</time>
      </trkpt>
      <trkpt lat="47.493840" lon="7.652926">
        <ele>587.490937</ele>
        <time>2021-11-13T17:15:53.450Z</time>
      </trkpt>
      <trkpt lat="47.493765" lon="7.653083">
        <ele>588.203012</ele>
        <time>2021-11-13T17:15:57.354Z</time>
      </trkpt>
      <trkpt lat="47.493687" lon="7.653273">
        <ele>589.026354</ele>
        <time>2021-11-13T17:16:03.056Z</time>
      </trkpt>
      <trkpt lat="47.493555" lon="7.653642">
        <ele>590.572617</ele>
        <time>2021-11-13T17:16:12.179Z</time>
      </trkpt>
      <trkpt lat="47.493521" lon="7.653728">
        <ele>590.941625</ele>
        <time>2021-11-13T17:16:15.341Z</time>
      </trkpt>
      <trkpt lat="47.493088" lon="7.655195">
        <ele>597.368272</ele>
        <time>2021-11-13T17:16:59.071Z</time>
      </trkpt>
      <trkpt lat="47.492960" lon="7.655784">
        <ele>600.153768</ele>
        <time>2021-11-13T17:17:17.155Z</time>
      </trkpt>
      <trkpt lat="47.492898" lon="7.656011">
        <ele>601.256075</ele>
        <time>2021-11-13T17:17:24.446Z</time>
      </trkpt>
      <trkpt lat="47.492834" lon="7.656127">
        <ele>601.930301</ele>
        <time>2021-11-13T17:17:28.367Z</time>
      </trkpt>
      <trkpt lat="47.492655" lon="7.656259">
        <ele>603.262836</ele>
        <time>2021-11-13T17:17:36.692Z</time>
      </trkpt>
      <trkpt lat="47.492368" lon="7.656441">
        <ele>605.343275</ele>
        <time>2021-11-13T17:17:49.617Z</time>
      </trkpt>
      <trkpt lat="47.492098" lon="7.656633">
        <ele>607.155532</ele>
        <time>2021-11-13T17:18:02.306Z</time>
      </trkpt>
      <trkpt lat="47.491848" lon="7.656926">
        <ele>608.788697</ele>
        <time>2021-11-13T17:18:15.391Z</time>
      </trkpt>
      <trkpt lat="47.491315" lon="7.657218">
        <ele>611.699365</ele>
        <time>2021-11-13T17:18:36.175Z</time>
      </trkpt>
      <trkpt lat="47.490868" lon="7.657356">
        <ele>614.037861</ele>
        <time>2021-11-13T17:18:51.143Z</time>
      </trkpt>
      <trkpt lat="47.490989" lon="7.657577">
        <ele>615.022172</ele>
        <time>2021-11-13T17:18:57.202Z</time>
      </trkpt>
      <trkpt lat="47.491160" lon="7.657889">
        <ele>616.045270</ele>
        <time>2021-11-13T17:19:04.588Z</time>
      </trkpt>
      <trkpt lat="47.491290" lon="7.658126">
        <ele>616.510059</ele>
        <time>2021-11-13T17:19:10.710Z</time>
      </trkpt>
      <trkpt lat="47.491352" lon="7.658296">
        <ele>616.804197</ele>
        <time>2021-11-13T17:19:14.211Z</time>
      </trkpt>
      <trkpt lat="47.491366" lon="7.658534">
        <ele>617.167946</ele>
        <time>2021-11-13T17:19:18.685Z</time>
      </trkpt>
      <trkpt lat="47.491283" lon="7.659274">
        <ele>618.310085</ele>
        <time>2021-11-13T17:19:31.009Z</time>
      </trkpt>
      <trkpt lat="47.491148" lon="7.660578">
        <ele>619.588118</ele>
        <time>2021-11-13T17:19:48.712Z</time>
      </trkpt>
      <trkpt lat="47.491135" lon="7.660667">
        <ele>619.527715</ele>
        <time>2021-11-13T17:19:49.375Z</time>
      </trkpt>
      <trkpt lat="47.491038" lon="7.661369">
        <ele>619.052393</ele>
        <time>2021-11-13T17:19:56.651Z</time>
      </trkpt>
      <trkpt lat="47.491127" lon="7.662280">
        <ele>618.441780</ele>
        <time>2021-11-13T17:20:04.685Z</time>
      </trkpt>
      <trkpt lat="47.491078" lon="7.662652">
        <ele>618.190361</ele>
        <time>2021-11-13T17:20:07.477Z</time>
      </trkpt>
      <trkpt lat="47.490960" lon="7.662986">
        <ele>617.486957</ele>
        <time>2021-11-13T17:20:09.883Z</time>
      </trkpt>
      <trkpt lat="47.490710" lon="7.663509">
        <ele>615.203723</ele>
        <time>2021-11-13T17:20:13.997Z</time>
      </trkpt>
      <trkpt lat="47.490681" lon="7.663697">
        <ele>614.516450</ele>
        <time>2021-11-13T17:20:15.370Z</time>
      </trkpt>
      <trkpt lat="47.490690" lon="7.663753">
        <ele>614.311298</ele>
        <time>2021-11-13T17:20:16.540Z</time>
      </trkpt>
      <trkpt lat="47.490724" lon="7.663818">
        <ele>614.018336</ele>
        <time>2021-11-13T17:20:17.005Z</time>
      </trkpt>
      <trkpt lat="47.491023" lon="7.664258">
        <ele>611.794313</ele>
        <time>2021-11-13T17:20:20.826Z</time>
      </trkpt>
      <trkpt lat="47.491167" lon="7.664633">
        <ele>610.257076</ele>
        <time>2021-11-13T17:20:23.611Z</time>
      </trkpt>
      <trkpt lat="47.491209" lon="7.664759">
        <ele>609.756345</ele>
        <time>2021-11-13T17:20:24.420Z</time>
      </trkpt>
      <trkpt lat="47.491235" lon="7.664889">
        <ele>609.273159</ele>
        <time>2021-11-13T17:20:25.305Z</time>
      </trkpt>
      <trkpt lat="47.491257" lon="7.665065">
        <ele>608.635256</ele>
        <time>2021-11-13T17:20:27.149Z</time>
      </trkpt>
      <trkpt lat="47.491275" lon="7.665260">
        <ele>607.848028</ele>
        <time>2021-11-13T17:20:28.273Z</time>
      </trkpt>
      <trkpt lat="47.491290" lon="7.665444">
        <ele>607.096580</ele>
        <time>2021-11-13T17:20:29.437Z</time>
      </trkpt>
      <trkpt lat="47.491308" lon="7.665727">
        <ele>605.944069</ele>
        <time>2021-11-13T17:20:31.181Z</time>
      </trkpt>
      <trkpt lat="47.491307" lon="7.665780">
        <ele>605.729094</ele>
        <time>2021-11-13T17:20:31.482Z</time>
      </trkpt>
      <trkpt lat="47.491296" lon="7.665853">
        <ele>605.425841</ele>
        <time>2021-11-13T17:20:31.919Z</time>
      </trkpt>
      <trkpt lat="47.491273" lon="7.665952">
        <ele>605.001376</ele>
        <time>2021-11-13T17:20:32.578Z</time>
      </trkpt>
      <trkpt lat="47.491126" lon="7.666409">
        <ele>602.949201</ele>
        <time>2021-11-13T17:20:35.674Z</time>
      </trkpt>
      <trkpt lat="47.490942" lon="7.667164">
        <ele>599.694975</ele>
        <time>2021-11-13T17:20:40.686Z</time>
      </trkpt>
      <trkpt lat="47.490690" lon="7.668617">
        <ele>593.672229</ele>
        <time>2021-11-13T17:20:50.266Z</time>
      </trkpt>
      <trkpt lat="47.490666" lon="7.670201">
        <ele>587.340255</ele>
        <time>2021-11-13T17:20:59.937Z</time>
      </trkpt>
      <trkpt lat="47.490706" lon="7.670713">
        <ele>586.224312</ele>
        <time>2021-11-13T17:21:03.100Z</time>
      </trkpt>
      <trkpt lat="47.490770" lon="7.671048">
        <ele>585.544422</ele>
        <time>2021-11-13T17:21:05.311Z</time>
      </trkpt>
      <trkpt lat="47.491002" lon="7.671806">
        <ele>583.919296</ele>
        <time>2021-11-13T17:21:11.309Z</time>
      </trkpt>
      <trkpt lat="47.491257" lon="7.672549">
        <ele>582.291811</ele>
        <time>2021-11-13T17:21:18.421Z</time>
      </trkpt>
      <trkpt lat="47.491431" lon="7.672880">
        <ele>581.915951</ele>
        <time>2021-11-13T17:21:22.006Z</time>
      </trkpt>
      <trkpt lat="47.491487" lon="7.672963">
        <ele>581.909957</ele>
        <time>2021-11-13T17:21:23.152Z</time>
      </trkpt>
      <trkpt lat="47.492120" lon="7.673689">
        <ele>581.849398</ele>
        <time>2021-11-13T17:21:36.759Z</time>
      </trkpt>
      <trkpt lat="47.492397" lon="7.673977">
        <ele>581.823798</ele>
        <time>2021-11-13T17:21:43.281Z</time>
      </trkpt>
      <trkpt lat="47.492419" lon="7.674013">
        <ele>581.821318</ele>
        <time>2021-11-13T17:21:44.205Z</time>
      </trkpt>
      <trkpt lat="47.492419" lon="7.674013">
        <ele>581.821318</ele>
        <time>2021-11-13T17:21:44.209Z</time>
      </trkpt>
      <trkpt lat="47.492441" lon="7.674076">
        <ele>581.817695</ele>
        <time>2021-11-13T17:21:44.623Z</time>
      </trkpt>
      <trkpt lat="47.492431" lon="7.674567">
        <ele>581.792595</ele>
        <time>2021-11-13T17:21:51.746Z</time>
      </trkpt>
      <trkpt lat="47.492357" lon="7.674981">
        <ele>579.999175</ele>
        <time>2021-11-13T17:21:55.298Z</time>
      </trkpt>
      <trkpt lat="47.492252" lon="7.675376">
        <ele>578.158956</ele>
        <time>2021-11-13T17:21:57.971Z</time>
      </trkpt>
      <trkpt lat="47.492252" lon="7.675376">
        <ele>578.158956</ele>
        <time>2021-11-13T17:21:58.051Z</time>
      </trkpt>
      <trkpt lat="47.492252" lon="7.675376">
        <ele>578.158956</ele>
        <time>2021-11-13T17:21:58.509Z</time>
      </trkpt>
      <trkpt lat="47.492259" lon="7.675423">
        <ele>577.950303</ele>
        <time>2021-11-13T17:21:59.776Z</time>
      </trkpt>
      <trkpt lat="47.492364" lon="7.675466">
        <ele>577.251287</ele>
        <time>2021-11-13T17:22:00.767Z</time>
      </trkpt>
      <trkpt lat="47.492876" lon="7.675193">
        <ele>573.759497</ele>
        <time>2021-11-13T17:22:05.622Z</time>
      </trkpt>
      <trkpt lat="47.493934" lon="7.674840">
        <ele>562.546827</ele>
        <time>2021-11-13T17:22:14.915Z</time>
      </trkpt>
      <trkpt lat="47.494214" lon="7.674823">
        <ele>558.532110</ele>
        <time>2021-11-13T17:22:17.235Z</time>
      </trkpt>
      <trkpt lat="47.494287" lon="7.674903">
        <ele>557.230808</ele>
        <time>2021-11-13T17:22:18.004Z</time>
      </trkpt>
      <trkpt lat="47.494292" lon="7.674918">
        <ele>557.068904</ele>
        <time>2021-11-13T17:22:18.097Z</time>
      </trkpt>
      <trkpt lat="47.494344" lon="7.675092">
        <ele>555.227239</ele>
        <time>2021-11-13T17:22:19.171Z</time>
      </trkpt>
      <trkpt lat="47.494342" lon="7.675161">
        <ele>554.558725</ele>
        <time>2021-11-13T17:22:19.554Z</time>
      </trkpt>
      <trkpt lat="47.494342" lon="7.675161">
        <ele>554.558725</ele>
        <time>2021-11-13T17:22:19.726Z</time>
      </trkpt>
      <trkpt lat="47.494342" lon="7.675161">
        <ele>554.558725</ele>
        <time>2021-11-13T17:22:19.756Z</time>
      </trkpt>
      <trkpt lat="47.494328" lon="7.675230">
        <ele>553.861361</ele>
        <time>2021-11-13T17:22:20.155Z</time>
      </trkpt>
      <trkpt lat="47.494233" lon="7.675518">
        <ele>550.759122</ele>
        <time>2021-11-13T17:22:21.958Z</time>
      </trkpt>
      <trkpt lat="47.494229" lon="7.675736">
        <ele>548.648165</ele>
        <time>2021-11-13T17:22:23.166Z</time>
      </trkpt>
      <trkpt lat="47.494465" lon="7.676284">
        <ele>542.468043</ele>
        <time>2021-11-13T17:22:26.811Z</time>
      </trkpt>
      <trkpt lat="47.494529" lon="7.676434">
        <ele>540.839871</ele>
        <time>2021-11-13T17:22:27.797Z</time>
      </trkpt>
      <trkpt lat="47.494913" lon="7.677178">
        <ele>532.247356</ele>
        <time>2021-11-13T17:22:33.037Z</time>
      </trkpt>
      <trkpt lat="47.495197" lon="7.677947">
        <ele>524.204249</ele>
        <time>2021-11-13T17:22:38.057Z</time>
      </trkpt>
      <trkpt lat="47.495874" lon="7.678827">
        <ele>513.919269</ele>
        <time>2021-11-13T17:22:45.782Z</time>
      </trkpt>
      <trkpt lat="47.496153" lon="7.679066">
        <ele>510.598542</ele>
        <time>2021-11-13T17:22:48.545Z</time>
      </trkpt>
      <trkpt lat="47.496289" lon="7.679485">
        <ele>507.363258</ele>
        <time>2021-11-13T17:22:51.263Z</time>
      </trkpt>
      <trkpt lat="47.496525" lon="7.679952">
        <ele>503.304364</ele>
        <time>2021-11-13T17:22:54.632Z</time>
      </trkpt>
      <trkpt lat="47.496907" lon="7.680663">
        <ele>497.102851</ele>
        <time>2021-11-13T17:23:02.192Z</time>
      </trkpt>
      <trkpt lat="47.496916" lon="7.680688">
        <ele>496.910942</ele>
        <time>2021-11-13T17:23:02.359Z</time>
      </trkpt>
      <trkpt lat="47.496959" lon="7.680793">
        <ele>496.079132</ele>
        <time>2021-11-13T17:23:03.041Z</time>
      </trkpt>
      <trkpt lat="47.497186" lon="7.681839">
        <ele>488.636280</ele>
        <time>2021-11-13T17:23:09.388Z</time>
      </trkpt>
      <trkpt lat="47.497142" lon="7.682124">
        <ele>486.655747</ele>
        <time>2021-11-13T17:23:11.128Z</time>
      </trkpt>
      <trkpt lat="47.496983" lon="7.682567">
        <ele>483.300475</ele>
        <time>2021-11-13T17:23:14.061Z</time>
      </trkpt>
      <trkpt lat="47.497012" lon="7.682986">
        <ele>480.979245</ele>
        <time>2021-11-13T17:23:16.517Z</time>
      </trkpt>
      <trkpt lat="47.497149" lon="7.683668">
        <ele>477.058077</ele>
        <time>2021-11-13T17:23:20.804Z</time>
      </trkpt>
      <trkpt lat="47.497155" lon="7.683756">
        <ele>476.570640</ele>
        <time>2021-11-13T17:23:21.348Z</time>
      </trkpt>
      <trkpt lat="47.497128" lon="7.683933">
        <ele>475.570627</ele>
        <time>2021-11-13T17:23:22.459Z</time>
      </trkpt>
      <trkpt lat="47.497043" lon="7.684092">
        <ele>474.453238</ele>
        <time>2021-11-13T17:23:23.670Z</time>
      </trkpt>
      <trkpt lat="47.496620" lon="7.684549">
        <ele>470.181414</ele>
        <time>2021-11-13T17:23:28.295Z</time>
      </trkpt>
      <trkpt lat="47.496136" lon="7.684606">
        <ele>465.900406</ele>
        <time>2021-11-13T17:23:32.540Z</time>
      </trkpt>
      <trkpt lat="47.495883" lon="7.684734">
        <ele>463.450143</ele>
        <time>2021-11-13T17:23:34.929Z</time>
      </trkpt>
      <trkpt lat="47.495359" lon="7.684972">
        <ele>458.427063</ele>
        <time>2021-11-13T17:23:39.729Z</time>
      </trkpt>
      <trkpt lat="47.495085" lon="7.685344">
        <ele>455.019635</ele>
        <time>2021-11-13T17:23:44.252Z</time>
      </trkpt>
      <trkpt lat="47.494766" lon="7.685867">
        <ele>450.470802</ele>
        <time>2021-11-13T17:23:49.993Z</time>
      </trkpt>
      <trkpt lat="47.494620" lon="7.686242">
        <ele>447.493441</ele>
        <time>2021-11-13T17:23:53.529Z</time>
      </trkpt>
      <trkpt lat="47.494500" lon="7.686629">
        <ele>444.564191</ele>
        <time>2021-11-13T17:23:57.022Z</time>
      </trkpt>
      <trkpt lat="47.494444" lon="7.686783">
        <ele>443.361094</ele>
        <time>2021-11-13T17:23:58.425Z</time>
      </trkpt>
      <trkpt lat="47.493965" lon="7.687977">
        <ele>433.864258</ele>
        <time>2021-11-13T17:24:09.947Z</time>
      </trkpt>
      <trkpt lat="47.493869" lon="7.688820">
        <ele>429.529508</ele>
        <time>2021-11-13T17:24:17.027Z</time>
      </trkpt>
      <trkpt lat="47.493613" lon="7.689576">
        <ele>425.241701</ele>
        <time>2021-11-13T17:24:24.357Z</time>
      </trkpt>
      <trkpt lat="47.493607" lon="7.689802">
        <ele>424.094868</ele>
        <time>2021-11-13T17:24:26.334Z</time>
      </trkpt>
      <trkpt lat="47.493600" lon="7.690048">
        <ele>422.846403</ele>
        <time>2021-11-13T17:24:28.497Z</time>
      </trkpt>
      <trkpt lat="47.493631" lon="7.690200">
        <ele>422.041332</ele>
        <time>2021-11-13T17:24:29.892Z</time>
      </trkpt>
      <trkpt lat="47.493683" lon="7.690452">
        <ele>420.705290</ele>
        <time>2021-11-13T17:24:32.232Z</time>
      </trkpt>
      <trkpt lat="47.494025" lon="7.691490">
        <ele>417.068290</ele>
        <time>2021-11-13T17:24:42.747Z</time>
      </trkpt>
      <trkpt lat="47.494615" lon="7.692795">
        <ele>412.223200</ele>
        <time>2021-11-13T17:24:57.612Z</time>
      </trkpt>
      <trkpt lat="47.494792" lon="7.693234">
        <ele>410.701452</ele>
        <time>2021-11-13T17:25:02.560Z</time>
      </trkpt>
      <trkpt lat="47.494837" lon="7.693410">
        <ele>410.141299</ele>
        <time>2021-11-13T17:25:04.400Z</time>
      </trkpt>
      <trkpt lat="47.495048" lon="7.694079">
        <ele>407.943621</ele>
        <time>2021-11-13T17:25:11.532Z</time>
      </trkpt>
      <trkpt lat="47.495505" lon="7.695885">
        <ele>401.347819</ele>
        <time>2021-11-13T17:25:28.977Z</time>
      </trkpt>
      <trkpt lat="47.495631" lon="7.696342">
        <ele>399.301201</ele>
        <time>2021-11-13T17:25:33.364Z</time>
      </trkpt>
      <trkpt lat="47.495804" lon="7.696859">
        <ele>396.908997</ele>
        <time>2021-11-13T17:25:38.439Z</time>
      </trkpt>
      <trkpt lat="47.496154" lon="7.697633">
        <ele>393.040312</ele>
        <time>2021-11-13T17:25:46.538Z</time>
      </trkpt>
      <trkpt lat="47.496250" lon="7.697997">
        <ele>391.382064</ele>
        <time>2021-11-13T17:25:49.913Z</time>
      </trkpt>
      <trkpt lat="47.496334" lon="7.698787">
        <ele>387.988230</ele>
        <time>2021-11-13T17:25:56.864Z</time>
      </trkpt>
      <trkpt lat="47.496294" lon="7.699210">
        <ele>386.175623</ele>
        <time>2021-11-13T17:26:00.683Z</time>
      </trkpt>
      <trkpt lat="47.496222" lon="7.699560">
        <ele>384.622984</ele>
        <time>2021-11-13T17:26:03.956Z</time>
      </trkpt>
      <trkpt lat="47.496077" lon="7.699908">
        <ele>382.887899</ele>
        <time>2021-11-13T17:26:07.584Z</time>
      </trkpt>
      <trkpt lat="47.495661" lon="7.700465">
        <ele>380.052443</ele>
        <time>2021-11-13T17:26:14.981Z</time>
      </trkpt>
      <trkpt lat="47.495486" lon="7.700890">
        <ele>378.482647</ele>
        <time>2021-11-13T17:26:19.514Z</time>
      </trkpt>
      <trkpt lat="47.495292" lon="7.701199">
        <ele>377.152223</ele>
        <time>2021-11-13T17:26:23.414Z</time>
      </trkpt>
      <trkpt lat="47.495025" lon="7.701511">
        <ele>375.564160</ele>
        <time>2021-11-13T17:26:28.139Z</time>
      </trkpt>
      <trkpt lat="47.494812" lon="7.701920">
        <ele>373.935400</ele>
        <time>2021-11-13T17:26:33.098Z</time>
      </trkpt>
      <trkpt lat="47.494640" lon="7.702401">
        <ele>372.693112</ele>
        <time>2021-11-13T17:26:38.392Z</time>
      </trkpt>
      <trkpt lat="47.494222" lon="7.703982">
        <ele>369.115906</ele>
        <time>2021-11-13T17:26:55.216Z</time>
      </trkpt>
      <trkpt lat="47.493976" lon="7.704494">
        <ele>367.811163</ele>
        <time>2021-11-13T17:27:01.647Z</time>
      </trkpt>
      <trkpt lat="47.493648" lon="7.705186">
        <ele>366.167722</ele>
        <time>2021-11-13T17:27:10.180Z</time>
      </trkpt>
      <trkpt lat="47.492600" lon="7.707945">
        <ele>359.748813</ele>
        <time>2021-11-13T17:27:41.765Z</time>
      </trkpt>
      <trkpt lat="47.492308" lon="7.708870">
        <ele>357.578983</ele>
        <time>2021-11-13T17:27:51.782Z</time>
      </trkpt>
      <trkpt lat="47.492229" lon="7.709243">
        <ele>356.647321</ele>
        <time>2021-11-13T17:27:55.569Z</time>
      </trkpt>
      <trkpt lat="47.492162" lon="7.709557">
        <ele>355.793048</ele>
        <time>2021-11-13T17:27:58.810Z</time>
      </trkpt>
      <trkpt lat="47.492149" lon="7.709619">
        <ele>355.624632</ele>
        <time>2021-11-13T17:27:59.406Z</time>
      </trkpt>
      <trkpt lat="47.492099" lon="7.710117">
        <ele>354.318467</ele>
        <time>2021-11-13T17:28:04.288Z</time>
      </trkpt>
      <trkpt lat="47.491989" lon="7.711389">
        <ele>350.991549</ele>
        <time>2021-11-13T17:28:16.567Z</time>
      </trkpt>
      <trkpt lat="47.491849" lon="7.712800">
        <ele>346.560342</ele>
        <time>2021-11-13T17:28:29.681Z</time>
      </trkpt>
      <trkpt lat="47.491736" lon="7.713412">
        <ele>344.514182</ele>
        <time>2021-11-13T17:28:35.469Z</time>
      </trkpt>
      <trkpt lat="47.491697" lon="7.713947">
        <ele>342.778711</ele>
        <time>2021-11-13T17:28:40.367Z</time>
      </trkpt>
      <trkpt lat="47.491706" lon="7.714312">
        <ele>341.611229</ele>
        <time>2021-11-13T17:28:42.703Z</time>
      </trkpt>
      <trkpt lat="47.491733" lon="7.714864">
        <ele>339.990952</ele>
        <time>2021-11-13T17:28:46.281Z</time>
      </trkpt>
      <trkpt lat="47.491636" lon="7.715360">
        <ele>338.479254</ele>
        <time>2021-11-13T17:28:49.634Z</time>
      </trkpt>
      <trkpt lat="47.491513" lon="7.715837">
        <ele>336.984540</ele>
        <time>2021-11-13T17:28:52.930Z</time>
      </trkpt>
      <trkpt lat="47.491472" lon="7.716017">
        <ele>336.428429</ele>
        <time>2021-11-13T17:28:54.149Z</time>
      </trkpt>
      <trkpt lat="47.491306" lon="7.716757">
        <ele>334.145705</ele>
        <time>2021-11-13T17:28:59.304Z</time>
      </trkpt>
      <trkpt lat="47.491263" lon="7.716920">
        <ele>333.684877</ele>
        <time>2021-11-13T17:29:00.444Z</time>
      </trkpt>
      <trkpt lat="47.491157" lon="7.717265">
        <ele>332.773631</ele>
        <time>2021-11-13T17:29:03.026Z</time>
      </trkpt>
      <trkpt lat="47.491015" lon="7.717616">
        <ele>331.789985</ele>
        <time>2021-11-13T17:29:05.813Z</time>
      </trkpt>
      <trkpt lat="47.490797" lon="7.718126">
        <ele>330.338973</ele>
        <time>2021-11-13T17:29:09.975Z</time>
      </trkpt>
      <trkpt lat="47.490481" lon="7.719358">
        <ele>327.113748</ele>
        <time>2021-11-13T17:29:18.803Z</time>
      </trkpt>
      <trkpt lat="47.490473" lon="7.719772">
        <ele>325.956752</ele>
        <time>2021-11-13T17:29:21.549Z</time>
      </trkpt>
      <trkpt lat="47.490529" lon="7.720667">
        <ele>323.445845</ele>
        <time>2021-11-13T17:29:27.497Z</time>
      </trkpt>
      <trkpt lat="47.490567" lon="7.720806">
        <ele>323.026968</ele>
        <time>2021-11-13T17:29:28.445Z</time>
      </trkpt>
      <trkpt lat="47.490835" lon="7.721711">
        <ele>320.266703</ele>
        <time>2021-11-13T17:29:34.887Z</time>
      </trkpt>
      <trkpt lat="47.490881" lon="7.721901">
        <ele>319.675719</ele>
        <time>2021-11-13T17:29:36.170Z</time>
      </trkpt>
      <trkpt lat="47.490927" lon="7.722082">
        <ele>319.097109</ele>
        <time>2021-11-13T17:29:37.492Z</time>
      </trkpt>
      <trkpt lat="47.490944" lon="7.722136">
        <ele>318.918860</ele>
        <time>2021-11-13T17:29:37.876Z</time>
      </trkpt>
      <trkpt lat="47.491055" lon="7.722482">
        <ele>317.772837</ele>
        <time>2021-11-13T17:29:40.340Z</time>
      </trkpt>
      <trkpt lat="47.491113" lon="7.722665">
        <ele>317.168043</ele>
        <time>2021-11-13T17:29:41.667Z</time>
      </trkpt>
      <trkpt lat="47.491148" lon="7.722916">
        <ele>316.401203</ele>
        <time>2021-11-13T17:29:43.295Z</time>
      </trkpt>
      <trkpt lat="47.491616" lon="7.724299">
        <ele>311.893706</ele>
        <time>2021-11-13T17:29:53.302Z</time>
      </trkpt>
      <trkpt lat="47.491661" lon="7.724441">
        <ele>311.587193</ele>
        <time>2021-11-13T17:29:54.306Z</time>
      </trkpt>
      <trkpt lat="47.491736" lon="7.724677">
        <ele>311.077519</ele>
        <time>2021-11-13T17:29:56.070Z</time>
      </trkpt>
      <trkpt lat="47.491806" lon="7.724918">
        <ele>310.564867</ele>
        <time>2021-11-13T17:29:57.832Z</time>
      </trkpt>
      <trkpt lat="47.491834" lon="7.725016">
        <ele>310.356930</ele>
        <time>2021-11-13T17:29:58.550Z</time>
      </trkpt>
      <trkpt lat="47.491815" lon="7.725034">
        <ele>310.291683</ele>
        <time>2021-11-13T17:29:58.796Z</time>
      </trkpt>
      <trkpt lat="47.491785" lon="7.725084">
        <ele>310.161005</ele>
        <time>2021-11-13T17:29:59.330Z</time>
      </trkpt>
      <trkpt lat="47.491776" lon="7.725115">
        <ele>310.095067</ele>
        <time>2021-11-13T17:29:59.579Z</time>
      </trkpt>
      <trkpt lat="47.491771" lon="7.725150">
        <ele>310.025156</ele>
        <time>2021-11-13T17:29:59.831Z</time>
      </trkpt>
      <trkpt lat="47.491788" lon="7.725254">
        <ele>309.816048</ele>
        <time>2021-11-13T17:30:00.648Z</time>
      </trkpt>
      <trkpt lat="47.491803" lon="7.725283">
        <ele>309.744675</ele>
        <time>2021-11-13T17:30:00.880Z</time>
      </trkpt>
      <trkpt lat="47.491822" lon="7.725306">
        <ele>309.673681</ele>
        <time>2021-11-13T17:30:01.113Z</time>
      </trkpt>
      <trkpt lat="47.491891" lon="7.725334">
        <ele>309.466750</ele>
        <time>2021-11-13T17:30:01.847Z</time>
      </trkpt>
      <trkpt lat="47.491915" lon="7.725328">
        <ele>309.396353</ele>
        <time>2021-11-13T17:30:02.078Z</time>
      </trkpt>
      <trkpt lat="47.491939" lon="7.725313">
        <ele>309.321003</ele>
        <time>2021-11-13T17:30:02.342Z</time>
      </trkpt>
      <trkpt lat="47.491961" lon="7.725291">
        <ele>309.244210</ele>
        <time>2021-11-13T17:30:02.621Z</time>
      </trkpt>
      <trkpt lat="47.491978" lon="7.725262">
        <ele>309.169181</ele>
        <time>2021-11-13T17:30:02.917Z</time>
      </trkpt>
      <trkpt lat="47.491989" lon="7.725231">
        <ele>309.100753</ele>
        <time>2021-11-13T17:30:03.219Z</time>
      </trkpt>
      <trkpt lat="47.491996" lon="7.725198">
        <ele>309.033159</ele>
        <time>2021-11-13T17:30:03.470Z</time>
      </trkpt>
      <trkpt lat="47.491998" lon="7.725163">
        <ele>308.964515</ele>
        <time>2021-11-13T17:30:03.731Z</time>
      </trkpt>
      <trkpt lat="47.492086" lon="7.725087">
        <ele>308.669831</ele>
        <time>2021-11-13T17:30:04.789Z</time>
      </trkpt>
      <trkpt lat="47.492200" lon="7.725003">
        <ele>308.301510</ele>
        <time>2021-11-13T17:30:06.048Z</time>
      </trkpt>
      <trkpt lat="47.492533" lon="7.724869">
        <ele>307.303427</ele>
        <time>2021-11-13T17:30:09.703Z</time>
      </trkpt>
      <trkpt lat="47.492679" lon="7.724813">
        <ele>306.926748</ele>
        <time>2021-11-13T17:30:11.424Z</time>
      </trkpt>
      <trkpt lat="47.492858" lon="7.724732">
        <ele>307.014425</ele>
        <time>2021-11-13T17:30:13.624Z</time>
      </trkpt>
      <trkpt lat="47.492952" lon="7.724675">
        <ele>307.062009</ele>
        <time>2021-11-13T17:30:14.797Z</time>
      </trkpt>
      <trkpt lat="47.493160" lon="7.724550">
        <ele>307.167165</ele>
        <time>2021-11-13T17:30:17.881Z</time>
      </trkpt>
      <trkpt lat="47.493271" lon="7.724493">
        <ele>307.222199</ele>
        <time>2021-11-13T17:30:19.636Z</time>
      </trkpt>
      <trkpt lat="47.493492" lon="7.724383">
        <ele>307.331416</ele>
        <time>2021-11-13T17:30:24.090Z</time>
      </trkpt>
      <trkpt lat="47.493620" lon="7.724323">
        <ele>307.394308</ele>
        <time>2021-11-13T17:30:26.715Z</time>
      </trkpt>
      <trkpt lat="47.493698" lon="7.724293">
        <ele>307.432058</ele>
        <time>2021-11-13T17:30:28.557Z</time>
      </trkpt>
      <trkpt lat="47.493945" lon="7.724198">
        <ele>307.551599</ele>
        <time>2021-11-13T17:30:33.505Z</time>
      </trkpt>
      <trkpt lat="47.494130" lon="7.724127">
        <ele>307.641122</ele>
        <time>2021-11-13T17:30:37.678Z</time>
      </trkpt>
      <trkpt lat="47.494301" lon="7.724060">
        <ele>307.723980</ele>
        <time>2021-11-13T17:30:41.334Z</time>
      </trkpt>
      <trkpt lat="47.494609" lon="7.723957">
        <ele>308.195808</ele>
        <time>2021-11-13T17:30:48.118Z</time>
      </trkpt>
      <trkpt lat="47.494619" lon="7.723781">
        <ele>308.414932</ele>
        <time>2021-11-13T17:30:51.290Z</time>
      </trkpt>
      <trkpt lat="47.494681" lon="7.723583">
        <ele>308.685677</ele>
        <time>2021-11-13T17:30:54.475Z</time>
      </trkpt>
      <trkpt lat="47.494828" lon="7.723217">
        <ele>309.213920</ele>
        <time>2021-11-13T17:31:01.646Z</time>
      </trkpt>
      <trkpt lat="47.494900" lon="7.723018">
        <ele>309.493976</ele>
        <time>2021-11-13T17:31:05.044Z</time>
      </trkpt>
      <trkpt lat="47.495028" lon="7.722751">
        <ele>309.900137</ele>
        <time>2021-11-13T17:31:10.637Z</time>
      </trkpt>
      <trkpt lat="47.495139" lon="7.722633">
        <ele>310.151081</ele>
        <time>2021-11-13T17:31:13.472Z</time>
      </trkpt>
      <trkpt lat="47.495344" lon="7.722481">
        <ele>310.572095</ele>
        <time>2021-11-13T17:31:18.800Z</time>
      </trkpt>
      <trkpt lat="47.495778" lon="7.722226">
        <ele>311.135693</ele>
        <time>2021-11-13T17:31:28.021Z</time>
      </trkpt>
      <trkpt lat="47.495949" lon="7.722125">
        <ele>311.202290</ele>
        <time>2021-11-13T17:31:31.453Z</time>
      </trkpt>
      <trkpt lat="47.496600" lon="7.721528">
        <ele>311.479303</ele>
        <time>2021-11-13T17:31:43.268Z</time>
      </trkpt>
      <trkpt lat="47.496711" lon="7.721431">
        <ele>311.525929</ele>
        <time>2021-11-13T17:31:45.110Z</time>
      </trkpt>
      <trkpt lat="47.497096" lon="7.721134">
        <ele>311.682970</ele>
        <time>2021-11-13T17:31:51.406Z</time>
      </trkpt>
      <trkpt lat="47.497360" lon="7.720894">
        <ele>311.693307</ele>
        <time>2021-11-13T17:31:55.804Z</time>
      </trkpt>
      <trkpt lat="47.498011" lon="7.720304">
        <ele>311.621882</ele>
        <time>2021-11-13T17:32:06.872Z</time>
      </trkpt>
      <trkpt lat="47.498324" lon="7.720041">
        <ele>311.588205</ele>
        <time>2021-11-13T17:32:12.313Z</time>
      </trkpt>
      <trkpt lat="47.498470" lon="7.719926">
        <ele>311.572730</ele>
        <time>2021-11-13T17:32:14.774Z</time>
      </trkpt>
      <trkpt lat="47.498634" lon="7.719796">
        <ele>311.555323</ele>
        <time>2021-11-13T17:32:17.619Z</time>
      </trkpt>
      <trkpt lat="47.498930" lon="7.719621">
        <ele>311.422863</ele>
        <time>2021-11-13T17:32:22.056Z</time>
      </trkpt>
      <trkpt lat="47.499164" lon="7.719542">
        <ele>311.287524</ele>
        <time>2021-11-13T17:32:25.224Z</time>
      </trkpt>
      <trkpt lat="47.499435" lon="7.719500">
        <ele>311.133874</ele>
        <time>2021-11-13T17:32:28.763Z</time>
      </trkpt>
      <trkpt lat="47.499674" lon="7.719462">
        <ele>310.998329</ele>
        <time>2021-11-13T17:32:31.907Z</time>
      </trkpt>
      <trkpt lat="47.499921" lon="7.719450">
        <ele>310.858973</ele>
        <time>2021-11-13T17:32:35.112Z</time>
      </trkpt>
      <trkpt lat="47.500043" lon="7.719444">
        <ele>310.790140</ele>
        <time>2021-11-13T17:32:36.836Z</time>
      </trkpt>
      <trkpt lat="47.500077" lon="7.719446">
        <ele>310.770953</ele>
        <time>2021-11-13T17:32:37.262Z</time>
      </trkpt>
      <trkpt lat="47.500460" lon="7.719466">
        <ele>310.554848</ele>
        <time>2021-11-13T17:32:42.293Z</time>
      </trkpt>
      <trkpt lat="47.500997" lon="7.719436">
        <ele>309.567073</ele>
        <time>2021-11-13T17:32:48.732Z</time>
      </trkpt>
      <trkpt lat="47.501066" lon="7.720136">
        <ele>308.638199</ele>
        <time>2021-11-13T17:32:54.204Z</time>
      </trkpt>
      <trkpt lat="47.501183" lon="7.720763">
        <ele>307.784083</ele>
        <time>2021-11-13T17:33:00.953Z</time>
      </trkpt>
      <trkpt lat="47.501369" lon="7.720733">
        <ele>307.420432</ele>
        <time>2021-11-13T17:33:02.845Z</time>
      </trkpt>
      <trkpt lat="47.501475" lon="7.720701">
        <ele>307.210168</ele>
        <time>2021-11-13T17:33:03.975Z</time>
      </trkpt>
      <trkpt lat="47.501487" lon="7.720740">
        <ele>307.153897</ele>
        <time>2021-11-13T17:33:04.273Z</time>
      </trkpt>
      <trkpt lat="47.501590" lon="7.720794">
        <ele>306.838674</ele>
        <time>2021-11-13T17:33:05.426Z</time>
      </trkpt>
      <trkpt lat="47.501616" lon="7.720776">
        <ele>306.722039</ele>
        <time>2021-11-13T17:33:05.721Z</time>
      </trkpt>
      <trkpt lat="47.501635" lon="7.720835">
        <ele>306.542614</ele>
        <time>2021-11-13T17:33:06.120Z</time>
      </trkpt>
      <trkpt lat="47.501658" lon="7.720911">
        <ele>306.314004</ele>
        <time>2021-11-13T17:33:06.712Z</time>
      </trkpt>
      <trkpt lat="47.501816" lon="7.721777">
        <ele>303.851525</ele>
        <time>2021-11-13T17:33:12.791Z</time>
      </trkpt>
      <trkpt lat="47.501908" lon="7.722222">
        <ele>302.574008</ele>
        <time>2021-11-13T17:33:15.790Z</time>
      </trkpt>
      <trkpt lat="47.501978" lon="7.722527">
        <ele>301.689739</ele>
        <time>2021-11-13T17:33:17.818Z</time>
      </trkpt>
      <trkpt lat="47.502028" lon="7.722740">
        <ele>301.070729</ele>
        <time>2021-11-13T17:33:19.279Z</time>
      </trkpt>
      <trkpt lat="47.502046" lon="7.722829">
        <ele>300.815697</ele>
        <time>2021-11-13T17:33:19.861Z</time>
      </trkpt>
      <trkpt lat="47.502072" lon="7.722973">
        <ele>300.406522</ele>
        <time>2021-11-13T17:33:20.796Z</time>
      </trkpt>
      <trkpt lat="47.502112" lon="7.723201">
        <ele>299.759868</ele>
        <time>2021-11-13T17:33:22.317Z</time>
      </trkpt>
      <trkpt lat="47.502133" lon="7.723553">
        <ele>299.348042</ele>
        <time>2021-11-13T17:33:24.614Z</time>
      </trkpt>
      <trkpt lat="47.502126" lon="7.723727">
        <ele>299.154542</ele>
        <time>2021-11-13T17:33:25.754Z</time>
      </trkpt>
      <trkpt lat="47.502105" lon="7.724063">
        <ele>298.779953</ele>
        <time>2021-11-13T17:33:27.978Z</time>
      </trkpt>
      <trkpt lat="47.502074" lon="7.724375">
        <ele>298.429874</ele>
        <time>2021-11-13T17:33:30.193Z</time>
      </trkpt>
      <trkpt lat="47.502069" lon="7.724437">
        <ele>298.360559</ele>
        <time>2021-11-13T17:33:30.657Z</time>
      </trkpt>
      <trkpt lat="47.502067" lon="7.724454">
        <ele>298.341403</ele>
        <time>2021-11-13T17:33:30.765Z</time>
      </trkpt>
      <trkpt lat="47.502055" lon="7.724669">
        <ele>298.101916</ele>
        <time>2021-11-13T17:33:32.460Z</time>
      </trkpt>
      <trkpt lat="47.502040" lon="7.724902">
        <ele>297.842090</ele>
        <time>2021-11-13T17:33:34.608Z</time>
      </trkpt>
      <trkpt lat="47.502029" lon="7.725074">
        <ele>297.650297</ele>
        <time>2021-11-13T17:33:36.099Z</time>
      </trkpt>
      <trkpt lat="47.502031" lon="7.725298">
        <ele>297.401611</ele>
        <time>2021-11-13T17:33:38.262Z</time>
      </trkpt>
      <trkpt lat="47.502031" lon="7.725427">
        <ele>297.258408</ele>
        <time>2021-11-13T17:33:39.669Z</time>
      </trkpt>
      <trkpt lat="47.502048" lon="7.725782">
        <ele>296.863330</ele>
        <time>2021-11-13T17:33:43.713Z</time>
      </trkpt>
      <trkpt lat="47.502115" lon="7.726246">
        <ele>298.106481</ele>
        <time>2021-11-13T17:33:50.621Z</time>
      </trkpt>
      <trkpt lat="47.502122" lon="7.726303">
        <ele>298.303924</ele>
        <time>2021-11-13T17:33:51.710Z</time>
      </trkpt>
      <trkpt lat="47.502177" lon="7.726706">
        <ele>299.705116</ele>
        <time>2021-11-13T17:33:59.701Z</time>
      </trkpt>
      <trkpt lat="47.502189" lon="7.726824">
        <ele>300.111797</ele>
        <time>2021-11-13T17:34:02.290Z</time>
      </trkpt>
      <trkpt lat="47.502204" lon="7.726964">
        <ele>300.594887</ele>
        <time>2021-11-13T17:34:05.754Z</time>
      </trkpt>
      <trkpt lat="47.502370" lon="7.726942">
        <ele>301.435668</ele>
        <time>2021-11-13T17:34:11.754Z</time>
      </trkpt>
      <trkpt lat="47.502487" lon="7.726941">
        <ele>302.025916</ele>
        <time>2021-11-13T17:34:16.115Z</time>
      </trkpt>
      <trkpt lat="47.502557" lon="7.726941">
        <ele>302.379049</ele>
        <time>2021-11-13T17:34:18.951Z</time>
      </trkpt>
      <trkpt lat="47.502785" lon="7.727007">
        <ele>303.551042</ele>
        <time>2021-11-13T17:34:28.319Z</time>
      </trkpt>
      <trkpt lat="47.502897" lon="7.727052">
        <ele>304.136499</ele>
        <time>2021-11-13T17:34:33.568Z</time>
      </trkpt>
      <trkpt lat="47.503012" lon="7.727124">
        <ele>304.766405</ele>
        <time>2021-11-13T17:34:39.187Z</time>
      </trkpt>
      <trkpt lat="47.503612" lon="7.727532">
        <ele>309.728956</ele>
        <time>2021-11-13T17:35:10.548Z</time>
      </trkpt>
      <trkpt lat="47.504330" lon="7.727938">
        <ele>316.415390</ele>
        <time>2021-11-13T17:35:49.165Z</time>
      </trkpt>
      <trkpt lat="47.504693" lon="7.728164">
        <ele>319.841235</ele>
        <time>2021-11-13T17:36:11.710Z</time>
      </trkpt>
      <trkpt lat="47.504938" lon="7.728329">
        <ele>322.096573</ele>
        <time>2021-11-13T17:36:24.008Z</time>
      </trkpt>
      <trkpt lat="47.504979" lon="7.728357">
        <ele>322.440306</ele>
        <time>2021-11-13T17:36:26.422Z</time>
      </trkpt>
      <trkpt lat="47.505256" lon="7.728654">
        <ele>325.044036</ele>
        <time>2021-11-13T17:36:42.690Z</time>
      </trkpt>
      <trkpt lat="47.505279" lon="7.728682">
        <ele>325.270731</ele>
        <time>2021-11-13T17:36:44.177Z</time>
      </trkpt>
      <trkpt lat="47.505304" lon="7.728712">
        <ele>325.515724</ele>
        <time>2021-11-13T17:36:47.066Z</time>
      </trkpt>
      <trkpt lat="47.505472" lon="7.729028">
        <ele>327.583670</ele>
        <time>2021-11-13T17:36:57.381Z</time>
      </trkpt>
      <trkpt lat="47.505554" lon="7.729431">
        <ele>329.748073</ele>
        <time>2021-11-13T17:37:09.191Z</time>
      </trkpt>
      <trkpt lat="47.505566" lon="7.729659">
        <ele>330.924117</ele>
        <time>2021-11-13T17:37:16.686Z</time>
      </trkpt>
      <trkpt lat="47.505576" lon="7.729777">
        <ele>331.535688</ele>
        <time>2021-11-13T17:37:19.465Z</time>
      </trkpt>
      <trkpt lat="47.505600" lon="7.729862">
        <ele>332.009448</ele>
        <time>2021-11-13T17:37:21.299Z</time>
      </trkpt>
      <trkpt lat="47.505610" lon="7.729883">
        <ele>332.141575</ele>
        <time>2021-11-13T17:37:22.164Z</time>
      </trkpt>
      <trkpt lat="47.505698" lon="7.729940">
        <ele>332.872812</ele>
        <time>2021-11-13T17:37:25.692Z</time>
      </trkpt>
      <trkpt lat="47.505786" lon="7.729995">
        <ele>333.599986</ele>
        <time>2021-11-13T17:37:30.745Z</time>
      </trkpt>
      <trkpt lat="47.505964" lon="7.730090">
        <ele>335.040418</ele>
        <time>2021-11-13T17:37:38.702Z</time>
      </trkpt>
      <trkpt lat="47.506098" lon="7.730161">
        <ele>336.340512</ele>
        <time>2021-11-13T17:37:45.467Z</time>
      </trkpt>
      <trkpt lat="47.506125" lon="7.730171">
        <ele>336.601272</ele>
        <time>2021-11-13T17:37:47.406Z</time>
      </trkpt>
      <trkpt lat="47.506263" lon="7.730221">
        <ele>337.932356</ele>
        <time>2021-11-13T17:37:53.511Z</time>
      </trkpt>
      <trkpt lat="47.506380" lon="7.730243">
        <ele>339.037337</ele>
        <time>2021-11-13T17:37:59.086Z</time>
      </trkpt>
      <trkpt lat="47.506471" lon="7.730276">
        <ele>339.915124</ele>
        <time>2021-11-13T17:38:04.058Z</time>
      </trkpt>
      <trkpt lat="47.506756" lon="7.730348">
        <ele>342.623892</ele>
        <time>2021-11-13T17:38:18.095Z</time>
      </trkpt>
      <trkpt lat="47.506937" lon="7.730311">
        <ele>344.335773</ele>
        <time>2021-11-13T17:38:27.700Z</time>
      </trkpt>
      <trkpt lat="47.507701" lon="7.730399">
        <ele>351.515325</ele>
        <time>2021-11-13T17:39:10.022Z</time>
      </trkpt>
      <trkpt lat="47.507939" lon="7.730423">
        <ele>354.160453</ele>
        <time>2021-11-13T17:39:24.949Z</time>
      </trkpt>
      <trkpt lat="47.508551" lon="7.730458">
        <ele>361.271718</ele>
        <time>2021-11-13T17:40:03.605Z</time>
      </trkpt>
      <trkpt lat="47.508949" lon="7.730515">
        <ele>365.914490</ele>
        <time>2021-11-13T17:40:28.888Z</time>
      </trkpt>
      <trkpt lat="47.509109" lon="7.730536">
        <ele>367.779546</ele>
        <time>2021-11-13T17:40:40.242Z</time>
      </trkpt>
      <trkpt lat="47.509299" lon="7.730556">
        <ele>369.991215</ele>
        <time>2021-11-13T17:40:51.434Z</time>
      </trkpt>
      <trkpt lat="47.509971" lon="7.730436">
        <ele>377.163555</ele>
        <time>2021-11-13T17:41:31.065Z</time>
      </trkpt>
      <trkpt lat="47.510248" lon="7.730401">
        <ele>379.941776</ele>
        <time>2021-11-13T17:41:46.194Z</time>
      </trkpt>
      <trkpt lat="47.510439" lon="7.730517">
        <ele>382.004868</ele>
        <time>2021-11-13T17:41:56.127Z</time>
      </trkpt>
      <trkpt lat="47.510529" lon="7.730600">
        <ele>383.064495</ele>
        <time>2021-11-13T17:42:03.068Z</time>
      </trkpt>
      <trkpt lat="47.510582" lon="7.730653">
        <ele>383.703645</ele>
        <time>2021-11-13T17:42:06.722Z</time>
      </trkpt>
      <trkpt lat="47.510894" lon="7.730938">
        <ele>387.367291</ele>
        <time>2021-11-13T17:42:25.014Z</time>
      </trkpt>
      <trkpt lat="47.511169" lon="7.731160">
        <ele>390.497457</ele>
        <time>2021-11-13T17:42:40.770Z</time>
      </trkpt>
      <trkpt lat="47.511556" lon="7.731396">
        <ele>394.084239</ele>
        <time>2021-11-13T17:43:04.624Z</time>
      </trkpt>
      <trkpt lat="47.511744" lon="7.731418">
        <ele>395.672159</ele>
        <time>2021-11-13T17:43:14.427Z</time>
      </trkpt>
      <trkpt lat="47.511927" lon="7.731386">
        <ele>397.223751</ele>
        <time>2021-11-13T17:43:25.509Z</time>
      </trkpt>
      <trkpt lat="47.511976" lon="7.731370">
        <ele>397.646253</ele>
        <time>2021-11-13T17:43:27.580Z</time>
      </trkpt>
      <trkpt lat="47.512002" lon="7.731362">
        <ele>397.869854</ele>
        <time>2021-11-13T17:43:28.796Z</time>
      </trkpt>
      <trkpt lat="47.512392" lon="7.731255">
        <ele>401.209609</ele>
        <time>2021-11-13T17:43:47.828Z</time>
      </trkpt>
      <trkpt lat="47.512650" lon="7.731136">
        <ele>403.484979</ele>
        <time>2021-11-13T17:44:00.261Z</time>
      </trkpt>
      <trkpt lat="47.512937" lon="7.731121">
        <ele>405.903059</ele>
        <time>2021-11-13T17:44:13.224Z</time>
      </trkpt>
      <trkpt lat="47.513227" lon="7.731116">
        <ele>406.911336</ele>
        <time>2021-11-13T17:44:24.694Z</time>
      </trkpt>
      <trkpt lat="47.514180" lon="7.731076">
        <ele>409.946175</ele>
        <time>2021-11-13T17:44:52.505Z</time>
      </trkpt>
      <trkpt lat="47.514358" lon="7.731113">
        <ele>410.518347</ele>
        <time>2021-11-13T17:44:56.503Z</time>
      </trkpt>
      <trkpt lat="47.515097" lon="7.731253">
        <ele>410.473467</ele>
        <time>2021-11-13T17:45:07.064Z</time>
      </trkpt>
      <trkpt lat="47.515284" lon="7.731353">
        <ele>409.746415</ele>
        <time>2021-11-13T17:45:09.836Z</time>
      </trkpt>
      <trkpt lat="47.515400" lon="7.731439">
        <ele>409.272023</ele>
        <time>2021-11-13T17:45:11.292Z</time>
      </trkpt>
      <trkpt lat="47.515516" lon="7.731602">
        <ele>408.687217</ele>
        <time>2021-11-13T17:45:12.891Z</time>
      </trkpt>
      <trkpt lat="47.515609" lon="7.731738">
        <ele>408.209227</ele>
        <time>2021-11-13T17:45:14.267Z</time>
      </trkpt>
      <trkpt lat="47.515656" lon="7.731823">
        <ele>407.937918</ele>
        <time>2021-11-13T17:45:15.011Z</time>
      </trkpt>
      <trkpt lat="47.515788" lon="7.732081">
        <ele>407.138536</ele>
        <time>2021-11-13T17:45:17.030Z</time>
      </trkpt>
      <trkpt lat="47.516143" lon="7.733008">
        <ele>403.549072</ele>
        <time>2021-11-13T17:45:23.455Z</time>
      </trkpt>
      <trkpt lat="47.516252" lon="7.733231">
        <ele>401.913870</ele>
        <time>2021-11-13T17:45:25.110Z</time>
      </trkpt>
      <trkpt lat="47.516307" lon="7.733325">
        <ele>401.175084</ele>
        <time>2021-11-13T17:45:25.824Z</time>
      </trkpt>
      <trkpt lat="47.516479" lon="7.733615">
        <ele>398.882444</ele>
        <time>2021-11-13T17:45:28.169Z</time>
      </trkpt>
      <trkpt lat="47.516777" lon="7.734159">
        <ele>394.721640</ele>
        <time>2021-11-13T17:45:32.256Z</time>
      </trkpt>
      <trkpt lat="47.517043" lon="7.734808">
        <ele>390.212086</ele>
        <time>2021-11-13T17:45:36.664Z</time>
      </trkpt>
      <trkpt lat="47.517532" lon="7.736243">
        <ele>382.454313</ele>
        <time>2021-11-13T17:45:46.094Z</time>
      </trkpt>
      <trkpt lat="47.517709" lon="7.736646">
        <ele>380.185998</ele>
        <time>2021-11-13T17:45:49.107Z</time>
      </trkpt>
      <trkpt lat="47.517827" lon="7.736889">
        <ele>378.773775</ele>
        <time>2021-11-13T17:45:51.020Z</time>
      </trkpt>
      <trkpt lat="47.518829" lon="7.738474">
        <ele>373.957596</ele>
        <time>2021-11-13T17:46:06.296Z</time>
      </trkpt>
      <trkpt lat="47.518829" lon="7.738474">
        <ele>373.957596</ele>
        <time>2021-11-13T17:46:06.353Z</time>
      </trkpt>
      <trkpt lat="47.519021" lon="7.738680">
        <ele>373.388021</ele>
        <time>2021-11-13T17:46:09.281Z</time>
      </trkpt>
      <trkpt lat="47.519284" lon="7.738961">
        <ele>372.608942</ele>
        <time>2021-11-13T17:46:13.219Z</time>
      </trkpt>
      <trkpt lat="47.519623" lon="7.739293">
        <ele>371.235716</ele>
        <time>2021-11-13T17:46:17.710Z</time>
      </trkpt>
      <trkpt lat="47.519931" lon="7.739563">
        <ele>369.973707</ele>
        <time>2021-11-13T17:46:21.504Z</time>
      </trkpt>
      <trkpt lat="47.520226" lon="7.739816">
        <ele>368.771710</ele>
        <time>2021-11-13T17:46:25.002Z</time>
      </trkpt>
      <trkpt lat="47.520523" lon="7.740087">
        <ele>367.541674</ele>
        <time>2021-11-13T17:46:29.897Z</time>
      </trkpt>
      <trkpt lat="47.520998" lon="7.740513">
        <ele>364.894710</ele>
        <time>2021-11-13T17:46:37.300Z</time>
      </trkpt>
      <trkpt lat="47.521267" lon="7.740757">
        <ele>362.403226</ele>
        <time>2021-11-13T17:46:41.354Z</time>
      </trkpt>
      <trkpt lat="47.522060" lon="7.741467">
        <ele>355.084252</ele>
        <time>2021-11-13T17:46:52.938Z</time>
      </trkpt>
      <trkpt lat="47.522380" lon="7.741760">
        <ele>352.112763</ele>
        <time>2021-11-13T17:46:57.564Z</time>
      </trkpt>
      <trkpt lat="47.522575" lon="7.741928">
        <ele>350.065702</ele>
        <time>2021-11-13T17:47:00.322Z</time>
      </trkpt>
      <trkpt lat="47.522769" lon="7.742227">
        <ele>347.488128</ele>
        <time>2021-11-13T17:47:03.829Z</time>
      </trkpt>
      <trkpt lat="47.522802" lon="7.742354">
        <ele>346.642228</ele>
        <time>2021-11-13T17:47:04.922Z</time>
      </trkpt>
      <trkpt lat="47.522809" lon="7.742436">
        <ele>346.128434</ele>
        <time>2021-11-13T17:47:05.608Z</time>
      </trkpt>
      <trkpt lat="47.522797" lon="7.742883">
        <ele>343.347546</ele>
        <time>2021-11-13T17:47:09.275Z</time>
      </trkpt>
      <trkpt lat="47.522763" lon="7.743129">
        <ele>341.786632</ele>
        <time>2021-11-13T17:47:11.404Z</time>
      </trkpt>
      <trkpt lat="47.522741" lon="7.743405">
        <ele>340.059017</ele>
        <time>2021-11-13T17:47:13.632Z</time>
      </trkpt>
      <trkpt lat="47.522718" lon="7.743713">
        <ele>338.132719</ele>
        <time>2021-11-13T17:47:16.273Z</time>
      </trkpt>
      <trkpt lat="47.522759" lon="7.744390">
        <ele>334.411287</ele>
        <time>2021-11-13T17:47:21.967Z</time>
      </trkpt>
      <trkpt lat="47.522842" lon="7.744668">
        <ele>333.169911</ele>
        <time>2021-11-13T17:47:24.643Z</time>
      </trkpt>
      <trkpt lat="47.522934" lon="7.744789">
        <ele>332.425750</ele>
        <time>2021-11-13T17:47:26.265Z</time>
      </trkpt>
      <trkpt lat="47.522934" lon="7.744789">
        <ele>332.425750</ele>
        <time>2021-11-13T17:47:26.293Z</time>
      </trkpt>
      <trkpt lat="47.523159" lon="7.744998">
        <ele>330.819451</ele>
        <time>2021-11-13T17:47:30.001Z</time>
      </trkpt>
      <trkpt lat="47.523167" lon="7.745068">
        <ele>330.529505</ele>
        <time>2021-11-13T17:47:30.629Z</time>
      </trkpt>
      <trkpt lat="47.523193" lon="7.745320">
        <ele>329.488393</ele>
        <time>2021-11-13T17:47:32.843Z</time>
      </trkpt>
      <trkpt lat="47.523198" lon="7.745377">
        <ele>329.253649</ele>
        <time>2021-11-13T17:47:33.396Z</time>
      </trkpt>
      <trkpt lat="47.523204" lon="7.745491">
        <ele>328.786661</ele>
        <time>2021-11-13T17:47:34.493Z</time>
      </trkpt>
      <trkpt lat="47.523239" lon="7.745774">
        <ele>327.611665</ele>
        <time>2021-11-13T17:47:37.040Z</time>
      </trkpt>
      <trkpt lat="47.523291" lon="7.746042">
        <ele>326.472869</ele>
        <time>2021-11-13T17:47:39.626Z</time>
      </trkpt>
      <trkpt lat="47.523619" lon="7.747020">
        <ele>323.681778</ele>
        <time>2021-11-13T17:47:49.366Z</time>
      </trkpt>
      <trkpt lat="47.523642" lon="7.747090">
        <ele>323.577284</ele>
        <time>2021-11-13T17:47:50.225Z</time>
      </trkpt>
      <trkpt lat="47.523682" lon="7.747182">
        <ele>323.430409</ele>
        <time>2021-11-13T17:47:51.280Z</time>
      </trkpt>
      <trkpt lat="47.523736" lon="7.747262">
        <ele>323.278577</ele>
        <time>2021-11-13T17:47:52.533Z</time>
      </trkpt>
      <trkpt lat="47.523866" lon="7.747399">
        <ele>322.961414</ele>
        <time>2021-11-13T17:47:54.981Z</time>
      </trkpt>
      <trkpt lat="47.524008" lon="7.747563">
        <ele>322.603459</ele>
        <time>2021-11-13T17:47:58.055Z</time>
      </trkpt>
      <trkpt lat="47.524137" lon="7.747681">
        <ele>322.302064</ele>
        <time>2021-11-13T17:48:00.589Z</time>
      </trkpt>
      <trkpt lat="47.524148" lon="7.747688">
        <ele>322.278265</ele>
        <time>2021-11-13T17:48:00.739Z</time>
      </trkpt>
      <trkpt lat="47.524248" lon="7.747742">
        <ele>322.066686</ele>
        <time>2021-11-13T17:48:02.640Z</time>
      </trkpt>
      <trkpt lat="47.524334" lon="7.747786">
        <ele>321.885824</ele>
        <time>2021-11-13T17:48:04.184Z</time>
      </trkpt>
      <trkpt lat="47.524410" lon="7.747828">
        <ele>321.724578</ele>
        <time>2021-11-13T17:48:05.792Z</time>
      </trkpt>
      <trkpt lat="47.524463" lon="7.747889">
        <ele>321.591150</ele>
        <time>2021-11-13T17:48:07.101Z</time>
      </trkpt>
      <trkpt lat="47.524570" lon="7.748090">
        <ele>321.247598</ele>
        <time>2021-11-13T17:48:10.278Z</time>
      </trkpt>
      <trkpt lat="47.524712" lon="7.748378">
        <ele>321.211438</ele>
        <time>2021-11-13T17:48:16.729Z</time>
      </trkpt>
      <trkpt lat="47.524786" lon="7.748513">
        <ele>321.646647</ele>
        <time>2021-11-13T17:48:18.918Z</time>
      </trkpt>
      <trkpt lat="47.525255" lon="7.749393">
        <ele>324.452586</ele>
        <time>2021-11-13T17:48:36.960Z</time>
      </trkpt>
      <trkpt lat="47.525385" lon="7.749630">
        <ele>325.216822</ele>
        <time>2021-11-13T17:48:44.259Z</time>
      </trkpt>
      <trkpt lat="47.525551" lon="7.749912">
        <ele>326.153178</ele>
        <time>2021-11-13T17:48:52.979Z</time>
      </trkpt>
      <trkpt lat="47.525580" lon="7.749961">
        <ele>326.316258</ele>
        <time>2021-11-13T17:48:55.602Z</time>
      </trkpt>
      <trkpt lat="47.525637" lon="7.750112">
        <ele>326.749240</ele>
        <time>2021-11-13T17:48:59.925Z</time>
      </trkpt>
      <trkpt lat="47.525813" lon="7.750584">
        <ele>328.486430</ele>
        <time>2021-11-13T17:49:15.497Z</time>
      </trkpt>
      <trkpt lat="47.525988" lon="7.751788">
        <ele>333.918693</ele>
        <time>2021-11-13T17:49:51.609Z</time>
      </trkpt>
      <trkpt lat="47.526070" lon="7.752392">
        <ele>336.636134</ele>
        <time>2021-11-13T17:50:08.412Z</time>
      </trkpt>
      <trkpt lat="47.526097" lon="7.752774">
        <ele>338.330267</ele>
        <time>2021-11-13T17:50:18.688Z</time>
      </trkpt>
      <trkpt lat="47.526034" lon="7.753359">
        <ele>340.401477</ele>
        <time>2021-11-13T17:50:33.839Z</time>
      </trkpt>
      <trkpt lat="47.525697" lon="7.754492">
        <ele>344.018169</ele>
        <time>2021-11-13T17:51:04.259Z</time>
      </trkpt>
      <trkpt lat="47.525656" lon="7.755020">
        <ele>345.570780</ele>
        <time>2021-11-13T17:51:15.752Z</time>
      </trkpt>
      <trkpt lat="47.525757" lon="7.755768">
        <ele>347.223153</ele>
        <time>2021-11-13T17:51:27.139Z</time>
      </trkpt>
      <trkpt lat="47.526120" lon="7.757265">
        <ele>347.927063</ele>
        <time>2021-11-13T17:51:44.746Z</time>
      </trkpt>
      <trkpt lat="47.526153" lon="7.757413">
        <ele>347.996038</ele>
        <time>2021-11-13T17:51:46.060Z</time>
      </trkpt>
      <trkpt lat="47.526178" lon="7.757679">
        <ele>348.114889</ele>
        <time>2021-11-13T17:51:48.484Z</time>
      </trkpt>
      <trkpt lat="47.526183" lon="7.758165">
        <ele>348.343984</ele>
        <time>2021-11-13T17:51:52.907Z</time>
      </trkpt>
      <trkpt lat="47.525838" lon="7.761399">
        <ele>351.201356</ele>
        <time>2021-11-13T17:52:35.669Z</time>
      </trkpt>
      <trkpt lat="47.525345" lon="7.763741">
        <ele>355.828502</ele>
        <time>2021-11-13T17:53:20.901Z</time>
      </trkpt>
      <trkpt lat="47.525032" lon="7.765894">
        <ele>361.257293</ele>
        <time>2021-11-13T17:54:05.731Z</time>
      </trkpt>
      <trkpt lat="47.524785" lon="7.766772">
        <ele>363.101074</ele>
        <time>2021-11-13T17:54:24.657Z</time>
      </trkpt>
      <trkpt lat="47.524311" lon="7.768460">
        <ele>366.370640</ele>
        <time>2021-11-13T17:54:57.307Z</time>
      </trkpt>
      <trkpt lat="47.523940" lon="7.769974">
        <ele>365.936616</ele>
        <time>2021-11-13T17:55:12.518Z</time>
      </trkpt>
      <trkpt lat="47.523901" lon="7.770269">
        <ele>365.855610</ele>
        <time>2021-11-13T17:55:14.869Z</time>
      </trkpt>
      <trkpt lat="47.523815" lon="7.771108">
        <ele>365.413634</ele>
        <time>2021-11-13T17:55:21.045Z</time>
      </trkpt>
      <trkpt lat="47.523740" lon="7.771774">
        <ele>364.578484</ele>
        <time>2021-11-13T17:55:26.011Z</time>
      </trkpt>
      <trkpt lat="47.523683" lon="7.772233">
        <ele>364.001227</ele>
        <time>2021-11-13T17:55:29.302Z</time>
      </trkpt>
      <trkpt lat="47.523647" lon="7.772437">
        <ele>363.740426</ele>
        <time>2021-11-13T17:55:30.907Z</time>
      </trkpt>
      <trkpt lat="47.523369" lon="7.773349">
        <ele>362.502767</ele>
        <time>2021-11-13T17:55:38.407Z</time>
      </trkpt>
      <trkpt lat="47.523161" lon="7.774016">
        <ele>362.669904</ele>
        <time>2021-11-13T17:55:44.964Z</time>
      </trkpt>
      <trkpt lat="47.523142" lon="7.774075">
        <ele>362.698086</ele>
        <time>2021-11-13T17:55:45.525Z</time>
      </trkpt>
      <trkpt lat="47.523123" lon="7.774135">
        <ele>362.726658</ele>
        <time>2021-11-13T17:55:46.097Z</time>
      </trkpt>
      <trkpt lat="47.522943" lon="7.774683">
        <ele>362.989394</ele>
        <time>2021-11-13T17:55:53.718Z</time>
      </trkpt>
      <trkpt lat="47.522278" lon="7.777671">
        <ele>365.872453</ele>
        <time>2021-11-13T17:56:38.478Z</time>
      </trkpt>
      <trkpt lat="47.522048" lon="7.778683">
        <ele>367.347240</ele>
        <time>2021-11-13T17:56:56.200Z</time>
      </trkpt>
      <trkpt lat="47.521630" lon="7.780058">
        <ele>370.014182</ele>
        <time>2021-11-13T17:57:22.630Z</time>
      </trkpt>
      <trkpt lat="47.521125" lon="7.781677">
        <ele>372.988227</ele>
        <time>2021-11-13T17:57:52.781Z</time>
      </trkpt>
      <trkpt lat="47.521119" lon="7.781693">
        <ele>373.016936</ele>
        <time>2021-11-13T17:57:53.055Z</time>
      </trkpt>
      <trkpt lat="47.520998" lon="7.782108">
        <ele>373.726035</ele>
        <time>2021-11-13T17:58:00.157Z</time>
      </trkpt>
      <trkpt lat="47.520818" lon="7.782702">
        <ele>374.747362</ele>
        <time>2021-11-13T17:58:09.930Z</time>
      </trkpt>
      <trkpt lat="47.520762" lon="7.782884">
        <ele>375.061106</ele>
        <time>2021-11-13T17:58:13.334Z</time>
      </trkpt>
      <trkpt lat="47.520739" lon="7.782957">
        <ele>375.187473</ele>
        <time>2021-11-13T17:58:14.659Z</time>
      </trkpt>
      <trkpt lat="47.520719" lon="7.783093">
        <ele>375.405818</ele>
        <time>2021-11-13T17:58:16.699Z</time>
      </trkpt>
      <trkpt lat="47.520716" lon="7.783202">
        <ele>375.576950</ele>
        <time>2021-11-13T17:58:18.390Z</time>
      </trkpt>
      <trkpt lat="47.520737" lon="7.783291">
        <ele>375.724843</ele>
        <time>2021-11-13T17:58:20.010Z</time>
      </trkpt>
      <trkpt lat="47.520781" lon="7.783406">
        <ele>376.018303</ele>
        <time>2021-11-13T17:58:22.551Z</time>
      </trkpt>
      <trkpt lat="47.520820" lon="7.783467">
        <ele>376.213523</ele>
        <time>2021-11-13T17:58:23.922Z</time>
      </trkpt>
      <trkpt lat="47.520922" lon="7.783585">
        <ele>376.658965</ele>
        <time>2021-11-13T17:58:26.827Z</time>
      </trkpt>
      <trkpt lat="47.520988" lon="7.783660">
        <ele>376.945268</ele>
        <time>2021-11-13T17:58:28.933Z</time>
      </trkpt>
      <trkpt lat="47.521073" lon="7.783756">
        <ele>377.313156</ele>
        <time>2021-11-13T17:58:32.186Z</time>
      </trkpt>
      <trkpt lat="47.521135" lon="7.783934">
        <ele>377.778614</ele>
        <time>2021-11-13T17:58:35.592Z</time>
      </trkpt>
      <trkpt lat="47.521184" lon="7.784076">
        <ele>378.149210</ele>
        <time>2021-11-13T17:58:38.336Z</time>
      </trkpt>
      <trkpt lat="47.521210" lon="7.784203">
        <ele>378.457624</ele>
        <time>2021-11-13T17:58:41.109Z</time>
      </trkpt>
      <trkpt lat="47.521251" lon="7.784408">
        <ele>378.954500</ele>
        <time>2021-11-13T17:58:44.916Z</time>
      </trkpt>
      <trkpt lat="47.521340" lon="7.785091">
        <ele>380.571076</ele>
        <time>2021-11-13T17:58:58.535Z</time>
      </trkpt>
      <trkpt lat="47.521359" lon="7.785235">
        <ele>380.912060</ele>
        <time>2021-11-13T17:59:01.714Z</time>
      </trkpt>
      <trkpt lat="47.521411" lon="7.785651">
        <ele>381.895268</ele>
        <time>2021-11-13T17:59:10.593Z</time>
      </trkpt>
      <trkpt lat="47.521481" lon="7.786063">
        <ele>383.394260</ele>
        <time>2021-11-13T17:59:21.005Z</time>
      </trkpt>
      <trkpt lat="47.521561" lon="7.786302">
        <ele>384.351808</ele>
        <time>2021-11-13T17:59:27.284Z</time>
      </trkpt>
      <trkpt lat="47.521925" lon="7.787242">
        <ele>388.241503</ele>
        <time>2021-11-13T17:59:54.159Z</time>
      </trkpt>
      <trkpt lat="47.521639" lon="7.787535">
        <ele>390.090137</ele>
        <time>2021-11-13T18:00:07.079Z</time>
      </trkpt>
      <trkpt lat="47.521453" lon="7.787715">
        <ele>391.271255</ele>
        <time>2021-11-13T18:00:15.841Z</time>
      </trkpt>
      <trkpt lat="47.521099" lon="7.788048">
        <ele>393.952725</ele>
        <time>2021-11-13T18:00:31.256Z</time>
      </trkpt>
      <trkpt lat="47.520866" lon="7.788410">
        <ele>396.154449</ele>
        <time>2021-11-13T18:00:44.434Z</time>
      </trkpt>
      <trkpt lat="47.520775" lon="7.788985">
        <ele>398.754600</ele>
        <time>2021-11-13T18:01:00.362Z</time>
      </trkpt>
      <trkpt lat="47.520768" lon="7.789159">
        <ele>399.522033</ele>
        <time>2021-11-13T18:01:05.532Z</time>
      </trkpt>
      <trkpt lat="47.520746" lon="7.789717">
        <ele>401.982938</ele>
        <time>2021-11-13T18:01:21.478Z</time>
      </trkpt>
      <trkpt lat="47.520783" lon="7.790185">
        <ele>404.410247</ele>
        <time>2021-11-13T18:01:35.520Z</time>
      </trkpt>
      <trkpt lat="47.521043" lon="7.791054">
        <ele>410.379139</ele>
        <time>2021-11-13T18:02:06.666Z</time>
      </trkpt>
      <trkpt lat="47.521374" lon="7.793903">
        <ele>428.630396</ele>
        <time>2021-11-13T18:03:56.304Z</time>
      </trkpt>
      <trkpt lat="47.521460" lon="7.795630">
        <ele>437.477949</ele>
        <time>2021-11-13T18:04:55.425Z</time>
      </trkpt>
      <trkpt lat="47.521488" lon="7.796167">
        <ele>438.230864</ele>
        <time>2021-11-13T18:05:08.261Z</time>
      </trkpt>
      <trkpt lat="47.521531" lon="7.796461">
        <ele>438.651379</ele>
        <time>2021-11-13T18:05:14.108Z</time>
      </trkpt>
      <trkpt lat="47.521832" lon="7.798025">
        <ele>439.286938</ele>
        <time>2021-11-13T18:05:27.623Z</time>
      </trkpt>
      <trkpt lat="47.521886" lon="7.798500">
        <ele>436.622826</ele>
        <time>2021-11-13T18:05:30.591Z</time>
      </trkpt>
      <trkpt lat="47.522709" lon="7.800072">
        <ele>425.508486</ele>
        <time>2021-11-13T18:05:42.164Z</time>
      </trkpt>
      <trkpt lat="47.522938" lon="7.800180">
        <ele>422.618391</ele>
        <time>2021-11-13T18:05:44.207Z</time>
      </trkpt>
      <trkpt lat="47.524111" lon="7.800323">
        <ele>408.464924</ele>
        <time>2021-11-13T18:05:54.109Z</time>
      </trkpt>
      <trkpt lat="47.524301" lon="7.800420">
        <ele>406.048140</ele>
        <time>2021-11-13T18:05:55.817Z</time>
      </trkpt>
      <trkpt lat="47.524601" lon="7.800707">
        <ele>401.640650</ele>
        <time>2021-11-13T18:05:58.842Z</time>
      </trkpt>
      <trkpt lat="47.524909" lon="7.800963">
        <ele>397.200606</ele>
        <time>2021-11-13T18:06:01.846Z</time>
      </trkpt>
      <trkpt lat="47.525009" lon="7.801022">
        <ele>395.847406</ele>
        <time>2021-11-13T18:06:02.744Z</time>
      </trkpt>
      <trkpt lat="47.525322" lon="7.801334">
        <ele>391.104340</ele>
        <time>2021-11-13T18:06:05.907Z</time>
      </trkpt>
      <trkpt lat="47.525644" lon="7.801949">
        <ele>384.498308</ele>
        <time>2021-11-13T18:06:10.335Z</time>
      </trkpt>
      <trkpt lat="47.526184" lon="7.802422">
        <ele>376.778867</ele>
        <time>2021-11-13T18:06:15.606Z</time>
      </trkpt>
      <trkpt lat="47.526229" lon="7.802508">
        <ele>375.886175</ele>
        <time>2021-11-13T18:06:16.217Z</time>
      </trkpt>
      <trkpt lat="47.526305" lon="7.802747">
        <ele>373.718619</ele>
        <time>2021-11-13T18:06:17.736Z</time>
      </trkpt>
      <trkpt lat="47.526435" lon="7.803139">
        <ele>370.135306</ele>
        <time>2021-11-13T18:06:20.243Z</time>
      </trkpt>
      <trkpt lat="47.526766" lon="7.803728">
        <ele>363.847905</ele>
        <time>2021-11-13T18:06:24.667Z</time>
      </trkpt>
      <trkpt lat="47.526840" lon="7.803910">
        <ele>362.104794</ele>
        <time>2021-11-13T18:06:25.858Z</time>
      </trkpt>
      <trkpt lat="47.526931" lon="7.804130">
        <ele>359.987965</ele>
        <time>2021-11-13T18:06:27.318Z</time>
      </trkpt>
      <trkpt lat="47.527195" lon="7.804775">
        <ele>354.663768</ele>
        <time>2021-11-13T18:06:31.605Z</time>
      </trkpt>
      <trkpt lat="47.527223" lon="7.804962">
        <ele>353.319770</ele>
        <time>2021-11-13T18:06:32.689Z</time>
      </trkpt>
      <trkpt lat="47.527187" lon="7.805916">
        <ele>346.615383</ele>
        <time>2021-11-13T18:06:38.266Z</time>
      </trkpt>
      <trkpt lat="47.527192" lon="7.805999">
        <ele>346.030682</ele>
        <time>2021-11-13T18:06:38.730Z</time>
      </trkpt>
      <trkpt lat="47.527215" lon="7.806158">
        <ele>344.889712</ele>
        <time>2021-11-13T18:06:39.720Z</time>
      </trkpt>
      <trkpt lat="47.527250" lon="7.806264">
        <ele>344.061779</ele>
        <time>2021-11-13T18:06:40.463Z</time>
      </trkpt>
      <trkpt lat="47.527311" lon="7.806422">
        <ele>342.784720</ele>
        <time>2021-11-13T18:06:41.538Z</time>
      </trkpt>
      <trkpt lat="47.527350" lon="7.806547">
        <ele>341.818531</ele>
        <time>2021-11-13T18:06:42.318Z</time>
      </trkpt>
      <trkpt lat="47.527401" lon="7.806802">
        <ele>340.383431</ele>
        <time>2021-11-13T18:06:43.991Z</time>
      </trkpt>
      <trkpt lat="47.527414" lon="7.806940">
        <ele>339.780325</ele>
        <time>2021-11-13T18:06:44.802Z</time>
      </trkpt>
      <trkpt lat="47.527456" lon="7.807830">
        <ele>335.918643</ele>
        <time>2021-11-13T18:06:50.163Z</time>
      </trkpt>
      <trkpt lat="47.527503" lon="7.808275">
        <ele>333.969081</ele>
        <time>2021-11-13T18:06:52.862Z</time>
      </trkpt>
      <trkpt lat="47.527517" lon="7.808455">
        <ele>333.184817</ele>
        <time>2021-11-13T18:06:54.028Z</time>
      </trkpt>
      <trkpt lat="47.527593" lon="7.809069">
        <ele>330.482895</ele>
        <time>2021-11-13T18:06:58.036Z</time>
      </trkpt>
      <trkpt lat="47.527664" lon="7.809357">
        <ele>329.380749</ele>
        <time>2021-11-13T18:07:00.081Z</time>
      </trkpt>
      <trkpt lat="47.527897" lon="7.809587">
        <ele>328.616042</ele>
        <time>2021-11-13T18:07:02.888Z</time>
      </trkpt>
      <trkpt lat="47.528209" lon="7.809900">
        <ele>327.586898</ele>
        <time>2021-11-13T18:07:06.721Z</time>
      </trkpt>
      <trkpt lat="47.528632" lon="7.810311">
        <ele>326.205280</ele>
        <time>2021-11-13T18:07:12.037Z</time>
      </trkpt>
      <trkpt lat="47.528791" lon="7.810026">
        <ele>325.523562</ele>
        <time>2021-11-13T18:07:14.683Z</time>
      </trkpt>
      <trkpt lat="47.528858" lon="7.809910">
        <ele>325.242076</ele>
        <time>2021-11-13T18:07:15.824Z</time>
      </trkpt>
      <trkpt lat="47.529100" lon="7.809485">
        <ele>324.608595</ele>
        <time>2021-11-13T18:07:20.067Z</time>
      </trkpt>
      <trkpt lat="47.529208" lon="7.809338">
        <ele>324.582685</ele>
        <time>2021-11-13T18:07:21.816Z</time>
      </trkpt>
      <trkpt lat="47.529274" lon="7.809267">
        <ele>324.568276</ele>
        <time>2021-11-13T18:07:22.895Z</time>
      </trkpt>
      <trkpt lat="47.529336" lon="7.809212">
        <ele>324.555510</ele>
        <time>2021-11-13T18:07:24.061Z</time>
      </trkpt>
      <trkpt lat="47.529513" lon="7.809105">
        <ele>324.521741</ele>
        <time>2021-11-13T18:07:26.408Z</time>
      </trkpt>
      <trkpt lat="47.529594" lon="7.809061">
        <ele>324.506501</ele>
        <time>2021-11-13T18:07:27.581Z</time>
      </trkpt>
      <trkpt lat="47.529966" lon="7.808858">
        <ele>324.436473</ele>
        <time>2021-11-13T18:07:33.946Z</time>
      </trkpt>
      <trkpt lat="47.530041" lon="7.808819">
        <ele>324.422432</ele>
        <time>2021-11-13T18:07:35.528Z</time>
      </trkpt>
      <trkpt lat="47.530543" lon="7.808552">
        <ele>324.328215</ele>
        <time>2021-11-13T18:07:44.294Z</time>
      </trkpt>
      <trkpt lat="47.530585" lon="7.808529">
        <ele>324.320305</ele>
        <time>2021-11-13T18:07:45.039Z</time>
      </trkpt>
      <trkpt lat="47.530684" lon="7.808469">
        <ele>324.345117</ele>
        <time>2021-11-13T18:07:47.306Z</time>
      </trkpt>
      <trkpt lat="47.530952" lon="7.808278">
        <ele>324.431233</ele>
        <time>2021-11-13T18:07:52.354Z</time>
      </trkpt>
      <trkpt lat="47.531066" lon="7.808197">
        <ele>324.467843</ele>
        <time>2021-11-13T18:07:54.830Z</time>
      </trkpt>
      <trkpt lat="47.531380" lon="7.807943">
        <ele>324.571438</ele>
        <time>2021-11-13T18:08:01.134Z</time>
      </trkpt>
      <trkpt lat="47.531735" lon="7.807655">
        <ele>324.688638</ele>
        <time>2021-11-13T18:08:07.491Z</time>
      </trkpt>
      <trkpt lat="47.532412" lon="7.807037">
        <ele>324.604322</ele>
        <time>2021-11-13T18:08:18.809Z</time>
      </trkpt>
      <trkpt lat="47.532581" lon="7.806843">
        <ele>324.423204</ele>
        <time>2021-11-13T18:08:21.686Z</time>
      </trkpt>
      <trkpt lat="47.532546" lon="7.806703">
        <ele>324.337824</ele>
        <time>2021-11-13T18:08:23.331Z</time>
      </trkpt>
      <trkpt lat="47.533091" lon="7.806305">
        <ele>323.823106</ele>
        <time>2021-11-13T18:08:33.790Z</time>
      </trkpt>
      <trkpt lat="47.533723" lon="7.806018">
        <ele>323.291108</ele>
        <time>2021-11-13T18:08:44.871Z</time>
      </trkpt>
      <trkpt lat="47.534648" lon="7.805785">
        <ele>322.923224</ele>
        <time>2021-11-13T18:09:01.994Z</time>
      </trkpt>
      <trkpt lat="47.534894" lon="7.805725">
        <ele>322.825473</ele>
        <time>2021-11-13T18:09:06.754Z</time>
      </trkpt>
      <trkpt lat="47.535092" lon="7.805671">
        <ele>322.746535</ele>
        <time>2021-11-13T18:09:11.014Z</time>
      </trkpt>
      <trkpt lat="47.535778" lon="7.805333">
        <ele>322.705972</ele>
        <time>2021-11-13T18:09:26.183Z</time>
      </trkpt>
      <trkpt lat="47.535828" lon="7.805308">
        <ele>322.719493</ele>
        <time>2021-11-13T18:09:27.364Z</time>
      </trkpt>
      <trkpt lat="47.536542" lon="7.804797">
        <ele>322.922673</ele>
        <time>2021-11-13T18:09:45.072Z</time>
      </trkpt>
      <trkpt lat="47.536875" lon="7.804558">
        <ele>323.017485</ele>
        <time>2021-11-13T18:09:53.287Z</time>
      </trkpt>
      <trkpt lat="47.537755" lon="7.803639">
        <ele>322.469285</ele>
        <time>2021-11-13T18:10:13.521Z</time>
      </trkpt>
      <trkpt lat="47.538164" lon="7.803170">
        <ele>322.111045</ele>
        <time>2021-11-13T18:10:22.694Z</time>
      </trkpt>
      <trkpt lat="47.538256" lon="7.803059">
        <ele>322.028862</ele>
        <time>2021-11-13T18:10:24.532Z</time>
      </trkpt>
      <trkpt lat="47.540006" lon="7.800680">
        <ele>320.250187</ele>
        <time>2021-11-13T18:11:05.426Z</time>
      </trkpt>
      <trkpt lat="47.540192" lon="7.800458">
        <ele>320.413367</ele>
        <time>2021-11-13T18:11:09.972Z</time>
      </trkpt>
      <trkpt lat="47.540260" lon="7.800353">
        <ele>320.480470</ele>
        <time>2021-11-13T18:11:13.037Z</time>
      </trkpt>
      <trkpt lat="47.540644" lon="7.800163">
        <ele>320.757047</ele>
        <time>2021-11-13T18:11:22.833Z</time>
      </trkpt>
      <trkpt lat="47.540897" lon="7.800171">
        <ele>320.929923</ele>
        <time>2021-11-13T18:11:29.000Z</time>
      </trkpt>
      <trkpt lat="47.541705" lon="7.800028">
        <ele>321.147751</ele>
        <time>2021-11-13T18:11:50.772Z</time>
      </trkpt>
      <trkpt lat="47.542307" lon="7.799830">
        <ele>320.856228</ele>
        <time>2021-11-13T18:12:05.746Z</time>
      </trkpt>
      <trkpt lat="47.542998" lon="7.799859">
        <ele>320.529430</ele>
        <time>2021-11-13T18:12:17.975Z</time>
      </trkpt>
      <trkpt lat="47.544071" lon="7.799629">
        <ele>315.717349</ele>
        <time>2021-11-13T18:12:32.897Z</time>
      </trkpt>
      <trkpt lat="47.544184" lon="7.799620">
        <ele>315.114668</ele>
        <time>2021-11-13T18:12:34.286Z</time>
      </trkpt>
      <trkpt lat="47.544345" lon="7.799570">
        <ele>314.238582</ele>
        <time>2021-11-13T18:12:36.481Z</time>
      </trkpt>
      <trkpt lat="47.544568" lon="7.799371">
        <ele>312.852112</ele>
        <time>2021-11-13T18:12:39.838Z</time>
      </trkpt>
      <trkpt lat="47.544749" lon="7.799388">
        <ele>311.886213</ele>
        <time>2021-11-13T18:12:42.280Z</time>
      </trkpt>
      <trkpt lat="47.544827" lon="7.799356">
        <ele>311.455169</ele>
        <time>2021-11-13T18:12:43.262Z</time>
      </trkpt>
      <trkpt lat="47.545096" lon="7.799250">
        <ele>310.066508</ele>
        <time>2021-11-13T18:12:46.981Z</time>
      </trkpt>
      <trkpt lat="47.545182" lon="7.799205">
        <ele>309.632304</ele>
        <time>2021-11-13T18:12:48.078Z</time>
      </trkpt>
      <trkpt lat="47.545396" lon="7.798977">
        <ele>308.377424</ele>
        <time>2021-11-13T18:12:51.619Z</time>
      </trkpt>
      <trkpt lat="47.545449" lon="7.798705">
        <ele>307.467670</ele>
        <time>2021-11-13T18:12:54.021Z</time>
      </trkpt>
      <trkpt lat="47.545511" lon="7.798680">
        <ele>307.161772</ele>
        <time>2021-11-13T18:12:54.852Z</time>
      </trkpt>
      <trkpt lat="47.545581" lon="7.798713">
        <ele>306.812060</ele>
        <time>2021-11-13T18:12:55.889Z</time>
      </trkpt>
      <trkpt lat="47.545731" lon="7.798810">
        <ele>306.032895</ele>
        <time>2021-11-13T18:12:58.096Z</time>
      </trkpt>
      <trkpt lat="47.545807" lon="7.798846">
        <ele>305.653041</ele>
        <time>2021-11-13T18:12:59.204Z</time>
      </trkpt>
      <trkpt lat="47.546418" lon="7.798980">
        <ele>302.712578</ele>
        <time>2021-11-13T18:13:08.051Z</time>
      </trkpt>
      <trkpt lat="47.547540" lon="7.799538">
        <ele>301.084043</ele>
        <time>2021-11-13T18:13:27.775Z</time>
      </trkpt>
      <trkpt lat="47.547912" lon="7.799646">
        <ele>300.665443</ele>
        <time>2021-11-13T18:13:35.156Z</time>
      </trkpt>
      <trkpt lat="47.548459" lon="7.799691">
        <ele>300.289889</ele>
        <time>2021-11-13T18:13:46.094Z</time>
      </trkpt>
      <trkpt lat="47.548535" lon="7.799720">
        <ele>300.283656</ele>
        <time>2021-11-13T18:13:47.613Z</time>
      </trkpt>
      <trkpt lat="47.548514" lon="7.799795">
        <ele>300.279303</ele>
        <time>2021-11-13T18:13:48.677Z</time>
      </trkpt>
      <trkpt lat="47.548519" lon="7.799896">
        <ele>300.273874</ele>
        <time>2021-11-13T18:13:50.032Z</time>
      </trkpt>
      <trkpt lat="47.548545" lon="7.800404">
        <ele>300.246565</ele>
        <time>2021-11-13T18:13:56.823Z</time>
      </trkpt>
      <trkpt lat="47.548560" lon="7.800672">
        <ele>300.232149</ele>
        <time>2021-11-13T18:14:00.515Z</time>
      </trkpt>
      <trkpt lat="47.548569" lon="7.800838">
        <ele>300.223222</ele>
        <time>2021-11-13T18:14:02.759Z</time>
      </trkpt>
      <trkpt lat="47.548576" lon="7.800968">
        <ele>300.216231</ele>
        <time>2021-11-13T18:14:04.535Z</time>
      </trkpt>
      <trkpt lat="47.548596" lon="7.801213">
        <ele>300.203002</ele>
        <time>2021-11-13T18:14:07.914Z</time>
      </trkpt>
      <trkpt lat="47.548607" lon="7.801690">
        <ele>300.177417</ele>
        <time>2021-11-13T18:14:14.414Z</time>
      </trkpt>
      <trkpt lat="47.548626" lon="7.802129">
        <ele>300.129032</ele>
        <time>2021-11-13T18:14:20.333Z</time>
      </trkpt>
      <trkpt lat="47.548877" lon="7.802168">
        <ele>300.063722</ele>
        <time>2021-11-13T18:14:25.325Z</time>
      </trkpt>
      <trkpt lat="47.548995" lon="7.802181">
        <ele>300.033102</ele>
        <time>2021-11-13T18:14:27.689Z</time>
      </trkpt>
      <trkpt lat="47.549410" lon="7.802226">
        <ele>299.925421</ele>
        <time>2021-11-13T18:14:35.742Z</time>
      </trkpt>
      <trkpt lat="47.549481" lon="7.802234">
        <ele>299.906995</ele>
        <time>2021-11-13T18:14:37.080Z</time>
      </trkpt>
      <trkpt lat="47.549879" lon="7.802247">
        <ele>299.803975</ele>
        <time>2021-11-13T18:14:44.546Z</time>
      </trkpt>
      <trkpt lat="47.550146" lon="7.802262">
        <ele>299.734832</ele>
        <time>2021-11-13T18:14:49.620Z</time>
      </trkpt>
      <trkpt lat="47.550134" lon="7.803051">
        <ele>299.603042</ele>
        <time>2021-11-13T18:14:59.844Z</time>
      </trkpt>
      <trkpt lat="47.550196" lon="7.803120">
        <ele>299.584162</ele>
        <time>2021-11-13T18:15:01.303Z</time>
      </trkpt>
      <trkpt lat="47.550981" lon="7.803132">
        <ele>299.393022</ele>
        <time>2021-11-13T18:15:15.950Z</time>
      </trkpt>
      <trkpt lat="47.551163" lon="7.803129">
        <ele>299.348706</ele>
        <time>2021-11-13T18:15:19.353Z</time>
      </trkpt>
      <trkpt lat="47.551598" lon="7.803160">
        <ele>299.315149</ele>
        <time>2021-11-13T18:15:27.946Z</time>
      </trkpt>
      <trkpt lat="47.551666" lon="7.803144">
        <ele>299.363133</ele>
        <time>2021-11-13T18:15:32.690Z</time>
      </trkpt>
      <trkpt lat="47.551732" lon="7.803125">
        <ele>299.409989</ele>
        <time>2021-11-13T18:15:37.357Z</time>
      </trkpt>
      <trkpt lat="47.551744" lon="7.803277">
        <ele>299.481972</ele>
        <time>2021-11-13T18:15:39.051Z</time>
      </trkpt>
      <trkpt lat="47.551751" lon="7.803369">
        <ele>299.525519</ele>
        <time>2021-11-13T18:15:40.125Z</time>
      </trkpt>
      <trkpt lat="47.551692" lon="7.803510">
        <ele>299.603553</ele>
        <time>2021-11-13T18:15:42.719Z</time>
      </trkpt>
      <trkpt lat="47.551741" lon="7.804294">
        <ele>299.973895</ele>
        <time>2021-11-13T18:15:55.737Z</time>
      </trkpt>
      <trkpt lat="47.551744" lon="7.804473">
        <ele>300.058116</ele>
        <time>2021-11-13T18:15:58.256Z</time>
      </trkpt>
      <trkpt lat="47.551731" lon="7.804667">
        <ele>300.149815</ele>
        <time>2021-11-13T18:16:02.236Z</time>
      </trkpt>
      <trkpt lat="47.551709" lon="7.805000">
        <ele>300.307195</ele>
        <time>2021-11-13T18:16:06.728Z</time>
      </trkpt>
      <trkpt lat="47.551681" lon="7.805477">
        <ele>300.520721</ele>
        <time>2021-11-13T18:16:14.464Z</time>
      </trkpt>
      <trkpt lat="47.551671" lon="7.806117">
        <ele>300.620458</ele>
        <time>2021-11-13T18:16:24.554Z</time>
      </trkpt>
      <trkpt lat="47.551651" lon="7.806246">
        <ele>300.641079</ele>
        <time>2021-11-13T18:16:27.456Z</time>
      </trkpt>
      <trkpt lat="47.551895" lon="7.806278">
        <ele>300.697624</ele>
        <time>2021-11-13T18:16:30.982Z</time>
      </trkpt>
      <trkpt lat="47.552015" lon="7.806307">
        <ele>300.725691</ele>
        <time>2021-11-13T18:16:33.852Z</time>
      </trkpt>
      <trkpt lat="47.552068" lon="7.806445">
        <ele>300.750428</ele>
        <time>2021-11-13T18:16:35.309Z</time>
      </trkpt>
      <trkpt lat="47.552398" lon="7.808880">
        <ele>300.376740</ele>
        <time>2021-11-13T18:16:57.478Z</time>
      </trkpt>
      <trkpt lat="47.552501" lon="7.809803">
        <ele>299.987537</ele>
        <time>2021-11-13T18:17:05.393Z</time>
      </trkpt>
      <trkpt lat="47.552566" lon="7.810386">
        <ele>299.736729</ele>
        <time>2021-11-13T18:17:10.493Z</time>
      </trkpt>
      <trkpt lat="47.552711" lon="7.812955">
        <ele>298.599085</ele>
        <time>2021-11-13T18:17:33.076Z</time>
      </trkpt>
      <trkpt lat="47.552844" lon="7.816432">
        <ele>297.431504</ele>
        <time>2021-11-13T18:18:03.460Z</time>
      </trkpt>
      <trkpt lat="47.552916" lon="7.818465">
        <ele>297.420443</ele>
        <time>2021-11-13T18:18:24.217Z</time>
      </trkpt>
      <trkpt lat="47.552933" lon="7.818933">
        <ele>297.647155</ele>
        <time>2021-11-13T18:18:29.792Z</time>
      </trkpt>
      <trkpt lat="47.552948" lon="7.819358">
        <ele>297.853019</ele>
        <time>2021-11-13T18:18:35.092Z</time>
      </trkpt>
      <trkpt lat="47.552896" lon="7.820699">
        <ele>298.502766</ele>
        <time>2021-11-13T18:18:51.812Z</time>
      </trkpt>
      <trkpt lat="47.552839" lon="7.821354">
        <ele>298.832188</ele>
        <time>2021-11-13T18:19:00.225Z</time>
      </trkpt>
      <trkpt lat="47.552567" lon="7.824508">
        <ele>300.335085</ele>
        <time>2021-11-13T18:19:38.031Z</time>
      </trkpt>
      <trkpt lat="47.552491" lon="7.827227">
        <ele>301.814303</ele>
        <time>2021-11-13T18:20:09.194Z</time>
      </trkpt>
      <trkpt lat="47.552515" lon="7.828094">
        <ele>302.456380</ele>
        <time>2021-11-13T18:20:20.904Z</time>
      </trkpt>
      <trkpt lat="47.552477" lon="7.828294">
        <ele>302.610122</ele>
        <time>2021-11-13T18:20:23.521Z</time>
      </trkpt>
      <trkpt lat="47.552421" lon="7.828481">
        <ele>302.761503</ele>
        <time>2021-11-13T18:20:26.453Z</time>
      </trkpt>
      <trkpt lat="47.552404" lon="7.828582">
        <ele>302.838527</ele>
        <time>2021-11-13T18:20:28.137Z</time>
      </trkpt>
      <trkpt lat="47.552416" lon="7.828822">
        <ele>303.059450</ele>
        <time>2021-11-13T18:20:31.371Z</time>
      </trkpt>
      <trkpt lat="47.552554" lon="7.829266">
        <ele>303.791006</ele>
        <time>2021-11-13T18:20:38.723Z</time>
      </trkpt>
      <trkpt lat="47.552645" lon="7.830686">
        <ele>305.925698</ele>
        <time>2021-11-13T18:21:02.028Z</time>
      </trkpt>
      <trkpt lat="47.552690" lon="7.832598">
        <ele>308.852161</ele>
        <time>2021-11-13T18:21:33.897Z</time>
      </trkpt>
      <trkpt lat="47.552616" lon="7.832891">
        <ele>309.336580</ele>
        <time>2021-11-13T18:21:38.650Z</time>
      </trkpt>
      <trkpt lat="47.552556" lon="7.832977">
        <ele>309.528107</ele>
        <time>2021-11-13T18:21:41.379Z</time>
      </trkpt>
      <trkpt lat="47.552508" lon="7.832936">
        <ele>309.655222</ele>
        <time>2021-11-13T18:21:42.745Z</time>
      </trkpt>
      <trkpt lat="47.552458" lon="7.832824">
        <ele>309.863154</ele>
        <time>2021-11-13T18:21:45.200Z</time>
      </trkpt>
      <trkpt lat="47.552368" lon="7.832305">
        <ele>310.692901</ele>
        <time>2021-11-13T18:21:55.774Z</time>
      </trkpt>
      <trkpt lat="47.552251" lon="7.831814">
        <ele>311.338515</ele>
        <time>2021-11-13T18:22:05.896Z</time>
      </trkpt>
      <trkpt lat="47.552065" lon="7.831350">
        <ele>311.846313</ele>
        <time>2021-11-13T18:22:16.157Z</time>
      </trkpt>
      <trkpt lat="47.551640" lon="7.830558">
        <ele>312.798385</ele>
        <time>2021-11-13T18:22:34.615Z</time>
      </trkpt>
      <trkpt lat="47.550675" lon="7.828955">
        <ele>313.141034</ele>
        <time>2021-11-13T18:23:06.310Z</time>
      </trkpt>
      <trkpt lat="47.550522" lon="7.828744">
        <ele>313.032270</ele>
        <time>2021-11-13T18:23:10.212Z</time>
      </trkpt>
      <trkpt lat="47.550183" lon="7.828277">
        <ele>312.791402</ele>
        <time>2021-11-13T18:23:17.859Z</time>
      </trkpt>
      <trkpt lat="47.549105" lon="7.827067">
        <ele>311.000953</ele>
        <time>2021-11-13T18:23:39.203Z</time>
      </trkpt>
      <trkpt lat="47.548679" lon="7.826710">
        <ele>310.263837</ele>
        <time>2021-11-13T18:23:47.391Z</time>
      </trkpt>
      <trkpt lat="47.548237" lon="7.826410">
        <ele>310.121982</ele>
        <time>2021-11-13T18:23:56.131Z</time>
      </trkpt>
      <trkpt lat="47.547666" lon="7.826091">
        <ele>310.492336</ele>
        <time>2021-11-13T18:24:08.655Z</time>
      </trkpt>
      <trkpt lat="47.547233" lon="7.825872">
        <ele>310.770011</ele>
        <time>2021-11-13T18:24:20.224Z</time>
      </trkpt>
      <trkpt lat="47.546693" lon="7.825618">
        <ele>311.288008</ele>
        <time>2021-11-13T18:24:35.599Z</time>
      </trkpt>
      <trkpt lat="47.546589" lon="7.825597">
        <ele>311.510516</ele>
        <time>2021-11-13T18:24:38.529Z</time>
      </trkpt>
      <trkpt lat="47.546574" lon="7.826239">
        <ele>312.429713</ele>
        <time>2021-11-13T18:24:50.785Z</time>
      </trkpt>
      <trkpt lat="47.546592" lon="7.826850">
        <ele>313.304834</ele>
        <time>2021-11-13T18:25:02.450Z</time>
      </trkpt>
      <trkpt lat="47.546721" lon="7.828140">
        <ele>315.172233</ele>
        <time>2021-11-13T18:25:29.121Z</time>
      </trkpt>
      <trkpt lat="47.546790" lon="7.828949">
        <ele>316.344158</ele>
        <time>2021-11-13T18:25:44.841Z</time>
      </trkpt>
      <trkpt lat="47.546823" lon="7.829336">
        <ele>316.904766</ele>
        <time>2021-11-13T18:25:52.369Z</time>
      </trkpt>
      <trkpt lat="47.546845" lon="7.829607">
        <ele>317.297048</ele>
        <time>2021-11-13T18:25:57.793Z</time>
      </trkpt>
      <trkpt lat="47.546946" lon="7.830852">
        <ele>319.038951</ele>
        <time>2021-11-13T18:26:21.649Z</time>
      </trkpt>
      <trkpt lat="47.547020" lon="7.831965">
        <ele>320.411527</ele>
        <time>2021-11-13T18:26:42.582Z</time>
      </trkpt>
      <trkpt lat="47.547190" lon="7.835066">
        <ele>324.144465</ele>
        <time>2021-11-13T18:27:39.382Z</time>
      </trkpt>
      <trkpt lat="47.547240" lon="7.836221">
        <ele>325.540909</ele>
        <time>2021-11-13T18:28:00.856Z</time>
      </trkpt>
      <trkpt lat="47.547276" lon="7.837287">
        <ele>326.892629</ele>
        <time>2021-11-13T18:28:20.967Z</time>
      </trkpt>
      <trkpt lat="47.547300" lon="7.838688">
        <ele>328.601578</ele>
        <time>2021-11-13T18:28:47.713Z</time>
      </trkpt>
      <trkpt lat="47.547332" lon="7.840572">
        <ele>330.152848</ele>
        <time>2021-11-13T18:29:20.341Z</time>
      </trkpt>
      <trkpt lat="47.547339" lon="7.841072">
        <ele>330.564502</ele>
        <time>2021-11-13T18:29:28.118Z</time>
      </trkpt>
      <trkpt lat="47.547362" lon="7.841665">
        <ele>330.736655</ele>
        <time>2021-11-13T18:29:36.889Z</time>
      </trkpt>
      <trkpt lat="47.547448" lon="7.842262">
        <ele>330.821154</ele>
        <time>2021-11-13T18:29:45.299Z</time>
      </trkpt>
      <trkpt lat="47.547354" lon="7.842839">
        <ele>330.903316</ele>
        <time>2021-11-13T18:29:53.180Z</time>
      </trkpt>
      <trkpt lat="47.547313" lon="7.843735">
        <ele>331.027626</ele>
        <time>2021-11-13T18:30:05.502Z</time>
      </trkpt>
      <trkpt lat="47.547302" lon="7.844306">
        <ele>331.407691</ele>
        <time>2021-11-13T18:30:13.863Z</time>
      </trkpt>
      <trkpt lat="47.547295" lon="7.844722">
        <ele>331.731108</ele>
        <time>2021-11-13T18:30:20.247Z</time>
      </trkpt>
      <trkpt lat="47.547274" lon="7.845536">
        <ele>332.364213</ele>
        <time>2021-11-13T18:30:33.702Z</time>
      </trkpt>
      <trkpt lat="47.547124" lon="7.848795">
        <ele>336.235721</ele>
        <time>2021-11-13T18:31:35.843Z</time>
      </trkpt>
      <trkpt lat="47.547143" lon="7.849985">
        <ele>337.610705</ele>
        <time>2021-11-13T18:31:58.694Z</time>
      </trkpt>
      <trkpt lat="47.547141" lon="7.850355">
        <ele>338.005815</ele>
        <time>2021-11-13T18:32:05.794Z</time>
      </trkpt>
      <trkpt lat="47.546945" lon="7.851719">
        <ele>339.494978</ele>
        <time>2021-11-13T18:32:30.327Z</time>
      </trkpt>
      <trkpt lat="47.546582" lon="7.856413">
        <ele>340.662777</ele>
        <time>2021-11-13T18:33:38.639Z</time>
      </trkpt>
      <trkpt lat="47.546537" lon="7.857497">
        <ele>340.866439</ele>
        <time>2021-11-13T18:33:53.947Z</time>
      </trkpt>
      <trkpt lat="47.546487" lon="7.859119">
        <ele>341.212975</ele>
        <time>2021-11-13T18:34:17.394Z</time>
      </trkpt>
      <trkpt lat="47.546526" lon="7.861665">
        <ele>341.345429</ele>
        <time>2021-11-13T18:34:54.568Z</time>
      </trkpt>
      <trkpt lat="47.546592" lon="7.863006">
        <ele>340.713955</ele>
        <time>2021-11-13T18:35:11.035Z</time>
      </trkpt>
      <trkpt lat="47.546877" lon="7.864345">
        <ele>339.228594</ele>
        <time>2021-11-13T18:35:26.205Z</time>
      </trkpt>
      <trkpt lat="47.546885" lon="7.864500">
        <ele>339.064133</ele>
        <time>2021-11-13T18:35:27.884Z</time>
      </trkpt>
      <trkpt lat="47.546894" lon="7.864837">
        <ele>338.707324</ele>
        <time>2021-11-13T18:35:31.363Z</time>
      </trkpt>
      <trkpt lat="47.546889" lon="7.865225">
        <ele>338.259173</ele>
        <time>2021-11-13T18:35:35.484Z</time>
      </trkpt>
      <trkpt lat="47.546819" lon="7.865489">
        <ele>337.909777</ele>
        <time>2021-11-13T18:35:38.562Z</time>
      </trkpt>
      <trkpt lat="47.546510" lon="7.865766">
        <ele>337.250661</ele>
        <time>2021-11-13T18:35:44.256Z</time>
      </trkpt>
      <trkpt lat="47.546327" lon="7.865959">
        <ele>336.840711</ele>
        <time>2021-11-13T18:35:47.588Z</time>
      </trkpt>
      <trkpt lat="47.546096" lon="7.866147">
        <ele>336.359718</ele>
        <time>2021-11-13T18:35:51.654Z</time>
      </trkpt>
      <trkpt lat="47.545240" lon="7.866887">
        <ele>335.422912</ele>
        <time>2021-11-13T18:36:08.327Z</time>
      </trkpt>
      <trkpt lat="47.545160" lon="7.866985">
        <ele>335.472168</ele>
        <time>2021-11-13T18:36:10.283Z</time>
      </trkpt>
      <trkpt lat="47.545003" lon="7.867278">
        <ele>335.591986</ele>
        <time>2021-11-13T18:36:15.952Z</time>
      </trkpt>
      <trkpt lat="47.544568" lon="7.867693">
        <ele>335.837487</ele>
        <time>2021-11-13T18:36:28.742Z</time>
      </trkpt>
      <trkpt lat="47.544469" lon="7.867776">
        <ele>335.891462</ele>
        <time>2021-11-13T18:36:31.604Z</time>
      </trkpt>
      <trkpt lat="47.544410" lon="7.867825">
        <ele>335.923556</ele>
        <time>2021-11-13T18:36:33.693Z</time>
      </trkpt>
      <trkpt lat="47.544246" lon="7.867967">
        <ele>336.013690</ele>
        <time>2021-11-13T18:36:38.376Z</time>
      </trkpt>
      <trkpt lat="47.544214" lon="7.867988">
        <ele>336.030297</ele>
        <time>2021-11-13T18:36:39.224Z</time>
      </trkpt>
      <trkpt lat="47.543801" lon="7.868269">
        <ele>336.549482</ele>
        <time>2021-11-13T18:36:50.827Z</time>
      </trkpt>
      <trkpt lat="47.543657" lon="7.868359">
        <ele>336.774211</ele>
        <time>2021-11-13T18:36:55.177Z</time>
      </trkpt>
      <trkpt lat="47.543201" lon="7.868657">
        <ele>337.490853</ele>
        <time>2021-11-13T18:37:05.377Z</time>
      </trkpt>
      <trkpt lat="47.543105" lon="7.868711">
        <ele>337.638506</ele>
        <time>2021-11-13T18:37:07.961Z</time>
      </trkpt>
      <trkpt lat="47.543049" lon="7.868759">
        <ele>337.731536</ele>
        <time>2021-11-13T18:37:09.338Z</time>
      </trkpt>
      <trkpt lat="47.542722" lon="7.869201">
        <ele>338.368038</ele>
        <time>2021-11-13T18:37:19.184Z</time>
      </trkpt>
      <trkpt lat="47.542696" lon="7.869257">
        <ele>338.434009</ele>
        <time>2021-11-13T18:37:20.021Z</time>
      </trkpt>
      <trkpt lat="47.542657" lon="7.869354">
        <ele>338.543596</ele>
        <time>2021-11-13T18:37:21.476Z</time>
      </trkpt>
      <trkpt lat="47.542372" lon="7.869746">
        <ele>338.682694</ele>
        <time>2021-11-13T18:37:28.651Z</time>
      </trkpt>
      <trkpt lat="47.542329" lon="7.869820">
        <ele>338.682694</ele>
        <time>2021-11-13T18:37:29.877Z</time>
      </trkpt>
      <trkpt lat="47.542348" lon="7.869983">
        <ele>338.682694</ele>
        <time>2021-11-13T18:37:31.520Z</time>
      </trkpt>
      <trkpt lat="47.542317" lon="7.870012">
        <ele>338.682694</ele>
        <time>2021-11-13T18:37:32.181Z</time>
      </trkpt>
      <trkpt lat="47.542181" lon="7.870131">
        <ele>338.682694</ele>
        <time>2021-11-13T18:37:34.657Z</time>
      </trkpt>
      <trkpt lat="47.542118" lon="7.870135">
        <ele>338.682694</ele>
        <time>2021-11-13T18:37:35.713Z</time>
      </trkpt>
      <trkpt lat="47.542014" lon="7.870126">
        <ele>338.682694</ele>
        <time>2021-11-13T18:37:37.141Z</time>
      </trkpt>
      <trkpt lat="47.541910" lon="7.870106">
        <ele>338.682694</ele>
        <time>2021-11-13T18:37:38.683Z</time>
      </trkpt>
      <trkpt lat="47.541690" lon="7.870336">
        <ele>338.682694</ele>
        <time>2021-11-13T18:37:42.517Z</time>
      </trkpt>
    </trkseg>
  </trk>
</gpx>